     2              OBSERVATION DATA    GPS                 RINEX VERSION / TYPE
teqc 2000Feb29 20030805 03:06:26UTC                         PGM / RUN BY / DATE
                                                            COMMENT
L2: 1 -> 1; 150 -> 5; 250 -> 9                              COMMENT
L2: 1 -> 1; 150 -> 5; 250 -> 9                              COMMENT
L2: 1 -> 1; 150 -> 5; 250 -> 9                              COMMENT
L2: 1 -> 1; 150 -> 5; 250 -> 9                              COMMENT
L2: 1 -> 1; 150 -> 5; 250 -> 9                              COMMENT
Original Marker Name: MADR                                  COMMENT
Campaign Name: USC/SCEC 2003                                COMMENT
4-Character Station Name: MADC                              COMMENT
6-Character Antenna Code: DMRCHT                            COMMENT
Vertical Measurement Point: BCR                             COMMENT
Vertical Offset to Rinex Ref. Point: 0.0348                 COMMENT
Radial Measurement Point: ECF                               COMMENT
Radial Offset to Rinex Ref. Point: 0.1897                   COMMENT
Antenna Height from Field Measurement: 1.0190 m             COMMENT
Additional Antenna Identification Info.:                    COMMENT
Turborogue and Ashtech Choke Ring                           COMMENT
Original XYZ: -2618472.5997 -4523107.4276 3645088.4064      COMMENT
New XYZ position is based on association with SCEC monument COMMENT
E1E9R6M7+0011. Position of that monument is believed to be  COMMENT
valid to within 1 m horizontally; vertical accuracy         COMMENT
should be no worse than 3-times this value.                 COMMENT
                                                            COMMENT
Revised Rinex header created by UCSD GPS archive for        COMMENT
GSAC on 09-Nov-2004 (2004:314) 22:44:59 GMT                 COMMENT
For assistance contact dagnew@ucsd.edu                      COMMENT
or anderson@python.ucsd.edu                                 COMMENT
                                                            COMMENT
MADRE ECC 1980                                              MARKER NAME
KEA UNIV SOUTHERN CALIFORNIA                                OBSERVER / AGENCY
175 ASHTECH Z-XII3 CD00                                     REC # / TYPE / VERS
381 DORNE-MARGOL. TYPE T                                    ANT # / TYPE
 -2618499.0000 -4523125.0000  3645287.0000                  APPROX POSITION XYZ
        0.9664        0.0000        0.0000                  ANTENNA: DELTA H/E/N
     1     1     0                                          WAVELENGTH FACT L1/2
     7    C1    L1    L2    P1    P2    S1    S2            # / TYPES OF OBSERV
     0                                                      INTERVAL
  2003     3    23     0     0   30.000000                  TIME OF FIRST OBS
  2003     3    23    22    45   30.000000                  TIME OF LAST OBS
                                                            END OF HEADER
 03  3 23  0  0 30.0000000  0 11G 3G29G14G26G17G16G23G 2G15G18G 6
  23175833.563   -14190323.22249 -11024055.97746  23175833.105    23175842.029
       220.000         167.000
  24836428.809    -1608715.72549  -1236981.19944  24836428.948    24836438.826
       200.000         128.000
  24119323.894    -2468832.72849  -1533932.61745  24119323.440    24119333.474
       202.000         135.000
  22885263.772    -8308204.60449  -6456246.51446  22885263.222    22885271.870
       222.000         166.000
  20925618.096   -25181098.13749 -19604197.52647  20925617.716    20925625.017
       241.000         205.000
  23825927.007    -7916225.60649  -6146056.45345  23825927.384    23825937.407
       214.000         153.000
  20845819.516   -18828888.45849 -14650628.03547  20845819.110    20845825.865
       242.000         211.000
  24766713.597    -6211186.81349  -4829162.02045  24766713.411    24766725.407
       207.000         144.000
  20592160.697   -25326176.95049 -19703040.32147  20592160.064    20592167.353
       243.000         210.000
  20382271.614   -24517564.43549 -19072786.21948  20382271.527    20382277.055
       241.000         214.000
  23171861.078   -12071346.58349  -9392865.90445  23171861.574    23171871.817
       217.000         161.000
 03  3 23  0  1  0.0000000  0 11G 3G29G14G26G17G16G23G 2G15G18G 6
  23160002.444   -14273516.34749 -11088881.70046  23160001.664    23160011.075
       220.000         167.000
  24853489.108    -1519063.17249  -1167122.08044  24853488.338    24853495.124
       198.000         126.000
  24097872.869    -2581557.33249  -1621769.78345  24097871.401    24097882.790
       203.000         136.000
  22900603.264    -8227594.81949  -6393433.72546  22900603.932    22900611.043
       220.000         164.000
  20929118.511   -25162703.29149 -19589863.89447  20929118.153    20929125.359
       241.000         205.000
  23835941.027    -7863602.41349  -6105051.48345  23835941.801    23835951.243
       214.000         153.000
  20851590.850   -18798559.46149 -14626995.05147  20851590.414    20851597.387
       243.000         211.000
  24769157.393    -6198344.13249  -4819154.78345  24769157.529    24769169.827
       206.000         144.000
  20586405.120   -25356422.82349 -19726608.51947  20586404.529    20586411.696
       242.000         210.000
  20382202.269   -24517929.10049 -19073070.36248  20382201.945    20382207.464
       240.000         214.000
  23191643.742   -11967389.41649  -9311860.48845  23191644.399    23191654.207
       218.000         161.000
 03  3 23  0  1 30.0000000  0 11G 3G29G14G26G17G16G23G 2G15G18G 6
  23144232.427   -14356388.65849 -11153457.44046  23144232.611    23144240.607
       222.000         168.000
  24870598.203    -1429155.34149  -1097064.04244  24870599.322    24870608.205
       203.000         126.000
  24076431.635    -2694229.84949  -1709566.38145  24076430.274    24076441.221
       206.000         136.000
  22916030.234    -8146525.49149  -6330262.86046  22916030.412    22916039.295
       220.000         163.000
  20932665.359   -25144064.54349 -19575340.21247  20932665.058    20932672.332
       242.000         205.000
  23846016.802    -7810654.73649  -6063793.67145  23846016.536    23846027.004
       214.000         153.000
  20857414.590   -18767955.38649 -14603147.72047  20857414.273    20857421.136
       243.000         211.000
  24771672.608    -6185127.28649  -4808856.00445  24771672.758    24771684.368
       207.000         143.000
  20580692.754   -25386441.24349 -19749999.47847  20580692.133    20580699.650
       242.000         210.000
  20382204.052   -24517919.56549 -19073062.92948  20382203.744    20382209.483
       240.000         214.000
  23211464.460   -11863232.17549  -9230699.17345  23211464.727    23211475.681
       218.000         162.000
 03  3 23  0  2  0.0000000  0 11G 3G29G14G26G17G16G23G 2G15G18G 6
  23128523.851   -14438937.92349 -11217781.46046  23128523.606    23128531.465
       222.000         168.000
  24887755.349    -1338994.98049  -1026809.25844  24887754.136    24887764.935
       202.000         124.000
  24055000.744    -2806847.76749  -1797320.44545  24055000.630    24055010.246
       205.000         137.000
  22931544.124    -8064999.76649  -6266736.36245  22931543.413    22931552.415
       218.000         162.000
  20936258.745   -25125181.22549 -19560625.95847  20936258.460    20936265.818
       241.000         205.000
  23856153.896    -7757385.64649  -6022285.41445  23856154.888    23856163.732
       215.000         152.000
  20863290.291   -18737078.23349 -14579087.59747  20863289.935    20863296.777
       242.000         211.000
  24774258.945    -6171538.08749  -4798267.08445  24774258.768    24774271.461
       204.000         142.000
  20575023.801   -25416231.62149 -19773212.74147  20575023.478    20575030.495
       242.000         209.000
  20382276.852   -24517536.89349 -19072764.73848  20382276.803    20382282.134
       240.000         214.000
  23231322.556   -11758877.65249  -9149384.11245  23231322.800    23231333.611
       217.000         162.000
 03  3 23  0  2 30.0000000  0 10G 3G14G26G17G16G23G 2G15G18G 6
  23112877.333   -14521161.17349 -11281851.44246  23112877.648    23112884.726
       221.000         168.000
  24033580.906    -2919407.97649  -1885029.54945  24033581.628    24033591.597
       206.000         139.000
  22947144.369    -7983019.60949  -6202855.78045  22947144.193    22947152.479
       218.000         162.000
  20939898.927   -25106052.03549 -19545720.12347  20939898.600    20939906.138
       240.000         205.000
  23866351.477    -7703797.12449  -5980528.24245  23866350.619    23866361.635
       212.000         151.000
  20869217.815   -18705928.92649 -14554815.41247  20869217.761    20869224.429
       243.000         211.000
  24776915.654    -6157577.19949  -4787388.52545  24776914.629    24776927.452
       204.000         141.000
  20569398.624   -25445792.24249 -19796246.97547  20569398.472    20569405.163
       243.000         210.000
  20382420.560   -24516781.67349 -19072176.24348  20382420.344    20382425.900
       241.000         214.000
  23251217.784   -11654327.49549  -9067916.61646  23251217.837    23251229.541
       216.000         163.000
 03  3 23  0  3  0.0000000  0 10G 3G14G26G17G16G23G 2G15G18G 6
  23097293.256   -14603055.78149 -11345665.33246  23097292.757    23097300.498
       221.000         167.000
  24012172.911    -3031907.55449  -1972691.42045  24012172.519    24012184.434
       207.000         139.000
  22962830.705    -7900587.86649  -6138623.31645  22962832.182    22962838.605
       219.000         162.000
  20943586.054   -25086675.96649 -19530621.91347  20943585.717    20943593.335
       241.000         205.000
  23876609.157    -7649891.56549  -5938524.02645  23876608.378    23876618.716
       214.000         151.000
  20875196.833   -18674509.16349 -14530332.47547  20875196.432    20875203.283
       243.000         211.000
  24779642.597    -6143245.81449  -4776221.26845  24779641.211    24779654.462
       201.000         140.000
  20563817.453   -25475121.98849 -19819101.30347  20563817.026    20563823.951
       243.000         210.000
  20382634.987   -24515654.83449 -19071298.17948  20382634.846    20382640.352
       240.000         214.000
  23271149.885   -11549583.81249  -8986298.32446  23271149.958    23271162.245
       218.000         163.000
 03  3 23  0  3 30.0000000  0 10G 3G14G26G17G16G23G 2G15G18G 6
  23081771.890   -14684620.23049 -11409221.95546  23081770.733    23081779.734
       223.000         168.000
  23990776.939    -3144344.88249  -2060304.76245  23990776.811    23990786.772
       209.000         140.000
  22978602.350    -7817708.34549  -6074041.91746  22978603.034    22978611.059
       221.000         163.000
  20947320.086   -25067053.53949 -19515331.72247  20947319.692    20947326.863
       242.000         205.000
  23886926.724    -7595673.17649  -5896276.05745  23886926.245    23886936.165
       216.000         151.000
  20881226.739   -18642821.68849 -14505640.93347  20881226.308    20881233.184
       244.000         211.000
  24782439.740    -6128546.42549  -4764767.26845  24782440.463    24782451.112
       207.000         140.000
  20558280.093   -25504220.92549 -19841775.77547  20558279.619    20558286.593
       244.000         210.000
  20382919.777   -24514158.54549 -19070132.22148  20382919.438    20382924.728
       242.000         214.000
  23291118.299   -11444649.93649  -8904531.82745  23291119.044    23291129.423
       219.000         162.000
 03  3 23  0  4  0.0000000  0 10G 3G14G26G17G16G23G 2G15G18G 6
  23066314.134   -14765851.16549 -11472518.71146  23066314.033    23066322.794
       223.000         169.000
  23969393.596    -3256715.85849  -2147866.41345  23969392.045    23969403.388
       209.000         141.000
  22994458.687    -7734382.59949  -6009112.81146  22994459.237    22994466.724
       218.000         163.000
  20951101.413   -25047182.64949 -19499847.94147  20951101.244    20951108.496
       241.000         205.000
  23897303.551    -7541143.50849  -5853785.53845  23897303.771    23897313.999
       213.000         151.000
  20887307.509   -18610866.88749 -14480741.10047  20887307.178    20887314.243
       242.000         210.000
  24785307.137    -6113479.33649  -4753026.77545  24785307.619    24785318.562
       204.000         140.000
  20552787.137   -25533086.65049 -19864268.53747  20552786.732    20552793.565
       243.000         210.000
  20383274.745   -24512292.76949 -19068678.36648  20383274.273    20383280.021
       240.000         214.000
  23311122.741   -11339526.92749  -8822617.96545  23311123.235    23311133.443
       215.000         161.000
 03  3 23  0  4 30.0000000  0 10G 3G14G26G17G16G23G 2G15G18G 6
  23050920.061   -14846747.23949 -11535554.53946  23050919.810    23050927.478
       223.000         170.000
  23948023.010    -3369019.04849  -2235375.24545  23948021.819    23948032.106
       208.000         141.000
  23010399.146    -7650614.72149  -5943839.17345  23010399.472    23010407.295
       220.000         162.000
  20954929.885   -25027063.93449 -19484171.03947  20954929.474    20954936.891
       241.000         205.000
  23907738.633    -7486306.44849  -5811055.47345  23907739.097    23907748.933
       212.000         152.000
  20893438.605   -18578647.71249 -14455635.25247  20893438.054    20893444.992
       242.000         210.000
  24788243.650    -6098047.38149  -4741001.92445  24788242.587    24788255.483
       203.000         139.000
  20547338.505   -25561719.58249 -19886579.88847  20547337.974    20547344.987
       243.000         210.000
  20383699.582   -24510059.82749 -19066938.39548  20383699.379    20383704.949
       240.000         214.000
  23331162.522   -11234218.39749  -8740559.54245  23331162.742    23331173.740
       214.000         160.000
 03  3 23  0  5  0.0000000  0 10G 3G14G26G17G16G23G 2G15G18G 6
  23035590.454   -14927304.42649 -11598326.30846  23035590.283    23035598.612
       222.000         170.000
  23926665.861    -3481250.34549  -2322828.06345  23926664.785    23926676.139
       208.000         142.000
  23026423.580    -7566406.10449  -5878222.10745  23026424.548    23026432.054
       219.000         162.000
  20958805.997   -25006694.85049 -19468299.04947  20958805.671    20958813.053
       241.000         206.000
  23918231.943    -7431163.22649  -5768086.83545  23918231.383    23918242.529
       213.000         152.000
  20899619.961   -18546164.29749 -14430323.50447  20899619.684    20899626.577
       243.000         210.000
  24791249.878    -6082250.26849  -4728692.54345  24791250.734    24791261.527
       204.000         139.000
  20541934.662   -25590117.09549 -19908707.80647  20541934.095    20541941.230
       243.000         211.000
  20384194.461   -24507459.38649 -19064912.07348  20384194.276    20384199.720
       240.000         214.000
  23351237.252   -11128725.41849  -8658357.39745  23351237.175    23351247.198
       214.000         159.000
 03  3 23  0  5 30.0000000  0 10G 3G14G26G17G16G23G 2G15G18G 6
  23020325.458   -15007521.60549 -11660833.12746  23020325.360    23020333.771
       221.000         169.000
  23905322.618    -3593408.38749  -2410223.79845  23905322.230    23905332.783
       208.000         144.000
  23042531.117    -7481760.96249  -5812264.90045  23042531.647    23042539.033
       217.000         161.000
  20962729.601   -24986076.27949 -19452232.65247  20962729.384    20962737.098
       241.000         206.000
  23928782.920    -7375718.05249  -5724882.91145  23928782.968    23928792.776
       214.000         151.000
  20905851.049   -18513419.83049 -14404808.33747  20905850.781    20905857.690
       242.000         210.000
  24794325.041    -6066091.01949  -4716100.98845  24794324.566    24794336.060
       202.000         137.000
  20536575.438   -25618279.65849 -19930652.64047  20536574.645    20536582.247
       242.000         211.000
  20384758.810   -24504493.81749 -19062601.22548  20384758.545    20384764.000
       240.000         214.000
  23371346.279   -11023051.63449  -8576014.36145  23371345.874    23371357.437
       213.000         158.000
 03  3 23  0  6  0.0000000  0 10G 3G14G26G17G16G23G 2G15G18G 6
  23005125.742   -15087395.89049 -11723072.76146  23005125.283    23005134.422
       221.000         170.000
  23883993.993    -3705489.92249  -2497559.91545  23883995.144    23884004.118
       208.000         144.000
  23058721.313    -7396681.56649  -5745969.30645  23058721.849    23058730.006
       218.000         161.000
  20966700.956   -24965207.12649 -19435970.99647  20966700.645    20966708.128
       241.000         206.000
  23939391.046    -7319973.08349  -5681445.41145  23939392.294    23939400.928
       216.000         151.000
  20912131.622   -18480415.36149 -14379090.57047  20912131.313    20912138.258
       242.000         210.000
  24797468.599    -6049570.40749  -4703227.85145  24797467.171    24797480.367
       202.000         137.000
  20531261.179   -25646205.66649 -19952413.15547  20531260.494    20531267.868
       242.000         210.000
  20385392.483   -24501163.68249 -19060006.30348  20385392.217    20385397.708
       240.000         214.000
  23391489.332   -10917198.78149  -8493531.78145  23391489.769    23391501.020
       212.000         157.000
 03  3 23  0  6 30.0000000  0 10G 3G14G26G17G16G23G 2G15G18G 6
  22989991.827   -15166924.98149 -11785043.40646  22989991.820    22990000.361
       221.000         170.000
  23862680.556    -3817492.20549  -2584834.26045  23862680.200    23862690.052
       211.000         144.000
  23074993.517    -7311170.81149  -5679337.59045  23074993.594    23075002.003
       218.000         161.000
  20970720.108   -24944086.45449 -19419513.35247  20970719.903    20970727.213
       241.000         206.000
  23950055.627    -7263931.21849  -5637776.55545  23950055.851    23950066.304
       215.000         152.000
  20918461.308   -18447152.63549 -14353171.57347  20918461.041    20918467.984
       242.000         210.000
  24800680.852    -6032690.09449  -4690074.40445  24800680.646    24800692.500
       205.000         136.000
  20525992.199   -25673894.24649 -19973988.66247  20525991.672    20525998.697
       243.000         210.000
  20386095.360   -24497470.20449 -19057128.25548  20386095.110    20386100.703
       240.000         214.000
  23411666.026   -10811169.36449  -8410911.61945  23411666.011    23411678.157
       213.000         156.000
 03  3 23  0  7  0.0000000  0 10G 3G14G26G17G16G23G 2G15G18G 6
  22974924.052   -15246106.67949 -11846743.35846  22974923.771    22974932.007
       221.000         169.000
  23841382.746    -3929412.80749  -2672044.96745  23841382.404    23841393.104
       210.000         145.000
  23091347.098    -7225232.04749  -5612372.36145  23091347.693    23091355.910
       219.000         162.000
  20974787.226   -24922713.96149 -19402859.48147  20974787.007    20974794.476
       241.000         206.000
  23960776.062    -7207595.65749  -5593878.83545  23960776.849    23960787.189
       216.000         153.000
  20924839.801   -18413633.61149 -14327052.86147  20924839.605    20924846.364
       243.000         210.000
  24803961.406    -6015452.15449  -4676642.32845  24803960.346    24803971.887
       203.000         136.000
  20520768.511   -25701344.72449 -19995378.62947  20520767.938    20520775.166
       243.000         210.000
  20386867.026   -24493414.84249 -19053968.22048  20386866.716    20386872.339
       240.000         214.000
  23431875.849   -10704965.95249  -8328155.87945  23431875.980    23431887.711
       214.000         155.000
 03  3 23  0  7 30.0000000  0 10G 3G14G26G17G16G23G 2G15G18G 6
  22959922.765   -15324938.61349 -11908170.77346  22959922.996    22959930.606
       222.000         170.000
  23820101.023    -4041249.11149  -2759189.98845  23820100.528    23820110.889
       211.000         145.000
  23107781.816    -7138868.00649  -5545075.74146  23107782.495    23107790.893
       219.000         164.000
  20978902.401   -24901088.70449 -19386008.65547  20978902.228    20978909.659
       241.000         206.000
  23971551.940    -7150969.03749  -5549754.32145  23971552.140    23971562.675
       217.000         154.000
  20931266.705   -18379860.15949 -14300735.89247  20931266.316    20931273.102
       242.000         210.000
  24807309.375    -5997858.09049  -4662932.73945  24807308.488    24807321.032
       203.000         137.000
  20515590.414   -25728555.87649 -20016582.11047  20515589.893    20515596.834
       243.000         211.000
  20387707.296   -24488998.85349 -19050527.18048  20387706.974    20387712.792
       240.000         214.000
  23452118.405   -10598590.92349  -8245266.41745  23452118.566    23452130.159
       213.000         155.000
 03  3 23  0  8  0.0000000  0 10G 3G14G26G17G16G23G 2G15G18G 6
  22944988.610   -15403417.72349 -11969323.26646  22944989.614    22944996.684
       223.000         171.000
  23798835.936    -4152997.39449  -2846266.41145  23798835.229    23798846.123
       209.000         146.000
  23124296.900    -7052080.90049  -5477449.44845  23124296.113    23124305.145
       216.000         162.000
  20983065.914   -24879209.56249 -19368959.98547  20983065.596    20983073.297
       240.000         206.000
  23982382.732    -7094053.75749  -5505404.88845  23982382.502    23982392.978
       215.000         153.000
  20937741.764   -18345833.08449 -14274221.29347  20937741.443    20937748.269
       242.000         209.000
  24810725.037    -5979908.74549  -4648946.31745  24810725.822    24810736.592
       205.000         138.000
  20510458.163   -25755526.02149 -20037597.79747  20510457.776    20510464.763
       243.000         211.000
  20388616.210   -24484222.52849 -19046805.36148  20388615.975    20388621.368
       240.000         214.000
  23472393.403   -10492045.89949  -8162244.48845  23472393.710    23472405.073
       213.000         154.000
 03  3 23  0  8 30.0000000  0 10G 3G14G26G17G16G23G 2G15G18G 6
  22930122.178   -15481541.74749 -12030199.05646  22930121.887    22930129.799
       224.000         171.000
  23777587.961    -4264655.32349  -2933272.41845  23777587.379    23777598.421
       210.000         147.000
  23140891.672    -6964873.85449  -5409495.94945  23140891.544    23140900.216
       216.000         161.000
  20987277.864   -24857075.63849 -19351712.79347  20987277.590    20987285.089
       242.000         205.000
  23993267.727    -7036852.56049  -5460832.65145  23993266.857    23993278.136
       214.000         152.000
  20944264.867   -18311554.33349 -14247510.58347  20944264.777    20944271.542
       244.000         210.000
  24814208.174    -5961605.82949  -4634684.40445  24814207.342    24814220.568
       203.000         139.000
  20505371.972   -25782254.19549 -20058424.93047  20505371.287    20505378.696
       244.000         211.000
  20389593.419   -24479087.29149 -19042803.86748  20389593.058    20389598.664
       241.000         214.000
  23492700.339   -10385333.49049  -8079092.13845  23492701.081    23492711.900
       215.000         154.000
 03  3 23  0  9  0.0000000  0 10G 3G14G26G17G16G23G 2G15G18G 6
  22915323.560   -15559308.55349 -12090796.50346  22915323.592    22915331.824
       222.000         171.000
  23756357.750    -4376220.38849  -3020206.07145  23756357.846    23756368.634
       210.000         148.000
  23157565.814    -6877249.91149  -5341217.58545  23157566.540    23157575.012
       215.000         160.000
  20991538.455   -24834686.14949 -19334266.46247  20991538.091    20991545.229
       241.000         205.000
  24004206.486    -6979368.75449  -5416040.21645  24004206.254    24004217.289
       215.000         151.000
  20950835.466   -18277025.85549 -14220605.28647  20950835.149    20950841.958
       242.000         210.000
  24817757.853    -5942951.22349  -4620148.41345  24817757.844    24817770.127
       206.000         138.000
  20500331.908   -25808739.59749 -20079062.89847  20500331.446    20500338.560
       243.000         211.000
  20390638.606   -24473594.52449 -19038523.78548  20390638.495    20390644.111
       240.000         214.000
  23513038.502   -10278456.42549  -7995811.47145  23513038.372    23513049.811
       212.000         154.000
 03  3 23  0  9 30.0000000  0 10G 3G14G26G17G16G23G 2G15G18G 6
  22900593.318   -15636715.77449 -12151113.73146  22900593.019    22900601.673
       224.000         172.000
  23735145.786    -4487689.89749  -3107065.26045  23735146.060    23735156.308
       213.000         149.000
  23174318.645    -6789212.10749  -5272616.73545  23174318.973    23174326.869
       214.000         159.000
  20995847.656   -24812041.14649 -19316621.02447  20995847.038    20995854.622
       241.000         205.000
  24015198.808    -6921605.10849  -5371029.71745  24015199.014    24015209.019
       214.000         150.000
  20957453.175   -18242249.33549 -14193506.69847  20957452.677    20957459.523
       242.000         209.000
  24821374.508    -5923946.50149  -4605339.63745  24821374.510    24821386.393
       207.000         139.000
  20495338.307   -25834981.32849 -20099510.99047  20495337.953    20495345.060
       244.000         212.000
  20391751.712   -24467745.30849 -19033965.94548  20391751.564    20391757.071
       240.000         214.000
  23533407.481   -10171417.13249  -7912404.39345  23533408.071    23533419.012
       214.000         153.000
 03  3 23  0 10  0.0000000  0 10G 3G14G26G17G16G23G 2G15G18G 6
  22885932.147   -15713760.39949 -12211148.43046  22885931.999    22885939.188
       224.000         172.000
  23713952.825    -4599060.52449  -3193847.38945  23713953.102    23713962.949
       212.000         149.000
  23191149.880    -6700762.72749  -5203695.16045  23191150.221    23191157.736
       214.000         158.000
  21000205.708   -24789139.33649 -19298775.47847  21000205.240    21000212.819
       241.000         205.000
  24026243.744    -6863563.87249  -5325802.91845  24026244.897    24026253.569
       214.000         149.000
  20964117.871   -18207225.82949 -14166215.66147  20964117.543    20964124.436
       242.000         209.000
  24825057.691    -5904592.77849  -4590258.90545  24825057.850    24825069.263
       205.000         139.000
  20490391.329   -25860977.84649 -20119768.00447  20490390.718    20490397.737
       243.000         211.000
  20392932.476   -24461540.44549 -19029130.98248  20392932.297    20392937.631
       240.000         214.000
  23553807.182   -10064217.26949  -7828872.22245  23553807.508    23553818.561
       212.000         153.000
 03  3 23  0 10 30.0000000  0 10G 3G14G26G17G16G23G 2G15G18G 6
  22871340.301   -15790441.36349 -12270899.75646  22871340.291    22871348.559
       225.000         173.000
  23692778.991    -4710330.87649  -3280551.37945  23692778.401    23692788.159
       212.000         149.000
  23208058.729    -6611906.10649  -5134456.26245  23208060.104    23208068.246
       216.000         158.000
  21004612.629   -24765980.94249 -19280730.00247  21004612.339    21004619.652
       241.000         205.000
  24037340.668    -6805249.23649  -5280363.07345  24037341.595    24037350.347
       215.000         149.000
  20970829.111   -18171958.23549 -14138734.42647  20970828.757    20970835.629
       241.000         209.000
  24828806.425    -5884892.86249  -4574908.39145  24828805.795    24828819.276
       202.000         137.000
  20485490.941   -25886729.28349 -20139834.05147  20485490.370    20485497.365
       243.000         211.000
  20394180.442   -24454982.29049 -19024020.72448  20394180.213    20394185.599
       239.000         214.000
  23574236.646    -9956860.47149  -7745217.74145  23574237.525    23574248.504
       212.000         151.000
 03  3 23  0 11  0.0000000  0 10G 3G14G26G17G16G23G 2G15G18G 6
  22856818.157   -15866755.76349 -12330365.44746  22856818.434    22856826.411
       224.000         174.000
  23671624.712    -4821497.48749  -3367174.53345  23671623.696    23671633.710
       212.000         149.000
  23225044.718    -6522644.41549  -5064901.72645  23225045.026    23225054.652
       215.000         159.000
  21009068.703   -24742564.38149 -19262483.34947  21009068.215    21009075.775
       241.000         205.000
  24048489.529    -6746663.52949  -5234712.01545  24048491.026    24048498.881
       215.000         149.000
  20977586.535   -18136447.70949 -14111063.89347  20977586.079    20977592.967
       242.000         209.000
  24832620.686    -5864847.94649  -4559289.02445  24832620.325    24832632.716
       205.000         135.000
  20480637.583   -25912233.88449 -20159707.75647  20480636.910    20480644.090
       243.000         211.000
  20395495.522   -24448071.42549 -19018635.63148  20395495.222    20395500.727
       240.000         214.000
  23594695.589    -9849348.62149  -7661442.45645  23594696.172    23594706.907
       212.000         150.000
 03  3 23  0 11 30.0000000  0 10G 3G14G26G17G16G23G 2G15G18G 6
  22842366.643   -15942698.92149 -12389541.86146  22842366.339    22842374.231
       224.000         174.000
  23650490.936    -4932555.29249  -3453712.90445  23650490.036    23650499.719
       212.000         149.000
  23242107.625    -6432978.41449  -4995032.13945  23242108.343    23242116.878
       216.000         160.000
  21013574.391   -24718886.86549 -19244033.35647  21013574.125    21013581.460
       240.000         205.000
  24059689.868    -6687807.38749  -5188850.23745  24059690.253    24059699.746
       214.000         149.000
  20984390.313   -18100693.64049 -14083203.58547  20984390.319    20984396.866
       242.000         209.000
  24836501.310    -5844457.17549  -4543400.18445  24836501.018    24836512.554
       205.000         135.000
  20475831.781   -25937488.47549 -20179386.64847  20475831.297    20475838.201
       242.000         211.000
  20396877.872   -24440806.95149 -19012974.99848  20396877.595    20396883.229
       240.000         214.000
  23615183.971    -9741681.70049  -7577546.33845  23615184.768    23615195.738
       212.000         149.000
 03  3 23  0 12  0.0000000  0 10G 3G14G26G17G16G23G 2G15G18G 6
  22827985.673   -16018271.11949 -12448429.21546  22827985.145    22827993.664
       224.000         174.000
  23629377.821    -5043504.36649  -3540166.54445  23629377.872    23629387.049
       213.000         150.000
  23259246.378    -6342913.76049  -4924851.91145  23259247.028    23259256.124
       216.000         160.000
  21018129.332   -24694950.45349 -19225381.63247  21018129.172    21018136.309
       241.000         205.000
  24070940.286    -6628686.30849  -5142781.98545  24070940.205    24070950.339
       213.000         148.000
  20991239.644   -18064700.31249 -14055156.84647  20991239.257    20991246.027
       241.000         209.000
  24840446.441    -5823725.08349  -4527245.37045  24840444.398    24840458.342
       204.000         137.000
  20471073.215   -25962494.62349 -20198871.94747  20471072.691    20471079.561
       243.000         210.000
  20398326.803   -24433192.61549 -19007041.74548  20398326.612    20398332.221
       240.000         214.000
  23635700.948    -9633864.74649  -7493533.29545  23635701.364    23635712.374
       212.000         149.000
 03  3 23  0 12 30.0000000  0  9G 3G14G26G17G16G23G15G18G 6
  22813675.713   -16093470.14849 -12507025.77846  22813675.091    22813683.062
       225.000         173.000
  23608286.062    -5154342.15249  -3626533.46145  23608286.543    23608294.708
       213.000         150.000
  23276460.317    -6252453.63149  -4854363.51745  23276460.452    23276470.327
       215.000         160.000
  21022733.559   -24670754.98149 -19206528.02847  21022732.755    21022740.529
       241.000         204.000
  24082240.314    -6569303.29449  -5096509.63645  24082240.552    24082251.280
       214.000         148.000
  20998134.036   -18028469.59949 -14026925.11447  20998133.465    20998140.051
       242.000         208.000
  20466362.146   -25987251.37149 -20218162.89747  20466361.333    20466368.321
       244.000         211.000
  20399842.100   -24425229.74849 -19000836.89148  20399841.464    20399847.232
       241.000         214.000
  23656245.992    -9525900.47649  -7409405.45445  23656246.801    23656257.700
       213.000         149.000
 03  3 23  0 13  0.0000000  0  9G 3G14G26G17G16G23G15G18G 6
  22799437.407   -16168292.49949 -12565328.84846  22799436.539    22799445.108
       225.000         173.000
  23587216.355    -5265064.54749  -3712810.46745  23587215.421    23587224.386
       214.000         151.000
  23293749.317    -6161599.67949  -4783568.27145  23293750.052    23293757.970
       216.000         159.000
  21027387.447   -24646298.24949 -19187470.86047  21027386.673    21027394.427
       241.000         204.000
  24093590.039    -6509660.02949  -5050034.50245  24093590.065    24093600.803
       214.000         148.000
  21005073.588   -17992002.04549 -13998508.85047  21005073.031    21005080.006
       243.000         208.000
  20461699.001   -26011756.37049 -20237257.69647  20461698.301    20461705.459
       245.000         211.000
  20401423.689   -24416918.50349 -18994360.59548  20401423.349    20401428.757
       242.000         214.000
  23676818.902    -9417790.11349  -7325163.79045  23676819.129    23676830.306
       214.000         149.000
 03  3 23  0 13 30.0000000  0  9G 3G14G26G17G16G23G15G18G 6
  22785271.064   -16242736.52949 -12623337.12246  22785270.446    22785279.883
       224.000         173.000
  23566168.835    -5375669.91949  -3798996.29545  23566167.022    23566177.809
       214.000         151.000
  23311112.549    -6070355.92549  -4712469.28745  23311112.653    23311122.083
       212.000         158.000
  21032091.104   -24621580.16949 -19168210.04147  21032090.507    21032098.666
       239.000         204.000
  24104988.777    -6449760.43149  -5003359.63945  24104989.673    24105000.053
       212.000         147.000
  21012057.748   -17955300.17849 -13969910.00947  21012057.745    21012064.394
       242.000         209.000
  20457083.825   -26036009.49849 -20256156.22847  20457083.566    20457090.537
       244.000         212.000
  20403071.171   -24408260.94149 -18987614.44448  20403070.828    20403076.309
       240.000         214.000
  23697419.105    -9309537.03649  -7240810.91945  23697419.878    23697430.616
       214.000         149.000
 03  3 23  0 14  0.0000000  0  9G 3G14G26G17G16G23G15G18G 6
  22771177.133   -16316800.03849 -12681048.89446  22771176.662    22771184.883
       224.000         173.000
  23545143.904    -5486155.34149  -3885088.66045  23545142.847    23545151.382
       212.000         152.000
  23328549.209    -5978725.16449  -4641068.74945  23328549.991    23328557.919
       211.000         156.000
  21036844.761   -24596599.59649 -19148744.68147  21036844.556    21036852.270
       239.000         204.000
  24116435.595    -6389607.36449  -4956487.25645  24116435.209    24116444.820
       213.000         146.000
  21019086.144   -17918365.75449 -13941129.94647  21019085.810    21019092.335
       241.000         208.000
  20452516.812   -26060009.72849 -20274857.68947  20452516.378    20452523.520
       243.000         212.000
  20404784.363   -24399258.11249 -18980599.24548  20404784.172    20404789.661
       240.000         214.000
  23718046.036    -9201143.44749  -7156348.56745  23718046.798    23718057.754
       212.000         149.000
 03  3 23  0 14 30.0000000  0  9G 3G14G26G17G16G23G15G18G 6
  22757155.982   -16390480.19849 -12738461.93946  22757155.039    22757163.977
       223.000         173.000
  23524142.278    -5596517.79249  -3971085.19745  23524140.916    23524150.962
       211.000         152.000
  23346059.164    -5886710.03349  -4569368.70645  23346060.119    23346068.026
       214.000         156.000
  21041648.460   -24571356.01449 -19129074.37247  21041648.340    21041655.957
       240.000         204.000
  24127930.251    -6329203.18449  -4909419.18945  24127930.601    24127940.064
       211.000         145.000
  21026158.548   -17881199.81949 -13912169.47747  21026158.483    21026165.122
       242.000         208.000
  20447998.157   -26083755.34549 -20293360.75047  20447997.636    20448004.712
       244.000         212.000
  20406563.049   -24389910.95649 -18973315.73948  20406562.601    20406568.519
       239.000         214.000
  23738699.216    -9092611.25049  -7071778.20245  23738699.320    23738711.528
       213.000         148.000
 03  3 23  0 15  0.0000000  0  9G 3G14G26G17G16G23G15G18G 6
  22743208.383   -16463774.37849 -12795574.22946  22743208.305    22743217.970
       224.000         174.000
  23503164.570    -5706754.32249  -4056983.62545  23503163.149    23503173.412
       212.000         151.000
  23363641.896    -5794313.19249  -4497371.21845  23363642.557    23363651.548
       212.000         156.000
  21046502.446   -24545848.60449 -19109198.48847  21046502.250    21046509.320
       240.000         204.000
  24139471.912    -6268550.79349  -4862157.70845  24139470.362    24139482.943
       209.000         144.000
  21033274.798   -17843804.00949 -13883029.88347  21033274.357    21033281.368
       241.000         208.000
  20443528.091   -26107245.66249 -20311664.87847  20443527.460    20443534.543
       243.000         212.000
  20408407.003   -24380220.72649 -18965764.90048  20408406.834    20408412.252
       240.000         214.000
  23759378.198    -8983942.73749  -6987101.62445  23759379.214    23759388.799
       213.000         148.000
 03  3 23  0 15 30.0000000  0  9G 3G14G26G17G16G23G15G18G 6
  22729334.625   -16536680.98149 -12852384.51546  22729334.449    22729342.423
       225.000         174.000
  23482211.487    -5816862.45149  -4142782.00245  23482211.104    23482219.517
       216.000         151.000
  23381296.364    -5701538.19149  -4425079.07045  23381297.335    23381305.081
       212.000         156.000
  21051406.680   -24520076.82049 -19089116.59947  21051406.554    21051413.610
       240.000         203.000
  24151060.291    -6207653.44949  -4814705.37945  24151059.979    24151071.948
       208.000         143.000
  21040434.339   -17806180.33249 -13853712.73447  21040434.031    21040440.792
       241.000         208.000
  20439106.741   -26130479.71849 -20329769.31847  20439106.121    20439113.264
       244.000         212.000
  20410316.028   -24370188.86549 -18957947.85248  20410315.822    20410321.290
       240.000         214.000
  23780082.630    -8875140.86349  -6902321.10545  23780083.601    23780095.074
       213.000         148.000
 03  3 23  0 16  0.0000000  0  9G 3G14G26G17G16G23G15G18G 6
  22715535.008   -16609197.79649 -12908891.07146  22715534.493    22715543.204
       224.000         174.000
  23461283.515    -5926839.48249  -4228478.23245  23461283.312    23461292.108
       213.000         152.000
  23399022.287    -5608387.88549  -4352494.46545  23399022.204    23399031.214
       213.000         155.000
  21056361.404   -24494039.60749 -19068827.88147  21056361.105    21056368.452
       240.000         203.000
  24162694.625    -6146514.07849  -4767064.44645  24162693.725    24162706.099
       207.000         143.000
  21047636.959   -17768330.41849 -13824219.29547  21047636.514    21047643.401
       241.000         208.000
  20434734.436   -26153456.30449 -20347673.13447  20434734.008    20434740.754
       244.000         212.000
  20412289.787   -24359816.52649 -18949865.50148  20412289.536    20412294.891
       240.000         214.000
  23800812.111    -8766207.96949  -6817438.51645  23800813.470    23800824.215
       213.000         148.000
 03  3 23  0 16 30.0000000  0  9G 3G14G26G17G16G23G15G18G 6
  22701809.924   -16681322.26949 -12965091.90346  22701809.544    22701818.129
       223.000         173.000
  23440380.887    -6036682.61049  -4314070.12645  23440380.133    23440389.072
       214.000         153.000
  23416819.190    -5514865.29649  -4279619.75145  23416820.013    23416827.967
       213.000         154.000
  21061366.685   -24467736.72349 -19048332.14347  21061366.379    21061373.987
       240.000         203.000
  24174374.484    -6085135.31649  -4719236.96245  24174375.198    24174386.418
       206.000         142.000
  21054882.270   -17730255.74049 -13794550.71847  21054881.749    21054888.566
       241.000         207.000
  20430411.349   -26176174.32049 -20365375.46647  20430410.671    20430417.505
       243.000         212.000
  20414328.178   -24349104.76149 -18941518.66448  20414328.005    20414333.304
       240.000         214.000
  23821566.124    -8657146.26549  -6732455.54445  23821566.213    23821576.972
       212.000         148.000
 03  3 23  0 17  0.0000000  0  9G 3G14G26G17G16G23G15G18G 6
  22688160.162   -16753051.81949 -13020985.00146  22688159.934    22688168.335
       225.000         173.000
  23419504.093    -6146388.89449  -4399555.40045  23419503.515    23419512.242
       212.000         153.000
  23434686.191    -5420973.11149  -4206457.06045  23434686.624    23434695.117
       211.000         153.000
  21066422.705   -24441167.10949 -19027628.56447  21066422.349    21066429.824
       240.000         203.000
  24186099.743    -6023520.04149  -4671225.21145  24186101.221    24186109.978
       209.000         141.000
  21062170.059   -17691957.84649 -13764708.20547  21062169.793    21062176.669
       241.000         207.000
  20426137.662   -26198632.42749 -20382875.27147  20426137.010    20426144.194
       243.000         212.000
  20416430.953   -24338054.84149 -18932908.32548  20416430.629    20416436.153
       240.000         214.000
  23842344.188    -8547958.01949  -6647373.96545  23842344.169    23842356.756
       212.000         147.000
 03  3 23  0 17 30.0000000  0  9G 3G14G26G17G16G23G15G18G 6
  22674586.208   -16824384.65949 -13076568.97946  22674586.860    22674594.547
       227.000         174.000
  23398653.889    -6255955.90849  -4484932.13745  23398653.130    23398663.348
       214.000         153.000
  23452622.918    -5326714.71549  -4133009.01945  23452623.387    23452631.322
       212.000         151.000
  21071529.662   -24414330.00449 -19006716.55447  21071529.254    21071536.837
       239.000         203.000
  24197869.378    -5961671.44649  -4623031.64145  24197868.794    24197881.524
       205.000         141.000
  21069500.024   -17653438.72949 -13734693.30547  21069499.959    21069506.800
       242.000         208.000
  20421913.602   -26220829.79249 -20400171.89747  20421913.264    20421920.008
       244.000         212.000
  20418597.684   -24326668.23449 -18924035.63548  20418597.409    20418602.899
       239.000         214.000
  23863145.790    -8438645.83249  -6562195.81645  23863145.748    23863157.395
       211.000         146.000
 03  3 23  0 18  0.0000000  0  9G 3G14G26G17G16G23G15G18G 6
  22661088.186   -16895318.14949 -13131841.77946  22661088.255    22661095.233
       226.000         175.000
  23377830.878    -6365380.86049  -4570198.19445  23377831.224    23377839.973
       215.000         154.000
  23470628.891    -5232093.24149  -4059278.03445  23470629.431    23470637.174
       214.000         152.000
  21076687.589   -24387224.89649 -18985595.70847  21076687.213    21076694.972
       240.000         203.000
  24209682.368    -5899592.66049  -4574658.70045  24209681.846    24209693.935
       205.000         141.000
  21076871.760   -17614700.15349 -13704507.40047  21076871.735    21076878.602
       242.000         208.000
  20417739.439   -26242765.49849 -20417264.62947  20417739.133    20417745.881
       244.000         212.000
  20420828.290   -24314946.33849 -18914901.68348  20420828.045    20420833.598
       240.000         214.000
  23883970.330    -8329212.23849  -6476923.06145  23883970.142    23883982.311
       210.000         146.000
 03  3 23  0 18 30.0000000  0  9G 3G14G26G17G16G23G15G18G 6
  22647666.454   -16965849.69849 -13186801.36946  22647666.067    22647674.292
       226.000         176.000
  23357035.622    -6474660.68849  -4655351.16145  23357034.921    23357044.669
       216.000         155.000
  23488703.581    -5137111.16249  -3985266.07445  23488704.578    23488712.630
       215.000         153.000
  21081896.748   -24359850.66749 -18964265.16047  21081896.437    21081903.968
       240.000         203.000
  24221538.763    -5837286.36349  -4526108.47345  24221539.207    24221552.107
       207.000         142.000
  21084285.018   -17575743.29649 -13674151.40547  21084284.494    21084291.656
       241.000         208.000
  20413615.320   -26264438.02049 -20434152.28547  20413614.619    20413621.371
       243.000         212.000
  20423122.498   -24302890.03549 -18905507.15148  20423122.387    20423127.538
       240.000         214.000
  23904817.450    -8219659.32549  -6391557.33645  23904817.319    23904829.230
       212.000         146.000
 03  3 23  0 19  0.0000000  0  9G 3G14G26G17G16G23G15G18G 6
  22634321.303   -17035978.40349 -13241447.05546  22634320.416    22634329.293
       226.000         176.000
  23336268.401    -6583793.60249  -4740389.64945  23336268.507    23336277.066
       216.000         156.000
  23506846.100    -5041772.77349  -3910976.45345  23506846.699    23506855.241
       215.000         155.000
  21087156.970   -24332208.34249 -18942725.70747  21087156.685    21087164.343
       240.000         203.000
  24233438.155    -5774756.48249  -4477384.04145  24233439.139    24233450.042
       209.000         143.000
  21091739.223   -17536570.96849 -13643627.51747  21091739.013    21091746.030
       242.000         208.000
  20409541.229   -26285847.36049 -20450834.87147  20409540.589    20409547.489
       243.000         212.000
  20425479.930   -24290501.71849 -18895853.90548  20425479.595    20425484.986
       241.000         214.000
  23925686.674    -8109990.69449  -6306101.42845  23925687.821    23925699.342
       209.000         145.000
 03  3 23  0 19 30.0000000  0  9G 3G14G26G17G16G23G15G18G 6
  22621053.467   -17105701.05349 -13295776.34246  22621052.921    22621061.801
       226.000         177.000
  23315529.829    -6692776.02049  -4825310.86345  23315529.135    23315537.333
       217.000         156.000
  23525055.929    -4946080.23349  -3836410.86345  23525055.763    23525064.421
       215.000         156.000
  21092468.680   -24304295.50549 -18920975.46547  21092468.138    21092475.810
       239.000         203.000
  24245379.736    -5712004.96049  -4428486.88845  24245380.352    24245391.716
       210.000         143.000
  21099234.421   -17497183.70149 -13612936.14747  21099234.244    21099240.977
       242.000         208.000
  20405517.612   -26306991.31149 -20467310.66347  20405516.985    20405523.932
       243.000         212.000
  20427900.443   -24277781.72449 -18885942.21748  20427900.089    20427905.759
       240.000         214.000
  23946577.777    -8000207.65749  -6220556.40045  23946579.038    23946590.792
       210.000         147.000
 03  3 23  0 20  0.0000000  0  9G 3G14G26G17G16G23G15G18G 6
  22607863.329   -17175015.39349 -13349787.44946  22607863.612    22607871.304
       227.000         178.000
  23294820.286    -6801605.34849  -4910112.78545  23294819.232    23294828.245
       215.000         157.000
  23543332.560    -4850036.18749  -3761571.37745  23543331.321    23543341.356
       212.000         155.000
  21097831.806   -24276111.73849 -18899014.10847  21097831.305    21097838.976
       238.000         202.000
  24257362.782    -5649034.56649  -4379419.18545  24257361.708    24257374.009
       204.000         142.000
  21106770.151   -17457583.21749 -13582078.62447  21106769.947    21106776.652
       242.000         207.000
  20401544.727   -26327868.75049 -20483578.78047  20401544.135    20401551.035
       244.000         212.000
  20430383.909   -24264731.05349 -18875772.85448  20430383.510    20430389.113
       240.000         214.000
  23967490.406    -7890312.56749  -6134924.03645  23967490.162    23967503.774
       209.000         146.000
 03  3 23  0 20 30.0000000  0  9G 3G14G26G17G16G23G15G18G 6
  22594751.454   -17243918.78349 -13403478.34146  22594751.439    22594759.343
       228.000         178.000
  23274140.361    -6910278.24149  -4994792.81845  23274139.578    23274148.809
       214.000         157.000
  23561675.312    -4753643.58949  -3686460.29245  23561675.801    23561684.107
       213.000         153.000
  21103246.736   -24247655.95049 -18876840.78847  21103245.947    21103254.086
       239.000         202.000
  24269386.624    -5585847.98649  -4330183.02945  24269386.323    24269398.520
       205.000         141.000
  21114346.249   -17417770.68749 -13551055.87547  21114346.032    21114352.683
       241.000         207.000
  20397622.846   -26348478.20149 -20499638.07847  20397622.460    20397629.362
       243.000         212.000
  20432930.051   -24251350.75049 -18865346.63648  20432929.887    20432935.124
       240.000         214.000
  23988423.924    -7780307.55749  -6049206.02545  23988424.639    23988437.075
       210.000         146.000
 03  3 23  0 21  0.0000000  0  9G 3G14G26G17G16G23G15G18G 6
  22581718.234   -17312409.09149 -13456847.36146  22581718.202    22581725.813
       228.000         178.000
  23253490.455    -7018792.12149  -5079348.94645  23253488.915    23253499.290
       214.000         157.000
  23580083.865    -4656905.51749  -3611080.00045  23580084.527    23580092.190
       210.000         152.000
  21108713.472   -24218927.99249 -18854455.39447  21108713.292    21108720.810
       239.000         202.000
  24281451.267    -5522448.43649  -4280780.90645  24281451.351    24281463.773
       208.000         141.000
  21121962.339   -17377747.95649 -13519869.33847  21121962.080    21121969.091
       242.000         208.000
  20393752.176   -26368818.84949 -20515487.92747  20393751.749    20393758.659
       243.000         212.000
  20435538.696   -24237642.37849 -18854664.78548  20435538.561    20435543.683
       240.000         214.000
  24009377.760    -7670195.25149  -5963404.41845  24009377.734    24009390.099
       208.000         146.000
 03  3 23  0 21 30.0000000  0  9G 3G14G26G17G16G23G15G18G 6
  22568764.012   -17380484.53949 -13509893.10746  22568763.720    22568771.536
       228.000         179.000
  23232871.353    -7127144.43349  -5163779.19245  23232870.688    23232879.731
       214.000         158.000
  23598557.507    -4559825.28149  -3535433.09545  23598557.589    23598566.170
       212.000         151.000
  21114232.223   -24189926.88049 -18831857.14647  21114232.021    21114239.180
       240.000         202.000
  24293556.057    -5458839.34849  -4231215.53245  24293557.720    24293568.621
       208.000         143.000
  21129618.067   -17337516.73349 -13488520.33547  21129617.520    21129624.652
       243.000         207.000
  20389932.757   -26388889.76449 -20531127.57447  20389931.884    20389939.000
       244.000         212.000
  20438209.442   -24223607.27249 -18843728.32948  20438209.022    20438214.568
       240.000         214.000
  24030351.535    -7559978.17849  -5877521.17245  24030351.664    24030363.604
       209.000         146.000
 03  3 23  0 22  0.0000000  0  9G 3G14G26G17G16G23G15G18G 6
  22555889.200   -17448142.26449 -13562613.36346  22555888.563    22555896.156
       228.000         179.000
  23212283.789    -7235332.38949  -5248081.35845  23212283.251    23212292.537
       218.000         158.000
  23617095.739    -4462405.61049  -3459521.70645  23617096.364    23617105.164
       210.000         151.000
  21119803.250   -24160651.50449 -18809045.19347  21119803.304    21119810.373
       240.000         202.000
  24305700.184    -5395023.09849  -4181488.75345  24305701.413    24305711.154
       210.000         145.000
  21137313.178   -17297078.41849 -13457009.97747  21137312.803    21137319.781
       241.000         207.000
  20386164.953   -26408689.54949 -20546555.97447  20386164.482    20386171.568
       243.000         212.000
  20440942.183   -24209246.49149 -18832538.10648  20440942.110    20440947.394
       241.000         214.000
  24051344.846    -7449658.38049  -5791557.86945  24051344.900    24051357.381
       210.000         145.000
 03  3 23  0 22 30.0000000  0  9G 3G14G26G17G16G23G15G18G 6
  22543093.962   -17515381.12249 -13615007.23146  22543093.571    22543101.798
       228.000         179.000
  23191728.046    -7343353.99749  -5332253.90145  23191728.251    23191736.494
       217.000         159.000
  23635697.886    -4364650.41749  -3383348.84745  23635697.767    23635707.165
       210.000         150.000
  21125426.388   -24131102.37849 -18786019.92547  21125426.332    21125433.373
       240.000         202.000
  24317882.915    -5331003.65149  -4131603.63145  24317883.300    24317894.752
       211.000         144.000
  21145047.220   -17256435.56449 -13425340.22147  21145046.879    21145053.762
       242.000         207.000
  20382448.787   -26428217.87249 -20561772.84247  20382448.135    20382455.499
       242.000         212.000
  20443736.550   -24194562.20249 -18821095.79648  20443736.146    20443741.934
       240.000         214.000
  24072357.002    -7339239.32449  -5705517.22545  24072357.624    24072367.369
       207.000         143.000
 03  3 23  0 23  0.0000000  0  9G 3G14G26G17G16G23G15G18G 6
  22530379.014   -17582198.25649 -13667072.46346  22530379.073    22530386.801
       227.000         180.000
  23171204.502    -7451205.66049  -5416294.02045  23171204.219    23171213.433
       219.000         160.000
  23654363.539    -4266561.89449  -3306916.26245  23654364.314    23654373.036
       209.000         149.000
  21131101.878   -24101278.07549 -18762780.22947  21131101.553    21131109.052
       240.000         202.000
  24330103.795    -5266783.03449  -4081561.74745  24330104.009    24330115.600
       208.000         144.000
  21152820.105   -17215588.91549 -13393511.67047  21152819.568    21152826.573
       241.000         207.000
  20378784.675   -26447472.69149 -20576776.59047  20378784.251    20378791.454
       242.000         212.000
  20446592.343   -24179554.82449 -18809401.72648  20446592.269    20446597.636
       241.000         214.000
  24093387.845    -7228722.43549  -5619400.34345  24093388.214    24093399.695
       207.000         142.000
 03  3 23  0 23 30.0000000  0  9G 3G14G26G17G16G23G15G18G 6
  22517744.761   -17648591.75649 -13718807.61546  22517744.560    22517752.802
       227.000         181.000
  23150713.637    -7558884.86449  -5500199.75845  23150713.075    23150722.571
       216.000         160.000
  23673092.100    -4168143.43249  -3230226.57545  23673092.319    23673101.011
       210.000         149.000
  21136829.729   -24071177.92849 -18739325.59547  21136829.178    21136836.868
       239.000         202.000
  24342362.255    -5202364.59549  -4031365.72045  24342362.073    24342373.149
       207.000         143.000
  21160631.328   -17174540.40749 -13361525.83047  21160631.230    21160637.901
       242.000         207.000
  20375172.737   -26466453.49549 -20591566.82547  20375172.322    20375179.565
       243.000         212.000
  20449509.342   -24164226.13949 -18797457.28648  20449509.099    20449514.563
       241.000         214.000
  24114436.735    -7118110.58749  -5533209.47645  24114436.973    24114448.116
       208.000         140.000
 03  3 23  0 24  0.0000000  0  9G 3G14G26G17G16G23G15G18G 6
  22505191.378   -17714559.65149 -13770211.11946  22505191.140    22505199.062
       226.000         181.000
  23130256.065    -7666389.26249  -5583969.29245  23130254.728    23130263.875
       217.000         159.000
  23691882.800    -4069398.41949  -3153282.43145  23691883.490    23691891.853
       209.000         148.000
  21142610.064   -24040801.84649 -18715655.94747  21142609.596    21142617.259
       239.000         202.000
  24354657.773    -5137751.74049  -3981018.18445  24354658.361    24354668.652
       210.000         144.000
  21168480.690   -17133291.91749 -13329384.15947  21168480.546    21168487.228
       241.000         207.000
  20371613.102   -26485159.48749 -20606142.91247  20371612.556    20371619.638
       243.000         212.000
  20452487.109   -24148577.69449 -18785263.68848  20452486.818    20452492.278
       241.000         214.000
  24135503.244    -7007406.42049  -5446946.66545  24135503.089    24135515.781
       206.000         139.000
 03  3 23  0 24 30.0000000  0  9G 3G14G26G17G16G23G15G18G 6
  22492719.355   -17780099.97449 -13821281.44546  22492719.145    22492727.429
       228.000         180.000
  23109832.116    -7773716.26549  -5667600.58945  23109831.427    23109840.476
       216.000         159.000
  23710735.001    -3970330.07149  -3076086.34445  23710735.369    23710744.137
       210.000         148.000
  21148443.021   -24010149.17349 -18691770.76447  21148442.418    21148450.618
       238.000         201.000
  24366989.872    -5072947.53349  -3930521.55645  24366989.994    24367002.146
       210.000         144.000
  21176367.724   -17091845.25649 -13297088.07047  21176367.486    21176374.321
       241.000         207.000
  20368105.940   -26503589.65649 -20620504.07647  20368105.344    20368112.416
       242.000         212.000
  20455525.503   -24132610.94849 -18772822.06348  20455525.215    20455530.799
       241.000         214.000
  24156586.687    -6896612.49249  -5360613.91845  24156586.443    24156598.230
       204.000         137.000
 03  3 23  0 25  0.0000000  0  9G 3G14G26G17G16G23G15G18G 6
  22480329.190   -17845210.71749 -13872017.04946  22480329.172    22480337.049
       228.000         181.000
  23089442.555    -7880863.24149  -5751091.60945  23089441.252    23089451.188
       216.000         159.000
  23729648.020    -3870941.57349  -2998640.78645  23729648.076    23729656.390
       209.000         148.000
  21154328.609   -23979219.90149 -18667670.05147  21154328.153    21154336.126
       238.000         201.000
  24379357.805    -5007955.10649  -3879878.27045  24379358.501    24379368.804
       209.000         144.000
  21184292.160   -17050202.21849 -13264638.96247  21184291.960    21184298.694
       242.000         207.000
  20364651.443   -26521742.93949 -20634649.48147  20364650.896    20364658.051
       242.000         212.000
  20458624.162   -24116327.28749 -18760133.48548  20458623.899    20458629.248
       242.000         214.000
  24177686.629    -6785731.47049  -5274213.28545  24177686.196    24177699.150
       201.000         136.000
 03  3 23  0 25 30.0000000  0  9G 3G14G26G17G16G23G15G18G 6
  22468021.293   -17909889.16749 -13922415.79146  22468021.432    22468028.952
       228.000         181.000
  23069088.022    -7987826.81749  -5834439.70345  23069087.233    23069096.056
       218.000         159.000
  23748621.453    -3771235.12649  -2920947.49145  23748620.982    23748630.369
       210.000         148.000
  21160267.154   -23948012.26049 -18643352.42547  21160266.382    21160274.643
       237.000         200.000
  24391760.941    -4942776.66549  -3829090.03945  24391760.196    24391772.212
       207.000         144.000
  21192253.778   -17008363.62149 -13232037.46647  21192253.398    21192260.067
       241.000         207.000
  20361249.993   -26539617.50649 -20648577.70747  20361249.570    20361256.331
       242.000         211.000
  20461782.999   -24099727.40249 -18747198.50148  20461782.513    20461788.168
       241.000         214.000
  24198802.733    -6674764.89649  -5187746.01245  24198803.067    24198814.967
       202.000         134.000
 03  3 23  0 26  0.0000000  0  9G 3G14G26G17G16G23G15G18G 6
  22455796.085   -17974132.96149 -13972475.83846  22455795.566    22455803.759
       227.000         181.000
  23048768.888    -8094603.99249  -5917642.55345  23048768.769    23048777.386
       217.000         160.000
  23767654.823    -3671213.79449  -2843008.79845  23767655.764    23767663.787
       212.000         148.000
  21166258.978   -23916524.88249 -18618816.82747  21166258.994    21166266.574
       238.000         200.000
  24404198.811    -4877415.08949  -3778159.10545  24404198.915    24404210.074
       208.000         144.000
  21200252.347   -16966330.61249 -13199284.48347  21200252.011    21200258.985
       241.000         207.000
  20357901.889   -26557212.03249 -20662287.71747  20357901.278    20357908.495
       242.000         211.000
  20465001.812   -24082812.31549 -18734017.90548  20465001.654    20465007.065
       241.000         214.000
  24219934.777    -6563715.03049  -5101213.80545  24219934.238    24219946.632
       200.000         133.000
 03  3 23  0 26 30.0000000  0  9G 3G14G26G17G16G23G15G18G 6
  22443654.042   -18037939.39749 -14022195.10046  22443653.792    22443661.569
       228.000         181.000
  23028485.736    -8201191.65949  -6000697.74245  23028485.711    23028493.863
       219.000         160.000
  23786747.804    -3570880.09649  -2764826.69145  23786748.737    23786757.414
       214.000         150.000
  21172304.245   -23884756.99749 -18594062.64847  21172304.159    21172311.498
       237.000         200.000
  24416671.157    -4811872.96549  -3727087.48445  24416671.330    24416682.644
       207.000         144.000
  21208287.758   -16924104.56749 -13166381.08047  21208287.648    21208294.215
       242.000         207.000
  20354607.319   -26574524.92449 -20675778.26947  20354606.829    20354613.801
       242.000         211.000
  20468280.462   -24065583.07049 -18720592.51048  20468280.155    20468285.768
       242.000         214.000
  24241082.219    -6452584.03849  -5014618.39045  24241081.808    24241095.814
       200.000         133.000
 03  3 23  0 27  0.0000000  0  9G 3G14G26G17G16G23G15G18G 6
  22431595.496   -18101306.72249 -14071572.18546  22431595.240    22431602.789
       228.000         181.000
  23008239.121    -8307587.06149  -6083603.10445  23008238.478    23008248.149
       217.000         160.000
  23805899.691    -3470237.26749  -2686403.71745  23805899.928    23805909.198
       215.000         151.000
  21178402.930   -23852708.36349 -18569089.71547  21178403.077    21178409.817
       238.000         199.000
  24429177.172    -4746153.52349  -3675877.70745  24429178.042    24429189.343
       207.000         143.000
  21216359.547   -16881687.16149 -13133328.55947  21216359.320    21216366.099
       242.000         207.000
  20351366.560   -26591555.01849 -20689048.46347  20351366.042    20351373.057
       243.000         211.000
  20471618.604   -24048040.87249 -18706923.26048  20471618.463    20471623.642
       241.000         214.000
  24262244.772    -6341374.23549  -4927961.56744  24262244.907    24262257.553
       202.000         131.000
 03  3 23  0 27 30.0000000  0  9G 3G14G26G17G16G23G15G18G 6
  22419620.914   -18164233.72249 -14120606.17446  22419620.660    22419628.964
       228.000         182.000
  22988029.404    -8413788.58749  -6166357.39045  22988028.539    22988038.399
       219.000         161.000
  23825109.527    -3369289.38249  -2607743.04245  23825109.910    23825118.451
       211.000         150.000
  21184555.045   -23820379.14449 -18543898.13547  21184554.668    21184562.418
       238.000         199.000
  24441716.389    -4680260.68549  -3624532.79645  24441716.802    24441727.852
       207.000         142.000
  21224467.285   -16839080.92649 -13100128.90147  21224466.697    21224473.923
       241.000         207.000
  20348179.640   -26608302.44949 -20702098.39647  20348179.279    20348186.192
       243.000         212.000
  20475015.875   -24030188.08449 -18693011.99048  20475015.622    20475021.122
       241.000         214.000
  24283421.729    -6230089.15049  -4841246.07445  24283423.506    24283434.812
       202.000         132.000
 03  3 23  0 28  0.0000000  0  9G 3G14G26G17G16G23G15G18G 6
  22407730.596   -18226717.66849 -14169294.90846  22407730.591    22407738.007
       229.000         182.000
  22967857.341    -8519793.17749  -6248958.21445  22967856.973    22967866.393
       220.000         161.000
  23844376.756    -3268038.84249  -2528846.53845  23844376.881    23844385.821
       209.000         149.000
  21190760.702   -23787768.29849 -18518487.10847  21190760.432    21190768.357
       238.000         199.000
  24454288.119    -4614196.66749  -3573054.51245  24454287.969    24454300.003
       205.000         143.000
  21232610.671   -16796287.06349 -13066783.04047  21232610.290    21232617.309
       241.000         206.000
  20345046.840   -26624765.58349 -20714926.80047  20345046.507    20345053.428
       243.000         212.000
  20478472.106   -24012025.51749 -18678859.33048  20478471.929    20478477.484
       242.000         214.000
  24304612.797    -6118730.72549  -4754473.44445  24304613.436    24304627.337
       204.000         134.000
 03  3 23  0 28 30.0000000  0  9G 3G14G26G17G16G23G15G18G 6
  22395924.960   -18288756.79449 -14217637.03146  22395924.944    22395932.707
       230.000         183.000
  22947723.319    -8625597.96149  -6331403.35145  22947723.362    22947731.249
       219.000         162.000
  23863701.058    -3166488.80149  -2449716.64145  23863701.203    23863709.318
       208.000         146.000
  21197020.080   -23754875.24149 -18492856.17647  21197019.589    21197027.586
       237.000         199.000
  24466891.616    -4547964.79649  -3521445.41345  24466891.513    24466903.753
       206.000         143.000
  21240789.435   -16753307.10249 -13033292.16647  21240789.078    21240795.928
       241.000         206.000
  20341968.336   -26640943.28249 -20727532.79147  20341967.999    20341974.843
       244.000         212.000
  20481986.958   -23993554.88149 -18664466.61448  20481986.516    20481992.071
       241.000         215.000
  24325817.422    -6007301.48049  -4667645.62545  24325818.986    24325831.095
       205.000         134.000
 03  3 23  0 29  0.0000000  0 10G 3G14G26G 9G17G16G23G15G18G 6
  22384204.454   -18350348.55349 -14265630.55446  22384204.378    22384211.833
       231.000         183.000
  22927627.894    -8731199.89049  -6413690.42946  22927627.734    22927635.810
       220.000         163.000
  23883081.645    -3064642.02849  -2370355.53945  23883081.227    23883091.408
       208.000         144.000
  24429646.764    -1507794.54849  -1163608.25745  24429646.887    24429657.347
       209.000         135.000
  21203333.308   -23721698.93649 -18467004.53347  21203332.948    21203340.464
       238.000         199.000
  24479526.687    -4481567.47949  -3469707.42145  24479527.376    24479539.748
       207.000         144.000
  21249003.428   -16710142.22249 -12999657.19847  21249003.151    21249009.876
       241.000         205.000
  20338944.487   -26656833.87549 -20739915.05948  20338943.902    20338951.007
       243.000         213.000
  20485560.307   -23974776.74649 -18649834.30048  20485560.012    20485565.359
       241.000         214.000
  24347035.135    -5895803.28849  -4580764.06945  24347036.317    24347047.122
       205.000         134.000
 03  3 23  0 29 30.0000000  0 10G 3G14G26G 9G17G16G23G15G18G 6
  22372569.377   -18411491.43849 -14313274.30446  22372569.522    22372576.349
       230.000         183.000
  22907571.491    -8836596.51449  -6495817.53146  22907571.348    22907578.791
       221.000         163.000
  23902518.252    -2962501.71249  -2290765.70445  23902518.960    23902527.415
       210.000         143.000
  24417556.510    -1571329.37549  -1213115.79145  24417556.857    24417565.971
       209.000         137.000
  21209700.559   -23688238.85749 -18440931.76947  21209700.360    21209708.155
       237.000         199.000
  24492192.862    -4415008.06649  -3417843.12245  24492192.858    24492204.314
       208.000         143.000
  21257252.276   -16666794.13649 -12965879.46547  21257251.971    21257258.673
       241.000         205.000
  20335975.361   -26672436.81549 -20752073.17848  20335974.967    20335981.606
       243.000         213.000
  20489191.828   -23955692.85549 -18634963.73248  20489191.758    20489197.124
       242.000         215.000
  24368265.311    -5784238.92349  -4493830.94445  24368265.761    24368278.552
       205.000         135.000
 03  3 23  0 30  0.0000000  0 10G 3G14G26G 9G17G16G23G15G18G 6
  22361019.989   -18472183.56349 -14360566.81446  22361019.149    22361027.779
       230.000         183.000
  22887554.582    -8941785.53549  -6577782.85146  22887553.666    22887563.296
       221.000         164.000
  23922010.104    -2860071.43949  -2210949.91645  23922010.147    23922019.468
       211.000         142.000
  24405514.542    -1634610.62649  -1262425.74845  24405514.404    24405525.660
       209.000         137.000
  21216121.875   -23654494.68449 -18414637.62947  21216121.795    21216129.336
       237.000         199.000
  24504888.951    -4348290.19749  -3365855.33245  24504889.068    24504900.659
       203.000         141.000
  21265535.657   -16623264.89249 -12931960.56947  21265535.356    21265541.962
       241.000         206.000
  20333061.095   -26687751.47149 -20764006.65547  20333060.565    20333067.346
       243.000         212.000
  20492881.292   -23936305.03749 -18619856.32948  20492881.034    20492886.491
       242.000         215.000
  24389507.443    -5672611.23949  -4406848.51045  24389507.945    24389519.948
       204.000         136.000
 03  3 23  0 30 30.0000000  0 10G 3G14G26G 9G17G16G23G15G18G 6
  22349556.814   -18532422.29649 -14407506.01546  22349556.494    22349564.666
       230.000         184.000
  22867577.878    -9046763.44549  -6659583.67246  22867576.396    22867586.480
       221.000         165.000
  23941556.693    -2757353.66149  -2130910.13245  23941557.245    23941565.975
       208.000         143.000
  24393521.377    -1697634.45249  -1311535.12845  24393520.997    24393531.807
       208.000         138.000
  21222597.487   -23620465.31949 -18388121.26047  21222596.832    21222605.215
       236.000         199.000
  24517614.760    -4281416.02049  -3313745.74545  24517615.528    24517626.937
       207.000         142.000
  21273853.272   -16579555.54449 -12897901.33647  21273853.068    21273859.961
       241.000         206.000
  20330201.995   -26702775.86849 -20775713.95948  20330201.295    20330208.468
       243.000         213.000
  20496628.428   -23916613.70349 -18604512.42548  20496628.110    20496633.447
       242.000         215.000
  24410761.225    -5560921.96449  -4319818.04845  24410762.900    24410774.824
       206.000         137.000
 03  3 23  0 31  0.0000000  0 10G 3G14G26G 9G17G16G23G15G18G 6
  22338180.385   -18592206.06749 -14454090.71746  22338179.850    22338187.480
       231.000         184.000
  22847641.800    -9151527.97649  -6741218.23346  22847641.307    22847650.756
       223.000         165.000
  23961157.327    -2654351.71249  -2050648.89145  23961158.005    23961166.200
       210.000         143.000
  24381577.760    -1760397.95349  -1360441.64645  24381577.865    24381587.991
       212.000         140.000
  21229127.304   -23586150.74549 -18361382.65147  21229126.881    21229134.828
       236.000         198.000
  24530369.700    -4214388.98349  -3261517.06045  24530370.168    24530381.692
       206.000         142.000
  21282204.830   -16535667.83149 -12863703.12147  21282204.327    21282211.435
       241.000         205.000
  20327398.327   -26717509.13749 -20787194.41648  20327397.875    20327405.042
       243.000         213.000
  20500432.985   -23896620.56649 -18588933.34948  20500432.716    20500438.090
       242.000         215.000
  24432026.349    -5449173.77049  -4232741.68245  24432026.940    24432039.188
       208.000         137.000
 03  3 23  0 31 30.0000000  0 10G 3G14G26G 9G17G16G23G15G18G 6
  22326890.900   -18651532.83849 -14500319.32946  22326890.895    22326897.571
       230.000         184.000
  22827746.837    -9256076.58449  -6822684.53646  22827746.780    22827755.364
       222.000         165.000
  23980811.433    -2551068.81449  -1970168.74345  23980811.530    23980820.175
       208.000         144.000
  24369684.442    -1822898.15949  -1409142.98845  24369684.229    24369694.456
       212.000         142.000
  21235711.500   -23551550.16949 -18334421.18547  21235711.133    21235719.069
       236.000         198.000
  24543153.189    -4147212.19249  -3209171.68045  24543154.068    24543165.206
       207.000         142.000
  21290589.960   -16491603.36749 -12829367.17747  21290589.671    21290596.290
       241.000         205.000
  20324650.315   -26731950.26149 -20798447.22748  20324650.008    20324656.884
       244.000         213.000
  20504294.642   -23876327.28349 -18573120.39748  20504294.462    20504299.667
       243.000         215.000
  24453302.102    -5337369.24849  -4145621.45545  24453302.521    24453315.388
       206.000         137.000
 03  3 23  0 32  0.0000000  0 10G 3G14G26G 9G17G16G23G15G18G 6
  22315688.703   -18710400.40849 -14546190.10546  22315688.580    22315695.425
       230.000         183.000
  22807893.369    -9360406.25449  -6903980.24146  22807893.294    22807901.725
       223.000         166.000
  24000518.430    -2447507.60549  -1889471.71445  24000518.447    24000527.416
       208.000         145.000
  24357841.776    -1885131.68849  -1457636.55145  24357840.778    24357853.040
       209.000         142.000
  21242350.333   -23516662.65549 -18307236.13247  21242350.277    21242357.405
       237.000         197.000
  24555964.652    -4079888.31149  -3156711.66945  24555964.799    24555976.601
       203.000         140.000
  21299008.572   -16447363.41249 -12794894.48547  21299008.443    21299015.196
       240.000         205.000
  20321958.077   -26746097.95349 -20809471.39048  20321957.542    20321964.480
       244.000         213.000
  20508213.270   -23855734.92349 -18557074.39648  20508212.990    20508218.095
       242.000         215.000
  24474588.196    -5225510.42549  -4058458.90945  24474588.415    24474601.128
       206.000         138.000
 03  3 23  0 32 30.0000000  0 11G 3G31G14G26G 9G17G16G23G15G18G 6
  22304574.586   -18768805.13749 -14591700.22246  22304573.955    22304582.069
       229.000         184.000
  24403813.781    -3252880.92349  -2180532.57145  24403813.561    24403822.466
       204.000         135.000
  22788082.494    -9464512.55149  -6985101.88846  22788081.959    22788090.279
       224.000         167.000
  24020278.225    -2343669.25849  -1808558.74145  24020278.967    24020286.816
       210.000         147.000
  24346050.723    -1947093.28549  -1505918.23745  24346049.581    24346060.681
       211.000         142.000
  21249044.310   -23481485.93849 -18279825.72147  21249044.043    21249051.233
       236.000         197.000
  24568803.751    -4012418.33349  -3104137.82945  24568803.801    24568815.809
       205.000         140.000
  21307460.655   -16402947.54649 -12760284.71547  21307460.732    21307467.213
       241.000         205.000
  20319322.307   -26759949.05749 -20820264.44748  20319321.916    20319328.383
       244.000         213.000
  20512188.879   -23834842.63649 -18540794.68348  20512188.657    20512194.087
       242.000         215.000
  24495884.580    -5113597.94149  -3971254.51445  24495884.652    24495897.404
       204.000         138.000
 03  3 23  0 33  0.0000000  0 11G 3G31G14G26G 9G17G16G23G15G18G 6
  22293548.832   -18826745.57449 -14636848.56346  22293548.547    22293556.409
       231.000         185.000
  24385946.948    -3346770.58849  -2253693.24745  24385945.301    24385956.061
       202.000         135.000
  22768314.695    -9568393.14249  -7066047.66546  22768314.364    22768321.908
       224.000         167.000
  24040090.043    -2239557.54749  -1727432.74945  24040090.212    24040099.505
       208.000         147.000
  24334311.895    -2008780.62849  -1553986.20045  24334311.717    24334322.743
       213.000         144.000
  21255793.303   -23446019.79649 -18252189.78447  21255792.971    21255800.593
       237.000         197.000
  24581670.118    -3944806.05649  -3051453.10745  24581670.504    24581682.836
       208.000         142.000
  21315945.815   -16358357.91349 -12725539.54647  21315945.458    21315952.421
       240.000         205.000
  20316743.125   -26773502.84749 -20830825.82748  20316742.682    20316749.372
       244.000         213.000
  20516221.172   -23813652.55449 -18524282.92848  20516220.776    20516226.288
       242.000         214.000
  24517190.607    -5001634.77449  -3884010.66545  24517191.382    24517204.331
       204.000         138.000
 03  3 23  0 33 30.0000000  0 11G 3G31G14G26G 9G17G16G23G15G18G 6
  22282611.222   -18884222.90249 -14681636.02946  22282610.740    22282618.402
       231.000         185.000
  24368131.711    -3440389.01449  -2326642.54945  24368130.914    24368139.880
       202.000         134.000
  22748589.647    -9672048.65649  -7146818.05446  22748589.519    22748596.976
       224.000         168.000
  24059952.803    -2135178.85849  -1646098.71945  24059952.452    24059961.817
       206.000         146.000
  24322625.378    -2070193.81149  -1601840.50045  24322624.937    24322635.911
       214.000         146.000
  21262596.885   -23410266.75449 -18224330.28647  21262596.461    21262604.779
       236.000         197.000
  24594562.398    -3877057.65249  -2998662.30945  24594562.449    24594574.123
       209.000         143.000
  21324463.049   -16313599.38149 -12690662.77447  21324462.562    21324469.797
       240.000         205.000
  20314220.046   -26786761.64549 -20841157.33848  20314219.598    20314226.319
       244.000         213.000
  20520309.233   -23792169.38049 -18507542.78548  20520309.106    20520314.264
       242.000         214.000
  24538505.230    -4889626.70149  -3796731.80045  24538505.786    24538518.583
       206.000         138.000
 03  3 23  0 34  0.0000000  0 10G 3G31G14G26G 9G17G16G23G15G18
  22271762.221   -18941234.24649 -14726060.39846  22271761.940    22271768.973
       229.000         185.000
  24350368.952    -3533732.52349  -2399377.64645  24350368.331    24350378.597
       202.000         133.000
  22728908.032    -9775475.54549  -7227410.29946  22728907.485    22728916.722
       225.000         169.000
  24079865.812    -2030535.04049  -1564558.10045  24079866.076    24079874.377
       201.000         142.000
  24310991.706    -2131328.66349  -1649477.94145  24310991.191    24311003.670
       210.000         148.000
  21269455.292   -23374225.55049 -18196246.24547  21269454.993    21269462.713
       237.000         198.000
  24607480.201    -3809175.36049  -2945767.18545  24607480.476    24607492.787
       209.000         142.000
  21333012.350   -16268672.44849 -12655654.77947  21333012.163    21333018.668
       240.000         204.000
  20311753.498   -26799723.41649 -20851257.40148  20311752.996    20311759.592
       244.000         213.000
  20524453.098   -23770393.36149 -18490574.44248  20524452.717    20524458.338
       241.000         214.000
 03  3 23  0 34 30.0000000  0 10G 3G31G14G26G 9G17G16G23G15G18
  22261002.400   -18997776.92649 -14770119.57146  22261002.119    22261009.711
       230.000         185.000
  24332659.190    -3626797.80649  -2471895.93145  24332658.901    24332668.572
       202.000         132.000
  22709270.725    -9878670.10149  -7307821.50246  22709269.640    22709278.470
       224.000         171.000
  24099828.784    -1925628.42849  -1482812.70045  24099829.105    24099839.165
       198.000         139.000
  24299411.649    -2192181.31749  -1696895.48845  24299411.887    24299422.380
       211.000         149.000
  21276368.806   -23337894.85149 -18167936.62747  21276368.537    21276376.193
       237.000         198.000
  24620422.884    -3741161.20349  -2892769.29845  24620422.276    24620435.605
       205.000         142.000
  21341593.573   -16223577.90049 -12620516.17747  21341593.302    21341600.161
       240.000         204.000
  20309343.834   -26812386.29749 -20861124.56548  20309343.324    20309350.126
       244.000         213.000
  20528652.573   -23748324.77149 -18473378.13048  20528652.420    20528657.599
       242.000         214.000
 03  3 23  0 35  0.0000000  0 10G 3G31G14G26G 9G17G16G23G15G18
  22250331.973   -19053849.82249 -14813812.68846  22250332.176    22250339.389
       230.000         185.000
  24315002.816    -3719582.66449  -2544195.72145  24315001.904    24315009.906
       203.000         134.000
  22689678.089    -9981630.39049  -7388050.15746  22689677.213    22689686.186
       226.000         171.000
  24119841.227    -1820462.58649  -1400865.30345  24119840.342    24119851.591
       199.000         136.000
  24287885.993    -2252749.41849  -1744091.27245  24287886.246    24287896.450
       212.000         149.000
  21283337.441   -23301274.54449 -18139401.34447  21283337.662    21283344.720
       237.000         198.000
  24633390.130    -3673018.71049  -2839671.41645  24633391.598    24633402.185
       205.000         140.000
  21350206.292   -16178317.75049 -12585248.53647  21350206.010    21350212.888
       240.000         204.000
  20306991.147   -26824749.57049 -20870758.27648  20306990.643    20306997.453
       244.000         213.000
  20532907.375   -23725965.81349 -18455955.55248  20532907.254    20532912.522
       242.000         214.000
 03  3 23  0 35 30.0000000  0 10G 3G31G14G26G 9G17G16G23G15G18
  22239751.485   -19109450.35249 -14857137.71746  22239751.420    22239759.618
       230.000         186.000
  24297400.124    -3812084.11049  -2616274.62745  24297398.511    24297408.446
       203.000         135.000
  22670130.594   -10084353.18149  -7468093.75246  22670131.135    22670138.197
       225.000         172.000
  24139902.238    -1715040.19349  -1318718.01345  24139901.194    24139913.345
       197.000         135.000
  24276415.024    -2313029.27249  -1791062.44645  24276414.658    24276425.867
       209.000         149.000
  21290361.486   -23264363.52349 -18110639.52147  21290361.439    21290368.797
       237.000         199.000
  24646381.492    -3604750.62849  -2786475.67745  24646381.515    24646393.809
       204.000         138.000
  21358850.332   -16132893.02249 -12549852.64347  21358850.046    21358856.847
       240.000         204.000
  20304695.729   -26836811.77849 -20880157.38448  20304695.312    20304702.155
       243.000         213.000
  20537217.216   -23703317.38449 -18438307.41648  20537216.951    20537222.157
       242.000         214.000
 03  3 23  0 36  0.0000000  0 10G 3G31G14G26G 9G17G16G23G15G18
  22229261.358   -19164576.42349 -14900093.04446  22229261.802    22229269.001
       231.000         187.000
  24279851.961    -3904299.29549  -2688130.49345  24279851.269    24279862.051
       206.000         137.000
  22650628.711   -10186835.61349  -7547950.03946  22650627.957    22650636.460
       224.000         172.000
  24160011.567    -1609363.94349  -1236372.90545  24160010.433    24160022.930
       196.000         134.000
  24264999.389    -2373017.27649  -1837806.21845  24264998.801    24265009.892
       210.000         148.000
  21297440.938   -23227161.02549 -18081650.58247  21297440.679    21297448.603
       237.000         199.000
  24659395.737    -3536359.41349  -2733183.98245  24659396.195    24659407.910
       206.000         136.000
  21367525.421   -16087304.89849 -12514329.43147  21367525.110    21367532.118
       240.000         204.000
  20302457.905   -26848571.59249 -20889320.85648  20302457.451    20302464.049
       243.000         213.000
  20541581.870   -23680380.56549 -18420434.56448  20541581.449    20541587.039
       242.000         214.000
 03  3 23  0 36 30.0000000  0 10G 3G31G14G26G 9G17G16G23G15G18
  22218861.824   -19219226.42049 -14942677.40346  22218861.162    22218869.400
       231.000         187.000
  24262358.952    -3996225.62549  -2759761.28445  24262358.769    24262367.669
       206.000         139.000
  22631172.895   -10289074.97149  -7627616.92846  22631171.936    22631179.705
       224.000         172.000
  24180168.628    -1503437.11149  -1153832.52945  24180168.777    24180176.936
       197.000         134.000
  24253640.115    -2432710.68049  -1884320.42945  24253639.994    24253650.811
       213.000         149.000
  21304575.892   -23189666.76849 -18052434.29547  21304575.289    21304583.101
       237.000         198.000
  24672432.777    -3467848.28849  -2679798.84845  24672432.400    24672445.471
       203.000         134.000
  21376231.366   -16041554.94749 -12478680.12247  21376231.203    21376237.927
       240.000         204.000
  20300277.847   -26860027.87849 -20898247.81748  20300277.300    20300284.050
       243.000         213.000
  20546001.273   -23657156.64649 -18402337.99348  20546001.229    20546006.320
       242.000         214.000
 03  3 23  0 37  0.0000000  0 10G 3G31G14G26G 9G17G16G23G15G18
  22208553.102   -19273398.32649 -14984889.23146  22208552.799    22208560.629
       230.000         187.000
  24244921.426    -4087860.42349  -2831164.90245  24244921.610    24244930.686
       207.000         141.000
  22611763.914   -10391068.60049  -7707092.34246  22611763.582    22611770.614
       225.000         171.000
  24200372.947    -1397262.46049  -1071099.04245  24200373.680    24200382.500
       197.000         134.000
  24242337.484    -2492106.26249  -1930602.56345  24242337.399    24242347.155
       212.000         149.000
  21311766.533   -23151879.75349 -18022989.88547  21311766.141    21311773.640
       237.000         197.000
  24685492.190    -3399220.35049  -2626322.73345  24685492.319    24685502.709
       204.000         134.000
  21384967.873   -15995644.57349 -12442905.80547  21384967.635    21384974.351
       240.000         204.000
  20298155.760   -26871179.31749 -20906937.24048  20298155.250    20298162.166
       243.000         213.000
  20550474.997   -23633646.94249 -18384018.73448  20550474.612    20550480.115
       242.000         214.000
 03  3 23  0 37 30.0000000  0  9G 3G31G14G26G 9G17G23G15G18
  22198335.685   -19327090.69549 -15026727.38846  22198335.602    22198343.560
       231.000         187.000
  24227539.638    -4179201.26449  -2902339.45545  24227539.074    24227548.710
       208.000         142.000
  22592402.180   -10492814.01949  -7786374.34046  22592401.336    22592409.538
       224.000         172.000
  24220623.862    -1290843.37249   -988175.10645  24220626.129    24220634.692
       196.000         132.000
  24231091.998    -2551201.10049  -1976650.36645  24231091.824    24231102.585
       211.000         150.000
  21319012.923   -23113799.49949 -17993316.97347  21319012.515    21319020.072
       237.000         197.000
  21393734.553   -15949575.39149 -12407007.74047  21393734.196    21393741.281
       240.000         204.000
  20296091.886   -26882024.93249 -20915388.35948  20296091.568    20296098.223
       243.000         213.000
  20555002.789   -23609853.03649 -18365478.02648  20555002.528    20555007.986
       242.000         214.000
 03  3 23  0 38  0.0000000  0  9G 3G31G14G26G 9G17G23G15G18
  22188209.893   -19380301.74149 -15068190.48846  22188210.052    22188217.409
       230.000         187.000
  24210214.356    -4270245.66949  -2973283.03545  24210213.768    24210223.176
       208.000         143.000
  22573088.352   -10594308.59549  -7865460.89446  22573087.627    22573095.922
       226.000         172.000
  24240920.750    -1184182.93349   -905063.10345  24240921.269    24240930.477
       196.000         132.000
  24219904.479    -2609992.37249  -2022461.63145  24219903.989    24219914.802
       211.000         151.000
  21326315.184   -23075426.10049 -17963415.64747  21326315.069    21326322.800
       237.000         197.000
  21402531.178   -15903349.08749 -12370987.24147  21402530.856    21402537.502
       240.000         203.000
  20294086.408   -26892563.74949 -20923600.41148  20294085.897    20294092.793
       243.000         213.000
  20559584.438   -23585776.31849 -18346716.94048  20559584.166    20559589.843
       242.000         214.000
 03  3 23  0 38 30.0000000  0  9G 3G31G14G26G 9G17G23G15G18
  22178176.180   -19433029.14849 -15109276.73446  22178176.088    22178183.658
       231.000         187.000
  24192946.019    -4360990.81549  -3043993.42245  24192945.183    24192954.674
       206.000         144.000
  22553822.807   -10695549.56149  -7944349.81046  22553821.944    22553830.195
       226.000         173.000
  24261263.288    -1077283.92049   -821765.18545  24261263.657    24261272.423
       201.000         134.000
  24208775.351    -2668476.36049  -2068033.45145  24208774.014    24208785.500
       209.000         151.000
  21333673.485   -23036758.16749 -17933284.80047  21333673.055    21333681.019
       236.000         197.000
  21411357.375   -15856966.70549 -12334845.11747  21411356.866    21411363.685
       240.000         203.000
  20292139.594   -26902794.30949 -20931572.26548  20292138.955    20292145.963
       243.000         213.000
  20564219.727   -23561417.93349 -18327736.37548  20564219.767    20564224.999
       242.000         214.000
 03  3 23  0 39  0.0000000  0  9G 3G31G14G26G 9G17G23G15G18
  22168234.820   -19485271.61149 -15149985.09547  22168235.090    22168242.408
       232.000         188.000
  24175735.108    -4451434.37449  -3114468.80445  24175735.417    24175744.238
       209.000         145.000
  22534605.843   -10796534.52249  -8023039.26546  22534604.948    22534613.189
       226.000         174.000
  24281650.542     -970149.79249   -738284.05145  24281650.713    24281659.791
       205.000         133.000
  24197705.032    -2726650.61649  -2113363.92045  24197703.369    24197715.051
       209.000         148.000
  21341087.706   -22997796.10949 -17902924.76247  21341087.343    21341095.363
       236.000         197.000
  21420213.006   -15810430.03149 -12298582.77447  21420212.765    21420219.581
       240.000         203.000
  20290251.462   -26912716.08649 -20939303.51047  20290251.041    20290257.683
       243.000         212.000
  20568908.244   -23536779.71849 -18308537.76648  20568908.071    20568913.130
       242.000         214.000
 03  3 23  0 39 30.0000000  0  9G 3G31G14G26G 9G17G23G15G18
  22158386.201   -19537026.98649 -15190313.91147  22158386.188    22158393.624
       232.000         188.000
  24158582.233    -4541573.36749  -3184706.87045  24158582.102    24158591.098
       208.000         146.000
  22515438.174   -10897260.60149  -8101526.99446  22515436.668    22515446.532
       226.000         174.000
  24302081.906     -862782.98449   -654621.58245  24302082.079    24302090.734
       203.000         132.000
  24186694.325    -2784511.65549  -2158450.33245  24186695.079    24186703.751
       212.000         148.000
  21348558.244   -22958538.65149 -17872334.55047  21348558.081    21348565.832
       237.000         197.000
  21429097.856   -15763740.05549 -12262200.97447  21429097.744    21429104.463
       240.000         203.000
  20288422.514   -26922327.40149 -20946792.83548  20288421.978    20288428.931
       243.000         213.000
  20573649.838   -23511862.35749 -18289121.63848  20573649.589    20573654.901
       242.000         214.000
 03  3 23  0 40  0.0000000  0  9G 3G31G14G26G 9G17G23G15G18
  22148630.429   -19588293.70949 -15230261.95747  22148630.342    22148637.592
       231.000         188.000
  24141487.785    -4631405.39749  -3254705.74245  24141487.276    24141496.640
       209.000         148.000
  22496320.297   -10997725.20949  -8179810.96846  22496319.442    22496328.188
       226.000         175.000
  24322556.822     -755186.82249   -570780.40944  24322556.135    24322564.355
       205.000         131.000
  24175744.086    -2842056.61749  -2203290.43945  24175743.841    24175754.170
       210.000         150.000
  21356085.000   -22918985.51449 -17841513.93847  21356084.700    21356092.464
       236.000         197.000
  21438011.505   -15716898.55849 -12225701.10447  21438011.054    21438018.222
       240.000         203.000
  20286652.771   -26931627.34349 -20954039.53648  20286652.423    20286659.215
       244.000         213.000
  20578444.302   -23486667.19749 -18269489.04348  20578443.900    20578449.384
       241.000         214.000
 03  3 23  0 40 30.0000000  0  9G 3G31G14G26G 9G17G23G15G18
  22138967.843   -19639070.51749 -15269828.24847  22138967.642    22138974.722
       232.000         188.000
  24124452.157    -4720928.24549  -3324463.70445  24124452.109    24124460.723
       210.000         149.000
  22477252.540   -11097926.20049  -8257889.53846  22477252.492    22477259.947
       227.000         175.000
  24343074.761     -647364.71349   -486763.17744  24343075.190    24343084.037
       204.000         130.000
  24164854.037    -2899282.97349  -2247882.32345  24164852.860    24164863.843
       207.000         148.000
  21363667.971   -22879136.72349 -17810462.95447  21363667.741    21363675.808
       235.000         197.000
  21446953.632   -15669907.25249 -12189084.49747  21446953.263    21446960.517
       240.000         203.000
  20284942.464   -26940615.15849 -20961043.01648  20284941.897    20284948.834
       243.000         213.000
  20583291.192   -23461196.31249 -18249641.60148  20583290.764    20583296.433
       241.000         214.000
 03  3 23  0 41  0.0000000  0  9G 3G31G14G26G 9G17G23G15G18
  22129399.164   -19689353.99449 -15309010.13247  22129398.626    22129406.447
       232.000         188.000
  24107476.108    -4810137.76849  -3393977.51545  24107475.522    24107485.108
       209.000         149.000
  22458235.814   -11197859.09049  -8335759.18246  22458235.397    22458244.152
       226.000         176.000
  24363635.320     -539318.10149   -402571.00744  24363636.126    24363644.246
       205.000         130.000
  24154025.542    -2956185.84049  -2292222.11445  24154025.946    24154036.118
       209.000         146.000
  21371307.672   -22838989.61249 -17779179.50947  21371307.112    21371315.332
       235.000         196.000
  21455924.351   -15622765.99449 -12152351.04847  21455924.223    21455931.151
       240.000         203.000
  20283291.984   -26949288.15649 -20967801.19048  20283291.480    20283298.463
       243.000         213.000
  20588190.677   -23435449.41549 -18229579.07848  20588190.722    20588195.640
       242.000         213.000
 03  3 23  0 41 30.0000000  0  9G 3G31G14G26G 9G17G23G15G18
  22119925.011   -19739140.64049 -15347804.87347  22119924.525    22119932.106
       232.000         188.000
  24090560.448    -4899029.27649  -3463243.53145  24090559.733    24090568.527
       208.000         148.000
  22439271.016   -11297519.35349  -8413416.40446  22439270.196    22439278.336
       226.000         176.000
  24384238.344     -431047.89849   -318204.62844  24384238.583    24384247.221
       207.000         129.000
  24143259.800    -3012760.43049  -2336306.08045  24143259.709    24143271.224
       208.000         145.000
  21379004.589   -22798541.83249 -17747661.78047  21379004.163    21379012.280
       235.000         196.000
  21464923.645   -15575474.35749 -12115500.41947  21464923.243    21464930.242
       240.000         204.000
  20281702.018   -26957643.29549 -20974311.67648  20281701.350    20281708.556
       243.000         213.000
  20593142.827   -23409425.82349 -18209300.94948  20593142.484    20593147.773
       242.000         213.000
 03  3 23  0 42  0.0000000  0  9G 3G31G14G26G 9G17G23G15G18
  22110544.922   -19788432.95049 -15386214.42547  22110544.618    22110552.029
       231.000         189.000
  24073704.842    -4987604.52649  -3532263.10845  24073703.512    24073713.800
       208.000         148.000
  22420357.650   -11396908.78049  -8490862.58646  22420357.130    22420364.813
       227.000         177.000
  24404882.619     -322561.38249   -233669.65644  24404883.731    24404892.256
       204.000         129.000
  24132556.034    -3069007.80549  -2380135.11445  24132554.900    24132566.090
       204.000         142.000
  21386757.981   -22757797.38249 -17715912.87447  21386757.756    21386765.140
       236.000         195.000
  21473950.554   -15528037.98249 -12078537.01447  21473950.593    21473956.956
       241.000         204.000
  20280172.064   -26965683.34449 -20980576.63348  20280171.479    20280178.664
       243.000         213.000
  20598146.515   -23383131.15449 -18188811.59148  20598146.350    20598151.718
       241.000         213.000
 03  3 23  0 42 30.0000000  0  8G 3G31G14G 9G17G23G15G18
  22101259.281   -19837228.64049 -15424236.99747  22101258.577    22101266.959
       231.000         189.000
  24056910.098    -5075860.30449  -3601033.74145  24056909.228    24056919.207
       208.000         147.000
  22401496.579   -11496023.92849  -8568095.04146  22401496.167    22401503.089
       227.000         177.000
  24121915.089    -3124924.44249  -2423706.44045  24121916.375    24121924.716
       205.000         141.000
  21394568.087   -22716755.37049 -17683932.10347  21394568.099    21394575.349
       236.000         195.000
  21483004.904   -15480457.52649 -12041461.33147  21483004.655    21483011.125
       241.000         204.000
  20278702.307   -26973406.81249 -20986594.90448  20278701.807    20278708.639
       243.000         213.000
  20603201.679   -23356565.94549 -18168111.41548  20603201.241    20603206.822
       242.000         213.000
 03  3 23  0 43  0.0000000  0  8G 3G31G14G 9G17G23G15G18
  22092068.475   -19885525.80149 -15461871.10147  22092068.050    22092075.999
       231.000         189.000
  24040176.790    -5163793.73649  -3669553.19545  24040176.642    24040185.171
       208.000         146.000
  22382688.317   -11594861.93949  -8645111.54746  22382687.548    22382695.425
       227.000         177.000
  24111338.028    -3180507.14849  -2467017.49545  24111337.808    24111347.409
       203.000         142.000
  21402435.047   -22675414.89049 -17651718.76947  21402434.833    21402442.348
       236.000         196.000
  21492086.352   -15432734.21349 -12004274.34247  21492085.939    21492092.781
       240.000         203.000
  20277293.064   -26980812.63049 -20992365.66148  20277292.722    20277299.535
       244.000         213.000
  20608308.099   -23329731.40849 -18147201.37848  20608307.905    20608313.615
       241.000         213.000
 03  3 23  0 43 30.0000000  0  8G 3G31G14G 9G17G23G15G18
  22082972.936   -19933322.97449 -15499115.60947  22082972.826    22082980.681
       232.000         189.000
  24023505.338    -5251402.50649  -3737819.66145  24023505.153    24023514.084
       208.000         144.000
  22363933.221   -11693420.56149  -8721910.34046  22363932.532    22363940.212
       228.000         177.000
  24100824.934    -3235752.97249  -2510066.06045  24100824.416    24100835.383
       205.000         143.000
  21410358.845   -22633775.39649 -17619272.42847  21410358.257    21410366.005
       234.000         195.000
  21501194.641   -15384869.60049 -11966977.24847  21501194.413    21501200.808
       240.000         203.000
  20275944.485   -26987899.70249 -20997888.04048  20275943.986    20275950.780
       244.000         213.000
  20613465.476   -23302629.09649 -18126082.68348  20613465.085    20613470.782
       241.000         213.000
 03  3 23  0 44  0.0000000  0  8G 3G31G14G 9G17G23G15G18
  22073972.938   -19980618.46949 -15535969.20147  22073972.996    22073980.102
       233.000         189.000
  24006896.250    -5338683.79949  -3805830.95045  24006895.542    24006903.745
       209.000         144.000
  22345231.822   -11791697.06949  -8798489.31046  22345231.508    22345239.133
       229.000         178.000
  24090376.583    -3290658.92749  -2552849.80145  24090375.780    24090387.642
       205.000         144.000
  21418339.506   -22591836.44549 -17586592.73447  21418339.122    21418346.524
       235.000         194.000
  21510329.617   -15336864.86349 -11929570.96247  21510329.179    21510336.374
       240.000         203.000
  20274656.736   -26994666.66749 -21003160.97748  20274656.288    20274663.018
       243.000         213.000
  20618673.567   -23275260.04749 -18104756.13548  20618673.170    20618678.794
       241.000         213.000
 03  3 23  0 44 30.0000000  0  8G 3G31G14G 9G17G23G15G18
  22065068.722   -20027410.57749 -15572430.55147  22065068.651    22065075.996
       233.000         189.000
  23990349.977    -5425634.78949  -3873584.86245  23990350.356    23990359.189
       209.000         145.000
  22326584.650   -11889688.43249  -8874846.08946  22326583.518    22326591.655
       229.000         179.000
  24079993.652    -3345221.61049  -2595366.04645  24079993.188    24080003.975
       205.000         143.000
  21426377.389   -22549597.07749 -17553678.96447  21426376.558    21426384.700
       235.000         194.000
  21519491.074   -15288721.02049 -11892056.29847  21519490.717    21519497.550
       240.000         203.000
  20273430.185   -27001112.07449 -21008183.34948  20273429.477    20273436.481
       243.000         213.000
  20623932.225   -23247625.42649 -18083222.65048  20623931.949    20623937.509
       242.000         213.000
 03  3 23  0 45  0.0000000  0  8G 3G31G14G 9G17G23G15G18
  22056260.589   -20073697.65749 -15608498.36747  22056259.999    22056267.972
       233.000         190.000
  23973867.163    -5512253.24549  -3941079.65145  23973867.797    23973875.771
       211.000         146.000
  22307992.134   -11987392.36949  -8950978.90046  22307991.349    22307999.091
       230.000         179.000
  24069676.444    -3399438.48349  -2637612.81845  24069675.051    24069686.267
       204.000         143.000
  21434472.368   -22507057.26349 -17520531.07647  21434472.004    21434479.851
       235.000         194.000
  21528678.689   -15240439.80749 -11854434.58647  21528678.276    21528685.131
       240.000         203.000
  20272264.969   -27007235.15449 -21012954.56148  20272264.333    20272271.376
       243.000         213.000
  20629241.142   -23219726.91249 -18061483.53148  20629240.824    20629246.597
       242.000         213.000
 03  3 23  0 45 30.0000000  0  8G 3G31G14G 9G17G23G15G18
  22047548.920   -20119477.55349 -15644170.96947  22047548.900    22047556.465
       233.000         191.000
  23957448.214    -5598535.89749  -4008312.77145  23957447.504    23957456.542
       210.000         148.000
  22289454.953   -12084805.87149  -9026885.40546  22289454.432    22289461.773
       231.000         180.000
  24059425.637    -3453305.88049  -2679587.28945  24059426.616    24059435.397
       208.000         144.000
  21442624.793   -22464215.94749 -17487148.26447  21442624.530    21442632.633
       234.000         194.000
  21537892.274   -15192021.97949 -11816706.42147  21537891.978    21537898.441
       240.000         202.000
  20271161.444   -27013034.03349 -21017473.15148  20271160.947    20271168.072
       244.000         213.000
  20634600.169   -23191565.00649 -18039539.17748  20634600.124    20634605.312
       242.000         213.000
 03  3 23  0 46  0.0000000  0  8G 3G31G14G 9G17G23G15G18
  22038934.107   -20164749.06549 -15679447.43247  22038934.033    22038941.028
       234.000         191.000
  23941093.464    -5684480.51749  -4075282.49145  23941094.215    23941101.915
       211.000         149.000
  22270973.518   -12181926.50949  -9102563.70146  22270972.796    22270979.270
       230.000         180.000
  24049241.920    -3506821.05049  -2721287.27645  24049242.516    24049251.665
       208.000         145.000
  21450834.566   -22421072.92549 -17453530.34147  21450834.286    21450842.312
       234.000         193.000
  21547131.568   -15143469.05449 -11778872.97947  21547131.102    21547138.117
       239.000         201.000
  20270119.854   -27018507.98949 -21021738.55448  20270119.648    20270126.156
       244.000         214.000
  20640009.068   -23163141.23849 -18017390.77948  20640008.799    20640014.234
       242.000         213.000
 03  3 23  0 46 30.0000000  0  8G 3G31G14G 9G17G23G15G18
  22030416.329   -20209510.84349 -15714326.70347  22030416.450    22030423.177
       234.000         191.000
  23924803.568    -5770084.49549  -4141986.78145  23924803.223    23924811.877
       211.000         149.000
  22252548.046   -12278751.59049  -9178011.69646  22252547.882    22252554.734
       229.000         180.000
  24039125.717    -3559980.89449  -2762710.42645  24039123.891    24039135.470
       205.000         145.000
  21459101.933   -22377627.56449 -17419676.83147  21459101.843    21459109.609
       235.000         193.000
  21556396.338   -15094782.42049 -11740935.35547  21556396.068    21556402.866
       239.000         201.000
  20269140.283   -27023655.82049 -21025749.83448  20269139.747    20269146.386
       244.000         214.000
  20645467.457   -23134457.07049 -17995039.47248  20645467.270    20645472.669
       242.000         213.000
 03  3 23  0 47  0.0000000  0  8G 3G31G14G 9G17G23G15G18
  22021995.798   -20253760.93549 -15748807.25047  22021995.430    22022002.359
       234.000         191.000
  23908578.781    -5855345.07149  -4208423.48345  23908578.246    23908587.056
       210.000         148.000
  22234179.485   -12375278.30649  -9253227.20046  22234178.728    22234186.464
       230.000         181.000
  24029077.596    -3612782.30749  -2803854.23545  24029077.636    24029087.823
       209.000         146.000
  21467427.076   -22333879.05749 -17385587.11547  21467427.109    21467435.173
       234.000         194.000
  21565686.292   -15045963.17349 -11702894.38847  21565685.796    21565693.105
       239.000         201.000
  20268222.977   -27028476.23849 -21029505.99348  20268222.532    20268228.997
       244.000         213.000
  20650975.252   -23105513.76749 -17972486.24448  20650975.057    20650980.301
       242.000         213.000
 03  3 23  0 47 30.0000000  0  8G 3G31G14G 9G17G23G15G18
  22013672.846   -20297497.74149 -15782887.84147  22013672.382    22013679.823
       233.000         191.000
  23892419.838    -5940259.86449  -4274590.74945  23892419.612    23892428.117
       209.000         147.000
  22215868.224   -12471504.30449  -9328208.36346  22215867.645    22215875.165
       230.000         181.000
  24019098.541    -3665222.78049  -2844716.79045  24019098.924    24019108.863
       213.000         150.000
  21475809.894   -22289827.35949 -17351261.14447  21475809.666    21475817.489
       235.000         193.000
  21575001.226   -14997012.72149 -11664751.18047  21575000.978    21575007.616
       239.000         201.000
  20267368.099   -27032968.32649 -21033006.30848  20267367.463    20267374.183
       243.000         213.000
  20656532.031   -23076312.51049 -17949732.01047  20656531.651    20656536.992
       242.000         212.000
 03  3 23  0 48  0.0000000  0  8G 3G31G14G 9G17G23G15G18
  22005447.783   -20340720.45749 -15816567.83947  22005447.066    22005454.560
       234.000         191.000
  23876327.098    -6024826.70649  -4340486.88945  23876326.093    23876335.398
       209.000         146.000
  22197614.541   -12567427.32649  -9402953.44546  22197613.612    22197621.344
       230.000         182.000
  24009188.705    -3717299.59849  -2885295.99445  24009188.655    24009199.179
       212.000         151.000
  21484250.388   -22245472.43149 -17316698.89047  21484249.873    21484257.871
       234.000         193.000
  21584340.781   -14947932.78449 -11626507.08047  21584340.322    21584347.571
       239.000         201.000
  20266575.846   -27037131.64749 -21036250.44648  20266575.382    20266582.031
       244.000         213.000
  20662137.568   -23046855.07049 -17926778.15847  20662137.530    20662142.566
       242.000         212.000
 03  3 23  0 48 30.0000000  0  8G 3G31G14G 9G17G23G15G18
  21997320.857   -20383427.38949 -15849845.94047  21997321.042    21997327.177
       234.000         191.000
  23860301.050    -6109042.88949  -4406109.77745  23860300.538    23860308.916
       211.000         146.000
  22179418.877   -12663044.88149  -9477460.50746  22179418.308    22179425.869
       230.000         182.000
  23999348.509    -3769009.77249  -2925589.52345  23999348.657    23999358.099
       214.000         151.000
  21492748.688   -22200813.38149 -17281899.66147  21492747.940    21492756.514
       233.000         192.000
  21593704.727   -14898724.63249 -11588163.07647  21593704.280    21593711.671
       239.000         201.000
  20265846.502   -27040964.36649 -21039236.96948  20265846.167    20265852.822
       244.000         213.000
  20667791.692   -23017142.55549 -17903625.54647  20667791.436    20667796.831
       242.000         212.000
 03  3 23  0 49  0.0000000  0  8G 3G31G14G 9G17G23G15G18
  21989292.802   -20425615.50649 -15882719.75647  21989292.480    21989299.823
       235.000         192.000
  23844342.725    -6192904.12849  -4471456.09845  23844343.455    23844351.062
       212.000         147.000
  22161282.338   -12758352.67749  -9551726.19346  22161281.704    22161288.975
       230.000         182.000
  23989579.165    -3820348.74349  -2965593.76445  23989580.189    23989588.044
       214.000         151.000
  21501305.188   -22155848.57249 -17246862.17447  21501304.976    21501312.935
       233.000         192.000
  21603093.281   -14849387.82749 -11549718.81747  21603093.270    21603099.752
       239.000         201.000
  20265180.617   -27044463.84749 -21041963.82348  20265179.998    20265186.873
       244.000         214.000
  20673494.466   -22987174.38349 -17880273.72347  20673494.268    20673499.439
       242.000         212.000
 03  3 23  0 49 30.0000000  0  8G 3G31G14G 9G17G23G15G18
  21981364.255   -20467280.49649 -15915185.94347  21981363.808    21981371.379
       235.000         193.000
  23828453.145    -6276405.03749  -4536521.65645  23828454.154    23828460.874
       214.000         149.000
  22143205.910   -12853344.87449  -9625745.96146  22143205.058    22143212.830
       230.000         182.000
  23979881.390    -3871310.55749  -3005304.12945  23979880.854    23979890.830
       212.000         150.000
  21509920.565   -22110574.43649 -17211583.65647  21509920.352    21509928.306
       234.000         192.000
  21612506.571   -14799920.78449 -11511173.06947  21612506.243    21612513.331
       239.000         201.000
  20264578.829   -27047626.24049 -21044428.01548  20264578.284    20264584.761
       244.000         214.000
  20679246.151   -22956949.28349 -17856721.69348  20679246.056    20679251.390
       242.000         213.000
 03  3 23  0 50  0.0000000  0  8G 3G31G14G 9G17G23G15G18
  21973534.103   -20508427.92149 -15947248.82747  21973534.039    21973541.106
       236.000         193.000
  23812631.144    -6359550.37649  -4601310.13345  23812630.899    23812638.310
       211.000         149.000
  22125188.380   -12948026.63249  -9699523.82746  22125187.651    22125194.998
       230.000         182.000
  23970254.327    -3921899.87349  -3044724.27245  23970253.769    23970263.684
       210.000         148.000
  21518593.686   -22064997.74549 -17176069.37847  21518593.917    21518602.108
       234.000         193.000
  21621942.995   -14750331.99149 -11472532.44947  21621942.631    21621949.744
       239.000         200.000
  20264040.009   -27050457.65849 -21046634.30948  20264039.467    20264046.252
       244.000         214.000
  20685045.039   -22926475.77749 -17832976.10648  20685044.791    20685050.078
       242.000         213.000
 03  3 23  0 50 30.0000000  0  8G 3G31G14G 9G17G23G15G18
  21965802.978   -20549055.24349 -15978906.45247  21965803.171    21965809.744
       235.000         193.000
  23796877.463    -6442336.21949  -4665818.48845  23796877.644    23796885.989
       212.000         149.000
  22107230.748   -13042393.91849  -9773056.64946  22107230.563    22107238.111
       231.000         183.000
  23960699.055    -3972112.26649  -3083850.70545  23960699.143    23960708.331
       211.000         148.000
  21527324.597   -22019117.01349 -17140318.18247  21527324.533    21527332.484
       233.000         193.000
  21631402.586   -14700621.37649 -11433796.91347  21631402.492    21631409.444
       239.000         200.000
  20263564.694   -27052955.47249 -21048580.65148  20263564.266    20263570.958
       244.000         214.000
  20690891.277   -22895753.69349 -17809036.81247  20690890.984    20690896.084
       242.000         212.000
 03  3 23  0 51  0.0000000  0  8G 3G31G14G 9G17G23G15G18
  21958171.177   -20589160.34749 -16010157.14547  21958170.575    21958177.522
       235.000         193.000
  23781192.758    -6524759.34749  -4730044.19745  23781192.263    23781201.121
       212.000         150.000
  22089333.779   -13136443.67749  -9846342.05146  22089333.583    22089339.806
       231.000         183.000
  23951216.280    -4021944.18949  -3122680.62645  23951216.168    23951225.782
       211.000         148.000
  21536113.525   -21972931.02849 -17104329.13147  21536112.709    21536121.225
       232.000         192.000
  21640885.287   -14650789.55349 -11394966.91347  21640884.987    21640891.949
       239.000         200.000
  20263153.153   -27055118.25649 -21050265.92748  20263152.771    20263159.312
       243.000         214.000
  20696784.587   -22864783.69149 -17784904.33747  20696784.184    20696789.839
       241.000         212.000
 03  3 23  0 51 30.0000000  0  8G 3G31G14G 9G17G23G15G18
  21950639.545   -20628738.85549 -16040997.50447  21950639.039    21950646.398
       235.000         192.000
  23765578.071    -6606814.41849  -4793983.11045  23765577.603    23765586.772
       214.000         151.000
  22071498.252   -13230170.12149  -9919375.51646  22071497.700    22071504.038
       232.000         183.000
  23941806.818    -4071389.83949  -3161209.56545  23941805.413    23941816.340
       211.000         147.000
  21544961.023   -21926436.45549 -17068099.61947  21544960.454    21544968.632
       232.000         191.000
  21650391.410   -14600834.72549 -11356041.07647  21650391.226    21650398.090
       238.000         200.000
  20262806.088   -27056941.97349 -21051686.99248  20262805.552    20262812.110
       244.000         214.000
  20702725.458   -22833564.20349 -17760577.46047  20702725.321    20702730.610
       242.000         212.000
 03  3 23  0 52  0.0000000  0  8G 3G31G14G 9G17G23G15G18
  21943207.758   -20667792.91949 -16071429.20647  21943207.364    21943214.925
       235.000         193.000
  23750033.356    -6688502.26549  -4857635.87845  23750031.835    23750041.198
       214.000         152.000
  22053723.927   -13323574.39949  -9992157.94846  22053723.335    22053729.961
       232.000         184.000
  23932470.883    -4120449.68449  -3199437.88245  23932470.745    23932480.494
       211.000         149.000
  21553866.866   -21879636.06949 -17031631.80547  21553866.809    21553874.432
       234.000         192.000
  21659919.970   -14550761.62949 -11317023.08447  21659919.560    21659926.630
       237.000         199.000
  20262523.102   -27058428.94349 -21052845.66048  20262522.578    20262529.113
       244.000         213.000
  20708712.967   -22802099.72349 -17736059.67247  20708712.627    20708717.804
       242.000         212.000
 03  3 23  0 52 30.0000000  0  8G 3G31G14G 9G17G23G15G18
  21935876.033   -20706321.11649 -16101451.14747  21935875.669    21935883.352
       235.000         193.000
  23734559.035    -6769820.17549  -4921000.40045  23734558.497    23734567.114
       213.000         153.000
  22036011.381   -13416653.75949 -10064687.20146  22036010.397    22036017.644
       232.000         184.000
  23923208.986    -4169120.64549  -3237363.18445  23923208.867    23923218.961
       210.000         149.000
  21562831.074   -21832529.24349 -16994925.21747  21562830.753    21562838.902
       233.000         192.000
  21669470.840   -14500571.30049 -11277913.74247  21669470.438    21669477.741
       238.000         199.000
  20262304.510   -27059577.54449 -21053740.66048  20262304.029    20262310.662
       245.000         213.000
  20714746.817   -22770391.39349 -17711351.87447  20714746.459    20714752.055
       242.000         212.000
 03  3 23  0 53  0.0000000  0  8G 3G31G14G 9G17G23G15G18
  21928644.753   -20744321.56849 -16131061.85747  21928644.495    21928651.635
       235.000         194.000
  23719155.489    -6850765.21349  -4984074.35145  23719155.041    23719164.530
       212.000         154.000
  22018361.264   -13509405.35949 -10136961.05346  22018360.326    22018367.316
       231.000         185.000
  23914021.758    -4217399.54149  -3274982.95945  23914021.757    23914031.211
       210.000         148.000
  21571853.667   -21785115.22749 -16957979.25047  21571853.696    21571861.233
       233.000         193.000
  21679043.903   -14450264.39049 -11238713.55747  21679043.441    21679050.668
       238.000         199.000
  20262150.557   -27060386.40049 -21054370.91848  20262149.935    20262156.762
       246.000         214.000
  20720826.915   -22738440.07749 -17686454.73947  20720826.640    20720832.024
       242.000         212.000
 03  3 23  0 53 30.0000000  0  8G 3G31G14G 9G17G23G15G18
  21921514.159   -20781792.93849 -16160260.29347  21921513.782    21921521.245
       235.000         194.000
  23703823.420    -6931334.91449  -5046855.83245  23703822.515    23703831.596
       212.000         154.000
  22000773.917   -13601826.64349 -10208977.51146  22000773.421    22000779.951
       232.000         185.000
  23904909.717    -4265283.53449  -3312294.99345  23904909.356    23904918.873
       209.000         146.000
  21580934.786   -21737393.85149 -16920793.77747  21580934.680    21580942.684
       233.000         192.000
  21688638.926   -14399842.18349 -11199423.52847  21688638.508    21688645.458
       238.000         199.000
  20262061.454   -27060854.46649 -21054735.62748  20262060.987    20262067.694
       246.000         214.000
  20726953.039   -22706247.12549 -17661369.31747  20726952.749    20726958.008
       243.000         212.000
 03  3 23  0 54  0.0000000  0  8G 3G31G14G 9G17G23G15G18
  21914484.522   -20818733.59849 -16189045.18747  21914484.428    21914491.382
       235.000         194.000
  23688563.266    -7011526.50149  -5109342.68445  23688561.790    23688570.506
       212.000         154.000
  21983249.980   -13693914.83449 -10280734.41646  21983249.293    21983256.115
       232.000         186.000
  23895873.239    -4312769.75249  -3349297.08645  23895872.921    23895882.571
       208.000         147.000
  21590074.597   -21689363.99749 -16883367.94047  21590074.273    21590082.071
       232.000         191.000
  21698255.738   -14349305.65349 -11160044.41647  21698255.640    21698261.949
       239.000         198.000
  20262037.561   -27060980.29349 -21054833.66148  20262037.064    20262043.644
       246.000         214.000
  20733124.973   -22673813.46949 -17636096.33247  20733124.696    20733130.301
       243.000         212.000
 03  3 23  0 54 30.0000000  0  8G 3G31G14G 9G17G23G15G18
  21907556.137   -20855142.19449 -16217415.49647  21907556.015    21907563.240
       235.000         194.000
  23673375.454    -7091337.33149  -5171532.84545  23673375.173    23673384.227
       211.000         153.000
  21965789.904   -13785667.18249 -10352229.62446  21965788.811    21965795.933
       232.000         186.000
  23886913.086    -4359855.21249  -3385986.92345  23886912.605    23886922.433
       208.000         145.000
  21599273.053   -21641025.42349 -16845701.53447  21599272.385    21599281.132
       232.000         191.000
  21707894.132   -14298655.72249 -11120576.93047  21707894.178    21707900.527
       238.000         198.000
  20262078.980   -27060762.62249 -21054664.03548  20262078.375    20262085.058
       246.000         214.000
  20739342.548   -22641139.82649 -17610636.35047  20739342.422    20739347.794
       242.000         212.000
 03  3 23  0 55  0.0000000  0  8G 3G31G14G 9G17G23G15G18
  21900729.299   -20891017.57149 -16245370.30947  21900729.081    21900736.590
       236.000         194.000
  23658260.738    -7170764.76449  -5233424.25345  23658260.897    23658269.087
       213.000         153.000
  21948394.190   -13877081.08449 -10423461.11346  21948393.653    21948400.793
       233.000         186.000
  23878029.712    -4406536.91049  -3422362.10945  23878029.304    23878038.493
       209.000         144.000
  21608530.364   -21592377.82549 -16807794.32847  21608529.886    21608538.540
       232.000         191.000
  21717553.839   -14247893.62549 -11081022.05447  21717553.581    21717560.376
       238.000         198.000
  20262185.932   -27060200.40849 -21054225.93548  20262185.341    20262192.142
       245.000         214.000
  20745605.478   -22608227.81249 -17584990.61747  20745605.476    20745610.714
       243.000         212.000
 03  3 23  0 55 30.0000000  0  8G 3G31G14G 9G17G23G15G18
  21894004.022   -20926359.02949 -16272909.07647  21894003.837    21894010.991
       236.000         194.000
  23643219.454    -7249806.88549  -5295015.41445  23643219.290    23643227.981
       212.000         153.000
  21931063.360   -13968154.88749 -10494427.59046  21931062.621    21931069.606
       232.000         187.000
  23869223.590    -4452812.53549  -3458420.86845  23869223.291    23869232.629
       210.000         144.000
  21617846.507   -21543421.18849 -16769646.32047  21617846.177    21617854.575
       232.000         191.000
  21727234.553   -14197021.09249 -11041381.11947  21727234.419    21727240.825
       238.000         198.000
  20262358.590   -27059292.99049 -21053518.84048  20262358.171    20262364.746
       246.000         214.000
  20751913.570   -22575078.92349 -17559160.30747  20751913.289    20751918.675
       242.000         212.000
 03  3 23  0 56  0.0000000  0  8G 3G31G14G 9G17G23G15G18
  21887380.651   -20961165.03749 -16300030.61547  21887380.732    21887387.408
       236.000         194.000
  23628252.028    -7328461.25749  -5356304.45945  23628251.792    23628260.853
       212.000         154.000
  21913797.699   -14058885.88949 -10565126.94546  21913797.184    21913803.829
       233.000         187.000
  23860495.270    -4498679.37349  -3494161.12945  23860495.313    23860505.230
       208.000         145.000
  21627221.527   -21494154.84149 -16731256.97247  21627221.076    21627229.681
       231.000         190.000
  21736936.125   -14146039.11449 -11001654.90047  21736935.822    21736942.554
       237.000         198.000
  20262597.140   -27058039.35149 -21052541.96148  20262596.476    20262603.563
       246.000         214.000
  20758266.383   -22541694.50249 -17533146.47347  20758266.251    20758271.527
       243.000         212.000
 03  3 23  0 56 30.0000000  0  8G 3G31G14G 9G17G23G15G18
  21880859.399   -20995434.44249 -16326734.02947  21880859.256    21880866.465
       236.000         194.000
  23613358.759    -7406725.52749  -5417289.51645  23613358.282    23613367.578
       210.000         154.000
  21896597.660   -14149271.92949 -10635557.50846  21896597.011    21896603.999
       233.000         187.000
  23851845.260    -4544134.78149  -3529580.78745  23851844.831    23851855.299
       209.000         146.000
  21636655.464   -21444579.11449 -16692626.55347  21636655.185    21636663.229
       232.000         189.000
  21746658.237   -14094948.97049 -10961844.39647  21746658.332    21746664.712
       238.000         198.000
  20262901.736   -27056438.53449 -21051294.56448  20262901.275    20262908.124
       246.000         214.000
  20764663.816   -22508075.90349 -17506950.15848  20764663.642    20764669.175
       243.000         213.000
 03  3 23  0 57  0.0000000  0  8G 3G31G14G 9G17G23G15G18
  21874440.478   -21029166.00749 -16353018.34147  21874440.430    21874447.564
       235.000         194.000
  23598540.081    -7484596.99749  -5477968.48945  23598539.481    23598549.845
       210.000         154.000
  21879463.842   -14239310.24749 -10705717.10846  21879462.973    21879470.150
       233.000         187.000
  23843274.054    -4589175.91349  -3564677.63045  23843273.585    23843283.092
       209.000         146.000
  21646148.500   -21394693.45749 -16653754.62347  21646148.593    21646155.902
       232.000         189.000
  21756400.845   -14043751.64249 -10921950.36247  21756400.567    21756407.392
       238.000         198.000
  20263272.707   -27054488.97749 -21049775.41548  20263272.089    20263279.034
       246.000         214.000
  20771105.633   -22474224.02049 -17480572.05648  20771105.343    20771110.838
       243.000         213.000
 03  3 23  0 57 30.0000000  0  8G 3G31G14G 9G17G23G15G18
  21868123.976   -21062358.72849 -16378882.77447  21868123.473    21868131.222
       235.000         194.000
  23583796.695    -7562073.29749  -5538339.54445  23583796.917    23583806.142
       210.000         154.000
  21862396.621   -14328998.37249 -10775603.83246  21862396.238    21862402.690
       232.000         187.000
  23834782.283    -4633800.21149  -3599449.66045  23834782.054    23834790.939
       209.000         144.000
  21655700.531   -21344497.37949 -16614640.82147  21655700.131    21655708.043
       232.000         189.000
  21766163.540   -13992448.38149 -10881973.79347  21766163.399    21766170.172
       238.000         198.000
  20263710.209   -27052189.72649 -21047983.77748  20263709.606    20263716.443
       246.000         214.000
  20777591.548   -22440140.23749 -17454013.25947  20777591.263    20777596.376
       243.000         212.000
 03  3 23  0 58  0.0000000  0  8G 3G31G14G 9G17G23G15G18
  21861910.255   -21095011.61249 -16404326.55947  21861910.364    21861916.993
       234.000         193.000
  23569129.053    -7639151.99549  -5598400.78945  23569129.271    23569137.968
       212.000         155.000
  21845396.473   -14418333.97749 -10845215.87847  21845395.727    21845402.923
       232.000         188.000
  23826370.398    -4678004.77849  -3633894.64845  23826370.537    23826380.227
       209.000         145.000
  21665311.664   -21293990.31549 -16575284.68847  21665311.267    21665319.150
       231.000         189.000
  21775946.185   -13941040.35749 -10841915.59247  21775946.076    21775952.742
       238.000         198.000
  20264214.408   -27049539.84149 -21045918.92148  20264213.947    20264220.603
       246.000         214.000
  20784121.366   -22405825.69949 -17427274.65047  20784121.192    20784126.506
       243.000         212.000
 03  3 23  0 58 30.0000000  0  8G 3G31G14G 9G17G23G15G18
  21855799.541   -21127123.34149 -16429348.66247  21855799.695    21855806.558
       235.000         193.000
  23554537.634    -7715830.62549  -5658150.29645  23554537.863    23554545.401
       213.000         156.000
  21828463.864   -14507314.59249 -10914551.29847  21828463.449    21828470.754
       234.000         188.000
  23818038.961    -4721787.04049  -3668010.55545  23818039.484    23818048.623
       212.000         148.000
  21674982.004   -21243172.36149 -16535686.30947  21674981.792    21674989.656
       232.000         189.000
  21785748.567   -13889528.60749 -10801776.55747  21785747.941    21785755.430
       238.000         199.000
  20264785.596   -27046538.38449 -21043580.11348  20264785.081    20264791.772
       246.000         214.000
  20790694.917   -22371281.61949 -17400357.17547  20790694.801    20790699.845
       243.000         212.000
 03  3 23  0 59  0.0000000  0  8G 3G31G14G 9G17G23G15G18
  21849791.926   -21158693.77149 -16453948.97447  21849791.944    21849798.742
       237.000         193.000
  23540022.716    -7792107.54549  -5717586.77945  23540022.062    23540031.410
       215.000         157.000
  21811599.231   -14595938.61949 -10983608.85747  21811598.984    21811606.356
       235.000         189.000
  23809788.224    -4765144.99349  -3701795.84345  23809788.536    23809797.068
       210.000         147.000
  21684711.542   -21192043.72849 -16495845.82547  21684711.257    21684719.220
       232.000         189.000
  21795570.334   -13837914.97649 -10761558.14147  21795570.161    21795576.713
       238.000         199.000
  20265423.700   -27043185.12849 -21040967.17648  20265423.219    20265429.945
       246.000         214.000
  20797311.727   -22336510.08349 -17373262.46347  20797311.611    20797316.747
       244.000         212.000
 03  3 23  0 59 30.0000000  0  8G 3G31G14G 9G17G23G15G18
  21843887.688   -21189720.96749 -16478125.98247  21843887.441    21843895.177
       236.000         194.000
  23525584.834    -7867979.79849  -5776707.95045  23525584.807    23525593.061
       214.000         158.000
  21794803.008   -14684203.06849 -11052386.23947  21794803.082    21794809.589
       236.000         191.000
  23801618.501    -4808075.39949  -3735248.00145  23801617.513    23801627.475
       206.000         145.000
  21694500.328   -21140603.49149 -16455762.54947  21694499.900    21694508.057
       233.000         189.000
  21805411.392   -13786199.92449 -10721260.69047  21805411.058    21805417.914
       238.000         198.000
  20266129.080   -27039478.31449 -21038078.74248  20266128.601    20266135.432
       246.000         214.000
  20803971.717   -22301511.64149 -17345990.93847  20803971.380    20803976.756
       243.000         212.000
 03  3 23  1  0  0.0000000  0  8G 3G31G14G 9G17G23G15G18
  21838086.821   -21220203.84849 -16501878.83847  21838086.667    21838094.411
       235.000         194.000
  23511224.387    -7943444.71249  -5835511.70545  23511223.998    23511232.115
       214.000         158.000
  21778075.805   -14772105.25349 -11120881.33247  21778075.202    21778082.374
       236.000         191.000
  23793530.851    -4850575.22849  -3768364.63045  23793530.282    23793539.972
       208.000         145.000
  21704348.488   -21088851.29949 -16415436.18247  21704347.693    21704355.873
       232.000         188.000
  21815271.470   -13734384.33649 -10680884.90047  21815270.722    21815277.801
       237.000         197.000
  20266902.073   -27035416.40249 -21034913.60448  20266901.556    20266908.324
       246.000         214.000
  20810674.609   -22266287.21049 -17318543.31247  20810674.320    20810679.613
       243.000         212.000
 03  3 23  1  0 30.0000000  0  8G 3G31G14G 9G17G23G15G18
  21832389.728   -21250141.85749 -16525207.12647  21832389.531    21832396.697
       236.000         194.000
  23496941.771    -8018500.30449  -5893996.49845  23496941.886    23496948.716
       215.000         157.000
  21761417.800   -14859643.16649 -11189092.58347  21761417.504    21761424.358
       235.000         192.000
  23785525.774    -4892642.50849  -3801144.18845  23785525.853    23785535.305
       209.000         147.000
  21714255.889   -21036787.08549 -16374866.69747  21714254.964    21714263.892
       230.000         188.000
  21825150.424   -13682469.81649 -10640432.02147  21825149.813    21825157.056
       237.000         197.000
  20267742.724   -27030998.92349 -21031471.40948  20267742.444    20267748.621
       246.000         214.000
  20817420.245   -22230838.54849 -17290920.96547  20817419.980    20817425.336
       242.000         211.000
 03  3 23  1  1  0.0000000  0  8G 3G31G14G 9G17G23G15G18
  21826796.699   -21279533.73149 -16548109.86247  21826797.023    21826803.584
       236.000         194.000
  23482737.598    -8093144.05649  -5952160.37645  23482736.670    23482744.845
       215.000         157.000
  21744829.573   -14946814.61249 -11257018.26347  21744829.358    21744835.539
       236.000         191.000
  23777603.535    -4934274.52149  -3833584.58545  23777603.358    23777611.578
       208.000         149.000
  21724222.766   -20984410.25049 -16334053.60346  21724222.374    21724230.421
       231.000         187.000
  21835048.064   -13630457.27549 -10599902.77447  21835047.671    21835054.680
       237.000         197.000
  20268651.238   -27026224.84049 -21027751.33948  20268650.935    20268657.219
       246.000         214.000
  20824208.303   -22195166.64649 -17263124.66647  20824208.061    20824213.350
       243.000         211.000
 03  3 23  1  1 30.0000000  0  8G 3G31G14G 9G17G23G15G18
  21821307.592   -21308379.09049 -16570586.72847  21821307.403    21821314.576
       236.000         194.000
  23468612.138    -8167374.02549  -6010001.83045  23468611.648    23468619.592
       215.000         156.000
  21728311.460   -15033617.50149 -11324656.76247  21728311.003    21728317.836
       235.000         192.000
  23769764.508    -4975468.92949  -3865683.99845  23769764.115    23769774.377
       208.000         149.000
  21734249.160   -20931721.74949 -16292997.66247  21734249.442    21734257.113
       231.000         188.000
  21844964.046   -13578348.23649 -10559298.33047  21844963.936    21844970.295
       238.000         197.000
  20269627.679   -27021093.64149 -21023752.99348  20269627.059    20269633.554
       246.000         214.000
  20831038.624   -22159273.02549 -17235155.60147  20831038.322    20831043.541
       242.000         211.000
 03  3 23  1  2  0.0000000  0  8G 3G31G14G 9G17G23G15G18
  21815922.663   -21336676.68449 -16592636.76047  21815922.681    21815930.027
       236.000         194.000
  23454565.854    -8241187.66149  -6067518.86645  23454565.352    23454572.545
       214.000         156.000
  21711863.982   -15120049.11049 -11392005.95747  21711863.670    21711869.864
       236.000         192.000
  23762009.175    -5016222.93449  -3897440.25245  23762009.743    23762018.295
       207.000         149.000
  21744335.050   -20878720.65549 -16251698.12546  21744334.490    21744342.795
       230.000         187.000
  21854898.380   -13526143.51049 -10518619.32547  21854898.369    21854904.976
       237.000         198.000
  20270672.301   -27015603.96049 -21019475.30048  20270671.776    20270678.121
       246.000         213.000
  20837910.923   -22123158.83549 -17207014.66847  20837910.645    20837915.807
       243.000         211.000
 03  3 23  1  2 30.0000000  0  8G 3G31G14G 9G17G23G15G18
  21810642.214   -21364425.81149 -16614259.41847  21810642.346    21810649.408
       236.000         195.000
  23440599.056    -8314582.66549  -6124709.68845  23440598.022    23440606.236
       214.000         155.000
  21695487.573   -15206107.42149 -11459064.27547  21695487.207    21695493.826
       238.000         193.000
  23754338.153    -5056534.04449  -3928851.38245  23754337.035    23754347.787
       207.000         149.000
  21754480.323   -20825406.44749 -16210154.59846  21754479.467    21754488.117
       229.000         186.000
  21864850.637   -13473844.25849 -10477866.66347  21864850.579    21864857.206
       238.000         198.000
  20271785.365   -27009754.67049 -21014917.39648  20271784.725    20271791.296
       245.000         213.000
  20844824.995   -22086825.25249 -17178702.77747  20844824.758    20844829.929
       242.000         211.000
 03  3 23  1  3  0.0000000  0  8G 3G31G14G 9G17G23G15G18
  21805466.358   -21391625.06349 -16635453.61047  21805466.400    21805473.160
       236.000         195.000
  23426712.515    -8387556.46649  -6181572.31645  23426712.085    23426719.871
       216.000         156.000
  21679182.767   -15291789.62349 -11525829.52447  21679182.514    21679188.716
       237.000         193.000
  23746751.746    -5096399.51249  -3959915.29245  23746751.146    23746761.738
       206.000         149.000
  21764685.197   -20771778.91449 -16168366.92246  21764684.732    21764693.051
       229.000         185.000
  21874820.743   -13421451.14649 -10437040.86847  21874820.417    21874827.214
       238.000         198.000
  20272967.073   -27003544.64349 -21010078.40548  20272966.387    20272973.096
       246.000         213.000
  20851780.665   -22050273.02349 -17150220.51247  20851780.453    20851785.878
       243.000         211.000
 03  3 23  1  3 30.0000000  0  8G 3G31G14G 9G17G23G15G18
  21800395.349   -21418273.20349 -16656218.35947  21800395.320    21800402.517
       237.000         195.000
  23412906.731    -8460106.43649  -6238104.67145  23412906.612    23412914.356
       217.000         158.000
  21662949.927   -15377093.20749 -11592299.74547  21662949.142    21662955.593
       237.000         194.000
  23739250.690    -5135816.38549  -3990629.65645  23739250.369    23739259.433
       208.000         149.000
  21774949.918   -20717837.72849 -16126334.84946  21774949.896    21774957.530
       231.000         186.000
  21884808.554   -13368964.90549 -10396142.49847  21884808.063    21884814.794
       238.000         198.000
  20274217.612   -26996972.60449 -21004957.31948  20274217.062    20274223.832
       245.000         213.000
  20858777.695   -22013503.14949 -17121568.65247  20858777.669    20858782.695
       242.000         211.000
 03  3 23  1  4  0.0000000  0  8G 3G31G14G 9G17G23G15G18
  21795429.326   -21444369.86349 -16676553.38847  21795428.629    21795436.361
       236.000         194.000
  23399181.945    -8532230.77749  -6294305.36245  23399181.724    23399189.518
       219.000         161.000
  21646789.421   -15462016.51649 -11658473.65047  21646789.220    21646795.239
       237.000         194.000
  23731835.504    -5174782.62449  -4020992.84645  23731835.602    23731843.771
       209.000         149.000
  21785274.315   -20663583.11549 -16084058.55146  21785273.789    21785282.167
       231.000         186.000
  21894813.729   -13316387.17749 -10355172.84747  21894813.066    21894820.010
       237.000         196.000
  20275537.155   -26990038.27349 -20999553.93148  20275536.598    20275543.043
       246.000         213.000
  20865815.843   -21976517.57949 -17092748.72247  20865815.656    20865820.989
       242.000         210.000
 03  3 23  1  4 30.0000000  0  8G 3G31G14G 9G17G23G15G18
  21790568.126   -21469914.90949 -16696458.58747  21790567.794    21790575.212
       236.000         194.000
  23385538.454    -8603927.72349  -6350173.01446  23385537.839    23385546.016
       219.000         163.000
  21630701.700   -15546557.72749 -11724349.81147  21630701.067    21630707.625
       236.000         194.000
  23724506.531    -5213296.36949  -4051003.46245  23724505.826    23724515.429
       209.000         150.000
  21795658.314   -20609015.33849 -16041538.22046  21795657.850    21795666.120
       231.000         186.000
  21904835.992   -13263719.55849 -10314133.14547  21904835.668    21904842.435
       237.000         196.000
  20276925.721   -26982741.09549 -20993867.80048  20276925.087    20276931.803
       245.000         213.000
  20872894.722   -21939317.77849 -17063761.85847  20872894.626    20872899.769
       242.000         210.000
 03  3 23  1  5  0.0000000  0  8G 3G31G14G 9G17G23G15G18
  21785812.161   -21494907.11449 -16715933.01547  21785811.946    21785818.971
       236.000         194.000
  23371976.796    -8675194.65749  -6405705.59046  23371976.577    23371985.191
       219.000         163.000
  21614687.138   -15630714.22449 -11789926.21247  21614686.544    21614692.774
       236.000         194.000
  23717264.201    -5251354.91949  -4080659.36445  23717264.579    23717273.200
       211.000         150.000
  21806101.954   -20554134.03649 -15998773.58346  21806101.600    21806109.872
       230.000         187.000
  21914875.247   -13210962.83149 -10273024.00747  21914874.968    21914881.734
       237.000         196.000
  20278383.625   -26975079.56149 -20987897.76248  20278383.157    20278389.813
       245.000         213.000
  20880014.266   -21901904.59249 -17034608.72347  20880014.037    20880019.311
       243.000         211.000
 03  3 23  1  5 30.0000000  0  8G 3G31G14G 9G17G23G15G18
  21781161.646   -21519345.58349 -16734975.95847  21781161.775    21781168.391
       236.000         194.000
  23358497.437    -8746029.16749  -6460901.22346  23358496.919    23358504.883
       219.000         163.000
  21598746.197   -15714483.39749 -11855200.78747  21598745.470    21598752.202
       235.000         194.000
  23710108.999    -5288955.68949  -4109958.54045  23710109.193    23710118.323
       210.000         152.000
  21816605.307   -20498938.44749 -15955764.04346  21816604.709    21816613.035
       230.000         186.000
  21924931.347   -13158117.68649 -10231845.97347  21924930.876    21924937.903
       237.000         196.000
  20279911.119   -26967052.50349 -20981642.89048  20279910.660    20279917.183
       246.000         213.000
  20887174.127   -21864279.21549 -17005290.23547  20887174.040    20887179.220
       243.000         211.000
 03  3 23  1  6  0.0000000  0  8G 3G31G14G 9G17G23G15G18
  21776616.640   -21543229.73349 -16753586.96347  21776616.892    21776623.891
       238.000         194.000
  23345100.718    -8816429.17949  -6515758.28345  23345100.064    23345108.018
       219.000         162.000
  21582879.329   -15797863.65849 -11920172.32647  21582878.894    21582885.819
       236.000         195.000
  23703041.189    -5326096.45549  -4138899.29945  23703041.196    23703050.231
       209.000         152.000
  21827168.471   -20443428.36149 -15912509.44546  21827168.136    21827176.256
       230.000         185.000
  21935003.976   -13105185.50749 -10190600.12747  21935003.813    21935010.643
       237.000         195.000
  20281508.309   -26958659.34949 -20975102.75848  20281507.924    20281514.319
       246.000         213.000
  20894374.169   -21826442.76349 -16975807.28547  20894373.886    20894379.240
       242.000         211.000
 03  3 23  1  6 30.0000000  0  8G 3G31G14G 9G17G23G15G18
  21772177.465   -21566558.46249 -16771765.18047  21772177.895    21772184.488
       238.000         195.000
  23331787.114    -8886392.22549  -6570274.86745  23331785.951    23331794.184
       217.000         161.000
  21567087.170   -15880852.17749 -11984838.60647  21567086.787    21567093.358
       236.000         195.000
  23696061.710    -5362774.42749  -4167479.41245  23696061.638    23696070.612
       211.000         151.000
  21837791.563   -20387603.61849 -15869009.66946  21837791.581    21837799.479
       230.000         185.000
  21945093.103   -13052166.78249 -10149286.83447  21945092.998    21945099.971
       237.000         196.000
  20283175.382   -26949898.72049 -20968276.27448  20283174.710    20283181.467
       246.000         213.000
  20901614.207   -21788396.08949 -16946160.51847  20901614.024    20901619.124
       242.000         210.000
 03  3 23  1  7  0.0000000  0  8G 3G31G14G 9G17G23G15G18
  21767843.907   -21589331.69749 -16789510.54147  21767843.765    21767850.485
       236.000         195.000
  23318556.853    -8955916.56349  -6624449.59645  23318555.630    23318563.905
       216.000         160.000
  21551369.831   -15963447.26549 -12049198.31547  21551369.088    21551375.596
       236.000         196.000
  23689170.512    -5398987.48849  -4195697.25445  23689170.519    23689178.911
       212.000         152.000
  21848474.373   -20331465.29549 -15825265.53846  21848474.056    21848482.091
       230.000         184.000
  21955198.419   -12999063.16449 -10107907.39047  21955198.223    21955205.366
       237.000         196.000
  20284912.431   -26940770.26749 -20961163.17848  20284911.828    20284918.427
       245.000         213.000
  20908893.829   -21750141.20349 -16916351.51047  20908893.254    20908898.907
       241.000         210.000
 03  3 23  1  7 30.0000000  0  8G 3G31G14G 9G17G23G15G18
  21763616.213   -21611548.22349 -16806822.09747  21763616.122    21763623.006
       237.000         195.000
  23305410.577    -9024999.40649  -6678280.30945  23305410.090    23305418.148
       218.000         160.000
  21535727.714   -16045646.33549 -12113249.44047  21535727.386    21535733.614
       236.000         196.000
  23682368.327    -5434732.91049  -4223550.67845  23682367.328    23682376.575
       209.000         151.000
  21859217.002   -20275012.26649 -15781276.18646  21859216.010    21859225.169
       229.000         184.000
  21965319.812   -12945874.94249 -10066462.01347  21965319.606    21965326.384
       237.000         196.000
  20286719.709   -26931272.57749 -20953762.35848  20286719.336    20286725.878
       246.000         214.000
  20916212.900   -21711678.66149 -16886380.68747  20916212.507    20916218.169
       241.000         209.000
 03  3 23  1  8  0.0000000  0  8G 3G31G14G 9G17G23G15G18
  21759494.625   -21633207.48449 -16823699.43047  21759494.695    21759501.451
       237.000         195.000
  23292348.891    -9093638.65249  -6731765.36545  23292348.703    23292357.092
       219.000         160.000
  21520161.405   -16127447.22349 -12176990.29447  21520160.993    21520167.665
       237.000         196.000
  23675655.476    -5470008.35549  -4251037.89845  23675654.855    23675664.314
       210.000         152.000
  21870019.521   -20218244.16549 -15737041.31246  21870019.091    21870027.462
       229.000         183.000
  21975457.066   -12892603.51449 -10024951.80747  21975456.788    21975463.768
       237.000         195.000
  20288597.573   -26921404.57149 -20946072.98648  20288597.087    20288603.667
       245.000         214.000
  20923571.308   -21673009.74849 -16856249.05847  20923571.183    20923576.249
       242.000         209.000
 03  3 23  1  8 30.0000000  0  8G 3G31G14G 9G17G23G15G18
  21755479.106   -21654309.22049 -16840142.32747  21755479.095    21755486.006
       237.000         195.000
  23279372.046    -9161832.48849  -6784903.35445  23279371.706    23279379.247
       219.000         161.000
  21504671.351   -16208848.01749 -12240419.38347  21504671.046    21504677.433
       237.000         197.000
  23669032.439    -5504811.99149  -4278157.48745  23669031.391    23669041.023
       211.000         153.000
  21880882.010   -20161161.59749 -15692561.39846  21880882.131    21880890.083
       229.000         183.000
  21985609.860   -12839250.20249  -9983377.80247  21985609.799    21985616.660
       235.000         195.000
  20290545.944   -26911165.85049 -20938094.74648  20290545.528    20290551.957
       246.000         214.000
  20930968.860   -21634135.62749 -16825957.52547  20930968.682    20930974.036
       242.000         209.000
 03  3 23  1  9  0.0000000  0  8G 3G31G14G 9G17G23G15G18
  21751569.843   -21674852.32149 -16856149.92447  21751569.742    21751576.659
       237.000         196.000
  23266480.450    -9229578.32449  -6837692.24145  23266479.881    23266488.069
       218.000         162.000
  21489257.824   -16289846.33949 -12303534.86847  21489257.457    21489264.354
       237.000         197.000
  23662499.575    -5539141.19249  -4304907.37545  23662499.213    23662508.033
       212.000         155.000
  21891804.480   -20103764.23449 -15647836.19246  21891804.829    21891812.501
       229.000         182.000
  21995778.147   -12785815.59049  -9941740.45147  21995778.010    21995784.733
       236.000         196.000
  20292565.063   -26900555.29149 -20929826.75848  20292564.540    20292571.279
       245.000         214.000
  20938405.207   -21595057.34849 -16795506.90547  20938405.034    20938410.464
       243.000         210.000
 03  3 23  1  9 30.0000000  0  8G 3G31G14G 9G17G23G15G18
  21747766.932   -21694836.58249 -16871722.05647  21747766.934    21747773.947
       237.000         196.000
  23253674.202    -9296874.48249  -6890130.73845  23253673.467    23253681.008
       217.000         162.000
  21473921.235   -16370440.33149 -12366335.28847  21473920.884    21473927.121
       238.000         198.000
  23656057.590    -5572993.82049  -4331285.89945  23656057.542    23656066.018
       214.000         156.000
  21902786.833   -20046051.79249 -15602865.47346  21902786.796    21902794.230
       229.000         182.000
  22005961.629   -12732301.03349  -9900040.79647  22005961.510    22005968.164
       235.000         195.000
  20294655.048   -26889572.23149 -20921268.50848  20294654.393    20294661.309
       245.000         214.000
  20945880.150   -21555776.19149 -16764898.20147  20945879.819    20945885.082
       242.000         209.000
 03  3 23  1 10  0.0000000  0  8G 3G31G14G 9G17G23G15G18
  21744070.553   -21714261.18749 -16886858.09347  21744070.493    21744077.884
       237.000         196.000
  23240953.975    -9363718.64349  -6942217.03145  23240953.633    23240961.079
       217.000         162.000
  21458662.043   -16450628.18349 -12428819.23247  21458661.748    21458667.608
       238.000         198.000
  23649706.849    -5606367.39449  -4357291.16345  23649707.278    23649715.614
       215.000         158.000
  21913829.158   -19988024.30149 -15557649.25546  21913829.382    21913836.620
       229.000         182.000
  22016160.126   -12678707.25149  -9858279.40647  22016159.760    22016166.687
       234.000         194.000
  20296816.095   -26878215.75049 -20912419.28548  20296815.627    20296822.145
       246.000         214.000
  20953393.459   -21516293.43949 -16734132.41247  20953393.218    20953398.767
       241.000         209.000
 03  3 23  1 10 30.0000000  0  8G 3G31G14G 9G17G23G15G18
  21740480.771   -21733126.10049 -16901558.00447  21740480.688    21740487.680
       238.000         196.000
  23228320.207    -9430109.07749  -6993949.75045  23228319.839    23228327.942
       218.000         162.000
  21443480.511   -16530407.45049 -12490984.79647  21443480.078    21443486.021
       238.000         198.000
  23643447.603    -5639260.40649  -4382921.96245  23643447.042    23643456.307
       214.000         158.000
  21924931.317   -19929682.19449 -15512187.88546  21924931.116    21924939.812
       228.000         182.000
  22026373.461   -12625035.58549  -9816457.33147  22026372.789    22026379.765
       235.000         193.000
  20299048.335   -26866485.23749 -20903278.60248  20299047.612    20299054.236
       245.000         213.000
  20960944.807   -21476610.73249 -16703210.81547  20960944.900    20960949.830
       243.000         209.000
 03  3 23  1 11  0.0000000  0  8G 3G31G14G 9G17G23G15G18
  21736997.424   -21751430.65849 -16915821.27447  21736996.830    21737004.094
       236.000         196.000
  23215773.264    -9496043.54849  -7045327.19146  23215773.375    23215780.635
       219.000         163.000
  21428376.966   -16609776.28349 -12552830.54647  21428376.474    21428382.772
       238.000         198.000
  23637280.210    -5671670.25249  -4408176.26545  23637280.581    23637288.486
       216.000         159.000
  21936093.314   -19871025.13749 -15466481.08146  21936093.169    21936101.119
       227.000         182.000
  22036601.397   -12571286.90249  -9774575.25047  22036600.989    22036608.164
       234.000         193.000
  20301351.835   -26854379.83149 -20893845.79548  20301351.217    20301357.926
       246.000         213.000
  20968534.140   -21436728.89949 -16672134.05247  20968533.726    20968539.044
       242.000         209.000
 03  3 23  1 11 30.0000000  0  8G 3G31G14G 9G17G23G15G18
  21733620.864   -21769173.77649 -16929647.05847  21733620.268    21733628.037
       237.000         195.000
  23203313.756    -9561519.38249  -7096347.25946  23203313.520    23203320.309
       218.000         163.000
  21413352.075   -16688732.02449 -12614354.40747  21413351.475    21413357.926
       237.000         198.000
  23631204.965    -5703594.31449  -4433052.02445  23631204.687    23631214.271
       213.000         159.000
  21947315.451   -19812052.20749 -15420528.15746  21947315.150    21947322.905
       227.000         181.000
  22046844.080   -12517461.59949  -9732633.45847  22046843.938    22046850.393
       235.000         193.000
  20303726.986   -26841898.11449 -20884119.76448  20303726.443    20303733.054
       246.000         213.000
  20976161.144   -21396648.41349 -16640902.50047  20976160.866    20976166.259
       242.000         209.000
 03  3 23  1 12  0.0000000  0  8G 3G31G14G 9G17G23G15G18
  21730351.242   -21786355.38649 -16943035.29847  21730351.121    21730358.413
       235.000         195.000
  23190941.733    -9626534.90749  -7147008.62446  23190941.146    23190949.405
       218.000         163.000
  21398406.151   -16767273.20249 -12675555.22547  21398405.742    21398411.742
       239.000         198.000
  23625222.503    -5735030.73949  -4457547.81145  23625221.549    23625231.381
       213.000         157.000
  21958597.549   -19752764.53949 -15374329.97846  21958597.120    21958605.584
       227.000         181.000
  22057101.033   -12463561.07949  -9690633.05247  22057100.857    22057107.521
       234.000         193.000
  20306173.916   -26829039.50449 -20874100.05148  20306173.499    20306179.871
       245.000         213.000
  20983825.706   -21356370.97349 -16609517.47347  20983825.420    20983830.664
       242.000         209.000
 03  3 23  1 12 30.0000000  0  8G 3G31G14G 9G17G23G15G18
  21727188.634   -21802974.79749 -16955985.47247  21727188.490    21727195.693
       236.000         195.000
  23178657.680    -9691087.67449  -7197309.40946  23178657.389    23178664.916
       218.000         164.000
  21383539.605   -16845397.16049 -12736430.94647  21383539.274    21383545.232
       238.000         199.000
  23619333.420    -5765976.92149  -4481661.60145  23619333.326    23619342.221
       213.000         157.000
  21969939.517   -19693161.52349 -15327886.08246  21969939.347    21969947.815
       227.000         180.000
  22067372.245   -12409585.59849  -9648574.23947  22067372.136    22067378.768
       234.000         192.000
  20308692.803   -26815802.76549 -20863785.69748  20308692.235    20308698.813
       245.000         213.000
  20991527.529   -21315897.42549 -16577979.64247  20991527.178    20991532.378
       242.000         209.000
 03  3 23  1 13  0.0000000  0  8G 3G31G14G 9G17G23G15G18
  21724133.080   -21819031.84949 -16968497.43447  21724133.246    21724140.222
       237.000         196.000
  23166461.935    -9755175.83249  -7247248.16346  23166461.742    23166469.041
       219.000         164.000
  21368752.722   -16923102.08549 -12796980.14347  21368752.431    21368758.131
       238.000         199.000
  23613538.111    -5796431.06349  -4505391.98945  23613538.637    23613547.268
       216.000         159.000
  21981341.724   -19633243.06749 -15281196.38246  21981341.684    21981349.696
       227.000         180.000
  22077657.465   -12355536.45649  -9606458.01847  22077656.756    22077664.043
       233.000         192.000
  20311283.688   -26802187.42249 -20853176.32248  20311283.071    20311289.630
       246.000         213.000
  20999266.455   -21275228.86749 -16546289.84247  20999266.111    20999271.541
       242.000         209.000
 03  3 23  1 13 30.0000000  0  8G 3G31G14G 9G17G23G15G18
  21721184.651   -21834526.65149 -16980571.28847  21721184.727    21721191.419
       237.000         196.000
  23154354.996    -9818797.79149  -7296823.64246  23154354.984    23154361.734
       219.000         164.000
  21354045.935   -17000386.46049 -12857201.65247  21354045.752    21354051.332
       238.000         199.000
  23607836.870    -5826391.48149  -4528737.65245  23607837.184    23607845.483
       218.000         160.000
  21992803.840   -19573009.58649 -15234261.20946  21992803.559    21992811.297
       226.000         179.000
  22087956.350   -12301415.13449  -9564285.56347  22087956.156    22087962.973
       233.000         191.000
  20313946.759   -26788192.81549 -20842271.42048  20313946.188    20313952.867
       245.000         213.000
  21007042.215   -21234366.94549 -16514449.37547  21007042.037    21007047.113
       242.000         209.000
 03  3 23  1 14  0.0000000  0  8G 3G31G14G 9G17G23G15G18
  21718343.239   -21849458.32649 -16992206.32947  21718343.024    21718350.061
       236.000         196.000
  23142337.243    -9881951.28849  -7346034.08646  23142337.173    23142344.342
       219.000         165.000
  21339419.628   -17077248.15649 -12917093.79147  21339419.118    21339425.116
       238.000         199.000
  23602230.113    -5855855.61549  -4551696.60045  23602229.297    23602237.539
       217.000         159.000
  22004325.874   -19512460.97649 -15187080.48546  22004325.722    22004333.337
       227.000         179.000
  22098268.851   -12247222.14049  -9522057.25847  22098268.177    22098275.305
       233.000         191.000
  20316682.190   -26773817.84949 -20831070.13948  20316681.554    20316688.197
       246.000         213.000
  21014854.580   -21193312.61649 -16482458.97447  21014854.239    21014859.645
       242.000         208.000
 03  3 23  1 14 30.0000000  0  8G 3G31G14G 9G17G23G15G18
  21715608.874   -21863827.14049 -17003402.78047  21715608.857    21715615.543
       237.000         196.000
  23130409.052    -9944634.65649  -7394878.19946  23130408.431    23130416.633
       219.000         165.000
  21324873.975   -17153685.44349 -12976655.21747  21324873.457    21324879.678
       238.000         199.000
  23596718.032    -5884821.69549  -4574267.45645  23596717.462    23596725.493
       216.000         158.000
  22015907.936   -19451597.39849 -15139654.32946  22015907.904    22015915.558
       226.000         179.000
  22108594.805   -12192958.86149  -9479774.17547  22108594.469    22108601.462
       233.000         191.000
  20319490.070   -26759062.34149 -20819572.32848  20319489.380    20319496.124
       245.000         213.000
  21022703.299   -21152067.55649 -16450319.95147  21022703.195    21022708.200
       242.000         208.000
 03  3 23  1 15  0.0000000  0  8G 3G31G14G 9G17G23G15G18
  21712981.671   -21877633.10349 -17014160.65647  21712981.506    21712988.465
       237.000         196.000
  23118570.387   -10006846.33849  -7443354.76146  23118569.717    23118577.903
       218.000         166.000
  21310409.446   -17229696.59749 -13035884.59647  21310409.131    21310414.826
       240.000         200.000
  23591300.833    -5913288.37649  -4596449.18445  23591300.333    23591310.009
       218.000         158.000
  22027549.591   -19390419.81949 -15091983.49546  22027548.875    22027557.202
       226.000         178.000
  22118933.960   -12138626.53549  -9437437.29847  22118933.441    22118940.394
       234.000         191.000
  20322370.401   -26743925.92649 -20807777.70948  20322369.816    20322376.541
       247.000         213.000
  21030588.022   -21110632.83849 -16418033.14647  21030587.677    21030593.299
       242.000         209.000
 03  3 23  1 15 30.0000000  0  8G 3G31G14G 9G17G23G15G18
  21710462.327   -21890871.85649 -17024476.54947  21710461.990    21710469.183
       236.000         196.000
  23106822.493   -10068580.24349  -7491459.02546  23106821.660    23106830.173
       219.000         166.000
  21296027.181   -17305275.69949 -13094777.31247  21296026.707    21296032.758
       239.000         200.000
  23585979.826    -5941249.33249  -4618236.83645  23585979.466    23585988.892
       217.000         160.000
  22039251.804   -19328923.70849 -15044064.47146  22039251.034    22039259.903
       225.000         178.000
  22129286.792   -12084222.11549  -9395044.23847  22129286.863    22129293.539
       235.000         191.000
  20325324.240   -26728403.49249 -20795682.29948  20325323.881    20325330.395
       246.000         213.000
  21038509.384   -21069005.54749 -16385596.29247  21038509.153    21038514.713
       242.000         209.000
 03  3 23  1 16  0.0000000  0  8G 3G31G14G 9G17G23G15G18
  21708050.273   -21903547.02149 -17034353.27647  21708050.190    21708057.608
       237.000         196.000
  23095165.376   -10129838.46849  -7539192.64546  23095165.640    23095173.105
       220.000         167.000
  21281726.621   -17380424.98149 -13153335.10447  21281726.068    21281732.252
       239.000         201.000
  23580754.820    -5968706.65049  -4639632.05645  23580754.863    23580763.662
       220.000         160.000
  22051013.842   -19267113.57449 -14995900.75646  22051013.151    22051021.947
       225.000         177.000
  22139652.516   -12029750.32749  -9352598.68147  22139652.338    22139658.740
       234.000         191.000
  20328350.826   -26712498.59249 -20783288.85948  20328350.346    20328356.983
       245.000         213.000
  21046466.384   -21027191.05149 -16353013.55447  21046465.975    21046471.403
       241.000         208.000
 03  3 23  1 16 30.0000000  0  8G 3G31G14G 9G17G23G15G18
  21705745.614   -21915658.11049 -17043790.47047  21705745.685    21705752.890
       237.000         196.000
  23083599.300   -10190618.78249  -7586553.85246  23083599.437    23083607.293
       220.000         168.000
  21267508.421   -17455142.05249 -13211556.11247  21267508.140    21267514.208
       240.000         202.000
  23575626.277    -5995658.02649  -4660633.01645  23575626.553    23575634.833
       220.000         160.000
  22062835.814   -19204988.47049 -14947491.58946  22062835.197    22062844.012
       224.000         177.000
  22150030.879   -11975211.66849  -9310101.01647  22150030.493    22150037.378
       234.000         191.000
  20331450.362   -26696210.15049 -20770596.55347  20331449.810    20331456.324
       245.000         212.000
  21054458.889   -20985190.02849 -16320285.46947  21054458.622    21054463.948
       241.000         208.000
 03  3 23  1 17  0.0000000  0  8G 3G31G14G 9G17G23G15G18
  21703548.321   -21927204.92049 -17052787.97047  21703548.236    21703554.938
       236.000         196.000
  23072124.482   -10250919.26449  -7633541.17046  23072124.640    23072132.159
       221.000         169.000
  21253372.765   -17529425.07749 -13269438.90047  21253372.506    21253378.070
       239.000         202.000
  23570594.312    -6022101.47849  -4681238.19845  23570594.387    23570601.574
       220.000         159.000
  22074717.570   -19142549.03149 -14898837.49446  22074716.722    22074725.690
       225.000         177.000
  22160421.788   -11920607.11549  -9267552.00847  22160421.509    22160428.319
       234.000         191.000
  20334623.056   -26679537.41149 -20757604.80147  20334622.544    20334629.174
       245.000         212.000
  21062486.670   -20943003.75049 -16287413.02847  21062486.524    21062491.661
       242.000         208.000
 03  3 23  1 17 30.0000000  0  8G 3G31G14G 9G17G23G15G18
  21701458.558   -21938186.71349 -17061345.19647  21701458.293    21701465.387
       237.000         196.000
  23060741.407   -10310737.73649  -7680152.88846  23060740.861    23060748.682
       220.000         169.000
  21239320.103   -17603271.98349 -13326981.85147  21239319.885    21239325.192
       240.000         202.000
  23565659.276    -6048034.41549  -4701445.56945  23565659.084    23565667.497
       218.000         158.000
  22086659.297   -19079794.70249 -14849938.02846  22086658.295    22086666.871
       224.000         176.000
  22170825.076   -11865937.22849  -9224952.08747  22170824.877    22170831.841
       234.000         192.000
  20337869.136   -26662479.10149 -20744312.59647  20337868.756    20337875.421
       245.000         212.000
  21070549.618   -20900632.75249 -16254396.64047  21070549.352    21070554.450
       242.000         208.000
 03  3 23  1 18  0.0000000  0  8G 3G31G14G 9G17G23G15G18
  21699476.415   -21948602.87749 -17069461.66947  21699476.425    21699483.390
       236.000         196.000
  23049450.488   -10370071.46549  -7726386.89846  23049450.018    23049456.679
       220.000         168.000
  21225351.014   -17676679.87349 -13384182.71547  21225350.815    21225356.392
       240.000         203.000
  23560821.817    -6073454.25049  -4721253.14145  23560820.973    23560830.272
       218.000         158.000
  22098660.936   -19016725.28949 -14800793.03746  22098660.516    22098668.898
       224.000         175.000
  22181240.872   -11811202.04449  -9182301.28947  22181240.237    22181247.637
       233.000         191.000
  20341188.876   -26645033.72249 -20730718.77547  20341188.388    20341195.159
       245.000         212.000
  21078647.626   -20858077.37949 -16221236.59047  21078647.496    21078652.655
       242.000         208.000
 03  3 23  1 18 30.0000000  0  8G 3G31G14G 9G17G23G15G18
  21697601.806   -21958453.79649 -17077137.68747  21697601.493    21697608.552
       237.000         196.000
  23038252.174   -10428919.24649  -7772242.24346  23038251.930    23038258.945
       221.000         167.000
  21211465.642   -17749647.59049 -13441040.58647  21211464.998    21211471.260
       240.000         203.000
  23556082.435    -6098359.79749  -4740659.94245  23556081.494    23556091.053
       216.000         158.000
  22110722.597   -18953341.00949 -14751402.71546  22110723.085    22110730.669
       225.000         175.000
  22191668.607   -11756403.11449  -9139600.81247  22191668.128    22191674.743
       233.000         190.000
  20344582.261   -26627201.28849 -20716823.35547  20344581.769    20344588.389
       245.000         212.000
  21086780.455   -20815339.35349 -16187934.22147  21086780.176    21086785.624
       242.000         208.000
 03  3 23  1 19  0.0000000  0  8G 3G31G14G 9G17G23G15G18
  21695834.775   -21967739.81149 -17084373.52047  21695834.876    21695841.528
       239.000         196.000
  23027146.595   -10487279.51649  -7817717.71946  23027145.699    23027154.193
       223.000         167.000
  21197664.363   -17822173.59149 -13497554.27047  21197663.963    21197669.783
       242.000         204.000
  23551441.079    -6122749.59149  -4759664.85145  23551440.977    23551448.812
       218.000         158.000
  22122844.171   -18889642.69949 -14701767.68446  22122844.354    22122851.499
       227.000         176.000
  22202108.374   -11701541.55349  -9096851.53647  22202108.220    22202115.607
       236.000         190.000
  20348049.389   -26608981.36149 -20702625.99147  20348048.719    20348055.251
       247.000         212.000
  21094947.660   -20772420.17249 -16154490.69747  21094947.272    21094952.577
       243.000         208.000
 03  3 23  1 19 30.0000000  0  8G 3G31G14G 9G17G23G15G18
  21694175.301   -21976460.48249 -17091168.83747  21694175.075    21694182.025
       237.000         196.000
  23016134.185   -10545150.10149  -7862811.60746  23016133.632    23016140.732
       221.000         168.000
  21183947.545   -17894255.74149 -13553722.09747  21183947.139    21183952.853
       240.000         204.000
  23546898.337    -6146621.44949  -4778266.16845  23546897.502    23546905.617
       217.000         156.000
  22135025.532   -18825630.09349 -14651887.74446  22135025.281    22135033.881
       224.000         175.000
  22212560.067   -11646617.91149  -9054053.88747  22212559.915    22212566.729
       233.000         190.000
  20351590.469   -26590372.83349 -20688125.82647  20351589.868    20351596.270
       245.000         212.000
  21103149.232   -20729320.67649 -16120906.66547  21103149.024    21103154.121
       242.000         207.000
 03  3 23  1 20  0.0000000  0  8G 3G31G14G 9G17G23G15G18
  21692623.451   -21984615.09949 -17097523.05947  21692623.409    21692629.793
       236.000         196.000
  23005215.269   -10602528.71649  -7907522.14446  23005214.741    23005222.132
       221.000         168.000
  21170315.473   -17965891.82849 -13609542.33847  21170314.676    21170320.763
       240.000         204.000
  23542454.572    -6169973.05449  -4796462.08845  23542454.128    23542462.509
       217.000         156.000
  22147266.556   -18761302.68049 -14601762.50246  22147266.556    22147274.447
       223.000         175.000
  22223023.442   -11591632.48149  -9011208.08947  22223023.511    22223029.565
       233.000         190.000
  20355205.678   -26571374.61149 -20673321.99647  20355205.335    20355211.583
       246.000         212.000
  21111384.983   -20686041.40549 -16087182.54047  21111384.473    21111390.051
       241.000         206.000
 03  3 23  1 20 30.0000000  0  8G 3G31G14G 9G17G23G15G18
  21691179.331   -21992203.77849 -17103436.30047  21691179.369    21691186.531
       238.000         197.000
  22994390.454   -10659413.72749  -7951848.07146  22994389.925    22994397.877
       221.000         168.000
  21156768.717   -18037080.06749 -13665013.61147  21156768.374    21156774.127
       240.000         204.000
  23538110.161    -6192802.61349  -4814251.23545  23538109.386    23538118.292
       216.000         157.000
  22159567.533   -18696660.77549 -14551392.20046  22159567.011    22159575.952
       222.000         175.000
  22233498.369   -11536586.15849  -8968314.82947  22233497.810    22233504.793
       232.000         189.000
  20358895.281   -26551985.80249 -20658213.82347  20358894.850    20358901.446
       245.000         212.000
  21119654.673   -20642583.36249 -16053319.12547  21119654.398    21119659.727
       240.000         206.000
 03  3 23  1 21  0.0000000  0  8G 3G31G14G 9G17G23G15G18
  21689842.901   -21999227.11949 -17108909.00547  21689842.954    21689849.925
       237.000         197.000
  22983659.761   -10715803.70949  -7995788.24246  22983659.334    22983666.874
       220.000         168.000
  21143307.453   -18107819.22249 -13720134.94547  21143306.943    21143312.765
       240.000         204.000
  23533865.292    -6215108.95049  -4831632.67045  23533864.834    23533873.577
       215.000         157.000
  22171928.165   -18631704.84949 -14500777.19946  22171927.754    22171936.426
       221.000         174.000
  22243984.629   -11481480.33949  -8925375.21447  22243984.520    22243991.336
       232.000         189.000
  20362659.149   -26532206.37749 -20642801.26847  20362658.685    20362665.287
       245.000         212.000
  21127958.141   -20598948.13549 -16019317.64047  21127957.899    21127963.175
       241.000         206.000
 03  3 23  1 21 30.0000000  0  8G 3G31G14G 9G17G23G15G18
  21688614.116   -22005684.09949 -17113940.40247  21688613.625    21688620.625
       236.000         197.000
  22973023.646   -10771696.17349  -8039340.74146  22973022.997    22973030.549
       221.000         169.000
  21129932.088   -18178106.75349 -13774904.37347  21129931.403    21129937.359
       240.000         204.000
  23529720.536    -6236889.18949  -4848604.17645  23529720.324    23529729.028
       215.000         155.000
  22184348.542   -18566434.93749 -14449917.54946  22184348.575    22184356.536
       221.000         173.000
  22254482.276   -11426314.86649  -8882389.12247  22254482.502    22254488.788
       232.000         189.000
  20366497.642   -26512034.73849 -20627083.09347  20366497.107    20366503.717
       245.000         212.000
  21136295.287   -20555136.10649 -15985178.39547  21136295.127    21136300.483
       242.000         206.000
 03  3 23  1 22  0.0000000  0  8G 3G31G14G 9G17G23G15G18
  21687492.967   -22011575.09049 -17118530.76047  21687492.611    21687499.807
       236.000         196.000
  22962482.611   -10827089.42049  -8082504.25046  22962482.684    22962489.257
       222.000         170.000
  21116643.019   -18247941.13749 -13829320.69047  21116642.473    21116648.606
       240.000         205.000
  23525676.084    -6258142.05749  -4865164.74245  23525675.254    23525683.367
       214.000         154.000
  22196828.898   -18500850.72049 -14398812.98746  22196828.845    22196837.155
       221.000         173.000
  22264991.065   -11371090.73449  -8839357.30247  22264990.948    22264997.466
       233.000         188.000
  20370410.818   -26491470.63949 -20611059.10747  20370410.358    20370417.097
       244.000         212.000
  21144665.976   -20511148.23249 -15950902.12147  21144665.752    21144671.204
       241.000         206.000
 03  3 23  1 22 30.0000000  0  8G 3G31G14G 9G17G23G15G18
  21686479.540   -22016900.68449 -17122680.55847  21686479.523    21686486.459
       237.000         197.000
  22952036.859   -10881982.36149  -8125277.91146  22952035.906    22952043.154
       222.000         170.000
  21103440.349   -18317321.13249 -13883382.94547  21103439.823    21103445.879
       240.000         205.000
  23521732.089    -6278866.22649  -4881313.33845  23521731.694    23521739.913
       214.000         153.000
  22209368.946   -18434952.61649 -14347463.82446  22209368.564    22209377.483
       220.000         172.000
  22275510.853   -11315809.16449  -8796280.73547  22275510.185    22275516.988
       232.000         188.000
  20374398.771   -26470513.85149 -20594729.12448  20374398.437    20374404.884
       244.000         213.000
  21153069.720   -20466986.05049 -15916490.02947  21153069.475    21153074.772
       240.000         206.000
 03  3 23  1 23  0.0000000  0  8G 3G31G14G 9G17G23G15G18
  21685573.987   -22021659.83049 -17126388.96647  21685574.119    21685580.968
       236.000         197.000
  22941686.790   -10936372.26049  -8167659.60046  22941686.921    22941693.854
       223.000         171.000
  21090324.672   -18386243.97449 -13937088.97547  21090324.292    21090330.142
       240.000         205.000
  23517889.482    -6299058.97849  -4897047.83845  23517889.164    23517897.114
       214.000         154.000
  22221968.659   -18368740.15149 -14295869.70446  22221968.481    22221976.066
       221.000         172.000
  22286041.443   -11260470.09449  -8753159.37147  22286041.265    22286047.587
       232.000         188.000
  20378461.722   -26449163.00249 -20578092.07848  20378461.015    20378467.915
       243.000         213.000
  21161506.649   -20422649.74849 -15881942.25847  21161506.504    21161511.802
       241.000         206.000
 03  3 23  1 23 30.0000000  0  8G 3G31G14G 9G17G23G15G18
  21684775.710   -22025854.29449 -17129657.35347  21684775.412    21684782.490
       236.000         197.000
  22931432.559   -10990258.87349  -8209649.11946  22931431.620    22931439.365
       221.000         171.000
  21077296.119   -18454709.38149 -13990438.56947  21077295.732    21077301.355
       240.000         206.000
  23514147.973    -6318719.95749  -4912367.98145  23514148.144    23514155.992
       215.000         156.000
  22234627.886   -18302215.49049 -14244032.31046  22234627.907    22234635.904
       222.000         172.000
  22296582.700   -11205075.64749  -8709994.85947  22296582.267    22296589.194
       232.000         188.000
  20382599.468   -26427418.59049 -20561148.36247  20382598.930    20382605.776
       243.000         212.000
  21169976.226   -20378141.90949 -15847260.82447  21169976.270    21169981.068
       241.000         206.000
 03  3 23  1 24  0.0000000  0  8G 3G31G14G 9G17G23G15G18
  21684084.938   -22029483.94449 -17132485.63147  21684085.050    21684091.850
       237.000         197.000
  22921274.148   -11043640.50649  -8251245.13446  22921273.273    22921280.757
       223.000         171.000
  21064354.865   -18522715.78449 -14043430.49147  21064354.351    21064360.112
       242.000         206.000
  23510508.191    -6337847.53849  -4927272.48345  23510509.353    23510516.106
       217.000         158.000
  22247346.661   -18235378.09949 -14191951.23346  22247346.183    22247353.979
       222.000         173.000
  22307134.275   -11149626.59549  -8666787.79947  22307133.913    22307140.808
       232.000         188.000
  20386812.250   -26405280.12049 -20543897.59147  20386811.614    20386818.091
       245.000         212.000
  21178478.291   -20333463.51249 -15812446.48447  21178477.905    21178483.336
       242.000         205.000
 03  3 23  1 24 30.0000000  0  8G 3G31G14G 9G17G23G15G18
  21683501.912   -22032548.17749 -17134873.32547  21683502.014    21683508.947
       237.000         197.000
  22911212.483   -11096514.47849  -8292445.58446  22911212.478    22911219.311
       223.000         171.000
  21051501.464   -18590260.51849 -14096062.67047  21051501.199    21051506.945
       240.000         206.000
  23506970.372    -6356439.28749  -4941759.46045  23506970.543    23506977.737
       217.000         158.000
  22260124.901   -18168227.47949 -14139626.08146  22260124.626    22260133.051
       222.000         172.000
  22317696.265   -11094122.74249  -8623538.03847  22317695.781    22317703.308
       232.000         188.000
  20391100.373   -26382745.89149 -20526338.43847  20391099.965    20391106.255
       243.000         212.000
  21187012.816   -20288614.52749 -15777499.22347  21187012.876    21187017.698
       242.000         206.000
 03  3 23  1 25  0.0000000  0  8G 3G31G14G 9G17G23G15G18
  21683026.294   -22035047.22149 -17136820.60647  21683026.423    21683033.374
       237.000         198.000
  22901247.975   -11148879.22349  -8333249.23346  22901248.096    22901254.343
       222.000         171.000
  21038736.125   -18657341.93149 -14148333.82647  21038735.766    21038741.535
       240.000         206.000
  23503534.650    -6374493.62349  -4955827.68245  23503534.322    23503541.642
       217.000         157.000
  22272962.821   -18100764.35849 -14087057.43146  22272962.699    22272971.341
       222.000         174.000
  22328268.652   -11038564.90649  -8580246.21747  22328268.471    22328274.843
       231.000         188.000
  20395463.850   -26359815.53149 -20508470.61547  20395463.355    20395470.003
       243.000         212.000
  21195579.589   -20243595.98449 -15742419.82547  21195579.536    21195584.168
       241.000         206.000
 03  3 23  1 25 30.0000000  0  8G 3G31G14G 9G17G23G15G18
  21682658.266   -22036981.14049 -17138327.53947  21682658.608    21682665.684
       238.000         198.000
  22891380.358   -11200733.19949  -8373654.88546  22891379.438    22891387.743
       222.000         171.000
  21026059.397   -18723958.47549 -14200242.74447  21026059.072    21026064.689
       241.000         206.000
  23500201.435    -6392008.88649  -4969475.85045  23500201.499    23500207.816
       218.000         156.000
  22285860.114   -18032988.95349 -14034245.43746  22285859.171    22285868.198
       222.000         174.000
  22338851.000   -10982953.82949  -8536912.89546  22338850.695    22338857.227
       231.000         187.000
  20399902.809   -26336488.50849 -20490293.69947  20399902.471    20399908.981
       244.000         212.000
  21204178.413   -20198408.95149 -15707209.13647  21204178.093    21204183.415
       240.000         205.000
 03  3 23  1 26  0.0000000  0  8G 3G31G14G 9G17G23G15G18
  21682397.796   -22038350.47649 -17139394.54147  21682397.788    21682404.705
       237.000         198.000
  22881610.186   -11252074.86249  -8413661.32346  22881609.561    22881617.101
       223.000         172.000
  21013471.347   -18790108.68849 -14251788.28947  21013470.907    21013476.578
       241.000         206.000
  23496971.220    -6408983.84249  -4982702.98545  23496970.606    23496978.640
       218.000         156.000
  22298816.735   -17964901.57249 -13981190.35646  22298817.040    22298824.877
       222.000         174.000
  22349443.391   -10927290.43649  -8493538.82746  22349442.903    22349449.857
       231.000         187.000
  20404417.397   -26312764.37249 -20471807.34448  20404417.046    20404423.194
       244.000         213.000
  21212808.960   -20153054.71149 -15671868.16147  21212808.458    21212814.078
       240.000         204.000
 03  3 23  1 26 30.0000000  0  8G 3G31G14G 9G17G23G15G18
  21682244.481   -22039155.81049 -17140022.05347  21682244.325    21682251.195
       237.000         198.000
  22871937.862   -11302903.00749  -8453267.61946  22871937.597    22871945.091
       223.000         174.000
  21000972.368   -18855791.34449 -14302969.50647  21000972.020    21000977.697
       241.000         207.000
  23493843.948    -6425417.09549  -4995508.02045  23493844.010    23493851.773
       218.000         156.000
  22311832.664   -17896502.20649 -13927892.16446  22311832.500    22311839.841
       223.000         173.000
  22360045.450   -10871575.80149  -8450124.83146  22360045.303    22360052.276
       230.000         187.000
  20409007.657   -26288642.52949 -20453011.09347  20409007.258    20409013.466
       244.000         212.000
  21221471.072   -20107534.46549 -15636397.83147  21221470.752    21221476.164
       241.000         204.000
 03  3 23  1 27  0.0000000  0  8G 3G31G14G 9G17G23G15G18
  21682198.842   -22039395.66049 -17140208.92647  21682198.906    21682205.687
       237.000         198.000
  22862363.908   -11353214.41649  -8492471.26146  22862364.175    22862371.254
       224.000         175.000
  20988562.887   -18921003.27049 -14353783.91847  20988562.321    20988568.037
       242.000         207.000
  23490820.248    -6441305.64349  -5007888.64745  23490819.734    23490828.509
       216.000         156.000
  22324908.198   -17827790.62349 -13874350.69046  22324908.547    22324915.498
       224.000         173.000
  22370657.544   -10815808.92449  -8406670.13046  22370657.626    22370664.364
       230.000         187.000
  20413673.981   -26264120.96449 -20433903.35747  20413673.588    20413679.743
       243.000         212.000
  21230165.012   -20061847.61449 -15600797.66847  21230164.913    21230170.220
       242.000         205.000
 03  3 23  1 27 30.0000000  0  8G 3G31G14G 9G17G23G15G18
  21682260.932   -22039069.57649 -17139954.82647  21682261.023    21682267.903
       237.000         198.000
  22852888.829   -11403006.69949  -8531270.39446  22852888.305    22852895.851
       224.000         174.000
  20976243.435   -18985741.88849 -14404229.53247  20976243.249    20976248.543
       241.000         207.000
  23487900.849    -6456647.06449  -5019842.92745  23487901.704    23487908.662
       217.000         157.000
  22338043.347   -17758765.60349 -13820564.98746  22338043.234    22338051.161
       222.000         173.000
  22381279.570   -10759989.61149  -8363174.56946  22381279.363    22381286.394
       230.000         187.000
  20418416.516   -26239198.44649 -20414483.20047  20418416.035    20418422.381
       243.000         212.000
  21238890.647   -20015994.41149 -15565067.89847  21238890.642    21238895.650
       241.000         206.000
 03  3 23  1 28  0.0000000  0  8G 3G31G14G 9G17G23G15G18
  21682429.542   -22038183.44049 -17139264.30547  21682429.716    21682436.009
       237.000         198.000
  22843511.632   -11452283.68649  -8569667.98046  22843511.696    22843518.140
       223.000         173.000
  20964013.443   -19050011.11649 -14454309.36447  20964013.246    20964018.666
       242.000         207.000
  23485084.808    -6471445.33649  -5031373.97545  23485084.165    23485093.104
       215.000         158.000
  22351236.860   -17689432.78049 -13766539.42446  22351236.501    22351243.827
       221.000         172.000
  22391910.503   -10704124.02649  -8319642.93946  22391910.183    22391917.653
       231.000         187.000
  20423234.573   -26213879.61249 -20394754.22147  20423234.149    20423240.765
       243.000         212.000
  21247646.723   -19969981.00949 -15529213.28547  21247646.650    21247651.838
       241.000         205.000
 03  3 23  1 28 30.0000000  0  8G 3G31G14G 9G17G23G15G18
  21682705.497   -22036733.05849 -17138134.12147  21682705.345    21682712.442
       237.000         198.000
  22834233.610   -11501039.64549  -8607659.58546  22834233.449    22834240.563
       224.000         173.000
  20951873.849   -19113805.29749 -14504019.03847  20951873.360    20951878.823
       241.000         207.000
  23482373.083    -6485694.74349  -5042477.33045  23482372.782    23482380.656
       215.000         157.000
  22364489.573   -17619788.63749 -13712271.26946  22364488.976    22364498.068
       219.000         170.000
  22402550.893   -10648208.48349  -8276072.39146  22402550.627    22402557.650
       231.000         187.000
  20428128.855   -26188159.83149 -20374712.81947  20428128.321    20428134.976
       243.000         212.000
  21256433.856   -19923804.11449 -15493231.27547  21256433.237    21256438.876
       240.000         205.000
 03  3 23  1 29  0.0000000  0  8G 3G31G14G 9G17G23G15G18
  21683088.744   -22034719.09849 -17136564.78647  21683088.330    21683095.740
       237.000         198.000
  22825055.052   -11549273.45049  -8645244.31246  22825054.104    22825062.316
       224.000         174.000
  20939824.702   -19177123.36249 -14553357.71747  20939824.281    20939829.766
       242.000         208.000
  23479766.111    -6499394.19749  -5053152.14945  23479766.026    23479774.120
       220.000         157.000
  22377801.520   -17549833.35349 -13657760.69146  22377801.081    22377809.527
       218.000         168.000
  22413200.634   -10592244.04849  -8232463.74446  22413200.334    22413206.405
       232.000         187.000
  20433099.434   -26162039.02749 -20354358.93947  20433098.880    20433105.519
       243.000         212.000
  21265251.819   -19877465.15049 -15457122.97847  21265251.243    21265256.809
       240.000         204.000
 03  3 23  1 29 30.0000000  0  8G 3G31G14G 9G17G23G15G18
  21683578.985   -22032142.67549 -17134557.16947  21683578.761    21683586.123
       236.000         198.000
  22815975.892   -11596984.19149  -8682421.45146  22815975.369    22815982.874
       224.000         173.000
  20927866.449   -19239964.20049 -14602324.52847  20927866.100    20927871.093
       241.000         208.000
  23477263.960    -6512542.95549  -5063397.85145  23477263.749    23477272.136
       218.000         158.000
  22391172.543   -17479567.88849 -13603008.40446  22391171.914    22391180.347
       218.000         168.000
  22423859.368   -10536232.09749  -8188818.06546  22423859.215    22423866.099
       230.000         187.000
  20438146.373   -26135517.14449 -20333692.52447  20438145.826    20438152.387
       242.000         211.000
  21274100.322   -19830965.45349 -15420889.44347  21274100.187    21274105.247
       240.000         204.000
 03  3 23  1 30  0.0000000  0  8G 3G31G14G 9G17G23G15G18
  21684176.183   -22029004.12149 -17132111.52847  21684175.738    21684183.070
       236.000         198.000
  22806996.677   -11644169.94949  -8719189.51746  22806996.465    22807003.455
       225.000         173.000
  20915999.281   -19302325.93549 -14650918.02047  20915998.755    20916004.246
       241.000         208.000
  23474866.959    -6525139.37049  -5073213.17345  23474866.818    23474874.440
       217.000         159.000
  22404602.678   -17408992.49749 -13548014.61346  22404602.407    22404610.802
       219.000         168.000
  22434527.131   -10480172.59949  -8145135.34246  22434526.850    22434533.947
       230.000         186.000
  20443269.792   -26108593.25049 -20312712.85447  20443269.189    20443275.812
       242.000         211.000
  21282979.380   -19784305.84749 -15384531.29947  21282979.230    21282984.156
       240.000         204.000
 03  3 23  1 30 30.0000000  0  8G 3G31G14G 9G17G23G15G18
  21684880.163   -22025304.39349 -17129228.59947  21684880.040    21684887.299
       237.000         198.000
  22798117.626   -11690830.00349  -8755547.94146  22798117.062    22798124.149
       226.000         174.000
  20904223.518   -19364207.68749 -14699137.49147  20904223.147    20904228.765
       242.000         208.000
  23472575.259    -6537182.55149  -5082597.43345  23472575.144    23472582.657
       218.000         159.000
  22418091.584   -17338108.30149 -13492780.19646  22418091.088    22418100.173
       219.000         168.000
  22445203.717   -10424066.99449  -8101416.68546  22445203.359    22445210.674
       230.000         186.000
  20448469.706   -26081267.58349 -20291420.10947  20448469.029    20448475.660
       242.000         211.000
  21291888.558   -19737487.91549 -15348049.78147  21291888.462    21291893.366
       241.000         203.000
 03  3 23  1 31  0.0000000  0  8G 3G31G14G 9G17G23G15G18
  21685691.074   -22021043.15649 -17125908.14247  21685690.979    21685698.285
       237.000         198.000
  22789338.899   -11736962.32749  -8791495.12246  22789338.479    22789346.050
       224.000         173.000
  20892539.474   -19425607.80949 -14746981.67947  20892539.096    20892544.340
       241.000         208.000
  23470389.119    -6548670.49949  -5091549.01745  23470388.728    23470396.677
       218.000         161.000
  22431639.321   -17266914.65149 -13437304.65246  22431639.879    22431647.778
       219.000         168.000
  22455888.998   -10367915.33249  -8057662.14546  22455888.532    22455895.782
       228.000         185.000
  20453746.253   -26053538.84449 -20269813.28947  20453745.527    20453752.341
       242.000         211.000
  21300827.835   -19690511.85049 -15311445.04947  21300827.464    21300832.628
       240.000         203.000
 03  3 23  1 31 30.0000000  0  8G 3G31G14G 9G17G23G15G18
  21686608.747   -22016221.13249 -17122150.70247  21686608.733    21686615.387
       237.000         198.000
  22780660.747   -11782565.65849  -8827030.11846  22780660.297    22780667.507
       225.000         173.000
  20880947.241   -19486524.75749 -14794449.36647  20880946.631    20880952.126
       240.000         208.000
  23468308.858    -6559602.29349  -5100067.22345  23468308.588    23468317.007
       218.000         162.000
  22445245.770   -17195412.31549 -13381588.55846  22445245.570    22445254.088
       219.000         168.000
  22466582.809   -10311718.39349  -8013872.32246  22466581.949    22466589.952
       227.000         184.000
  20459099.514   -26025406.82349 -20247892.22547  20459098.981    20459105.791
       243.000         211.000
  21309796.906   -19643378.85649 -15274718.03547  21309796.415    21309801.862
       240.000         203.000
 03  3 23  1 32  0.0000000  0  8G 3G31G14G 9G17G23G15G18
  21687633.003   -22010838.55949 -17117956.47447  21687632.794    21687639.791
       237.000         198.000
  22772083.747   -11827638.36749  -8862151.66046  22772083.265    22772089.855
       225.000         173.000
  20869447.270   -19546956.80549 -14841539.20647  20869446.893    20869452.479
       240.000         208.000
  23466334.571    -6569976.33349  -5108150.82345  23466334.215    23466342.381
       215.000         160.000
  22458910.990   -17123601.63549 -13325632.20346  22458910.770    22458918.693
       218.000         168.000
  22477285.198   -10255476.47949  -7970047.45346  22477284.450    22477291.891
       228.000         183.000
  20464529.725   -25996870.92349 -20225656.44447  20464529.271    20464536.002
       243.000         212.000
  21318795.702   -19596089.49749 -15237869.17847  21318795.495    21318800.684
       240.000         203.000
 03  3 23  1 32 30.0000000  0  8G 3G31G14G 9G17G23G15G18
  21688763.718   -22004896.09849 -17113325.96447  21688763.491    21688770.894
       237.000         198.000
  22763607.996   -11872179.08449  -8896858.65046  22763607.892    22763614.401
       225.000         173.000
  20858039.876   -19606902.83249 -14888250.32847  20858039.610    20858045.114
       241.000         209.000
  23464466.611    -6579791.38749  -5115798.85945  23464465.998    23464474.747
       213.000         158.000
  22472634.846   -17051482.60349 -13269435.56846  22472634.969    22472642.699
       220.000         168.000
  22487996.047   -10199190.30449  -7926188.08446  22487995.824    22488002.501
       228.000         183.000
  20470036.829   -25967930.84149 -20203105.72147  20470036.429    20470042.928
       243.000         212.000
  21327824.163   -19548644.66549 -15200899.16947  21327824.075    21327829.348
       240.000         203.000
 03  3 23  1 33  0.0000000  0  8G 3G31G14G 9G17G23G15G18
  21690000.971   -21998393.98449 -17108259.36047  21690000.885    21690008.074
       237.000         198.000
  22755233.673   -11916186.15649  -8931149.81146  22755232.800    22755239.942
       223.000         173.000
  20846725.282   -19666360.96949 -14934581.27747  20846725.023    20846730.396
       241.000         209.000
  23462705.251    -6589045.89249  -5123010.09945  23462705.587    23462713.093
       214.000         157.000
  22486417.339   -16979055.03249 -13212998.52146  22486416.937    22486425.448
       217.000         168.000
  22498715.275   -10142860.00549  -7882294.33546  22498714.694    22498722.244
       228.000         182.000
  20475621.121   -25938585.62349 -20180239.30547  20475620.753    20475627.128
       243.000         212.000
  21336882.077   -19501045.08849 -15163808.58247  21336881.824    21336887.071
       240.000         203.000
 03  3 23  1 33 30.0000000  0  8G 3G31G14G 9G17G23G15G18
  21691344.761   -21991332.73349 -17102757.07347  21691344.585    21691351.629
       237.000         198.000
  22746960.877   -11959658.38249  -8965024.20746  22746960.027    22746966.944
       223.000         172.000
  20835503.828   -19725330.10849 -14980531.18547  20835503.431    20835508.876
       242.000         209.000
  23461051.003    -6597738.75749  -5129783.69345  23461051.062    23461059.475
       215.000         158.000
  22500258.248   -16906320.22349 -13156322.06046  22500257.576    22500266.536
       217.000         168.000
  22509442.804   -10086486.30649  -7838366.76746  22509442.048    22509449.314
       228.000         182.000
  20481282.478   -25908834.87449 -20157056.89247  20481281.914    20481288.567
       243.000         211.000
  21345969.291   -19453291.58649 -15126598.05047  21345969.163    21345974.223
       240.000         204.000
 03  3 23  1 34  0.0000000  0  8G 3G31G14G 9G17G23G15G18
  21692794.637   -21983713.32249 -17096819.84947  21692794.621    21692801.772
       238.000         198.000
  22738790.179   -12002594.68449  -8998481.01946  22738790.083    22738797.500
       225.000         173.000
  20824375.558   -19783809.22149 -15026099.26047  20824375.225    20824380.494
       242.000         209.000
  23459503.965    -6605868.97149  -5136118.84945  23459504.073    23459511.868
       214.000         158.000
  22514157.619   -16833278.49349 -13099406.44346  22514156.824    22514165.628
       218.000         168.000
  22520178.384   -10030070.14749  -7794406.11746  22520178.215    22520185.368
       227.000         182.000
  20487021.021   -25878678.52249 -20133558.42747  20487020.331    20487027.179
       243.000         211.000
  21355085.481   -19405385.37349 -15089268.52647  21355084.922    21355090.709
       239.000         203.000
 03  3 23  1 34 30.0000000  0  8G 3G31G14G 9G17G23G15G18
  21694350.593   -21975537.07249 -17090448.73347  21694350.514    21694357.855
       238.000         199.000
  22730721.834   -12044994.42949  -9031519.73846  22730721.469    22730728.860
       225.000         175.000
  20813340.697   -19841797.29149 -15071284.70547  20813340.434    20813345.852
       242.000         209.000
  23458064.029    -6613435.94249  -5142015.12445  23458063.810    23458071.736
       211.000         155.000
  22528115.109   -16759930.96049 -13042252.52546  22528114.291    22528122.541
       217.000         167.000
  22530921.803    -9973612.65549  -7750413.26446  22530921.308    22530928.549
       228.000         182.000
  20492836.749   -25848116.73049 -20109744.03347  20492836.395    20492842.799
       243.000         211.000
  21364230.390   -19357327.93249 -15051821.17047  21364229.881    21364235.404
       238.000         202.000
 03  3 23  1 35  0.0000000  0  8G 3G31G14G 9G17G23G15G18
  21696012.479   -21966803.89649 -17083643.64547  21696012.473    21696019.745
       237.000         199.000
  22722755.766   -12086855.64349  -9064138.81446  22722755.983    22722762.778
       223.000         175.000
  20802399.681   -19899292.62549 -15116086.19547  20802399.449    20802404.888
       243.000         210.000
  23456731.362    -6620438.11249  -5147471.29245  23456730.603    23456738.697
       211.000         153.000
  22542130.750   -16686277.67749 -12984860.34646  22542130.578    22542138.769
       217.000         166.000
  22541673.214    -9917113.69049  -7706388.08246  22541672.945    22541680.429
       229.000         182.000
  20498729.812   -25817148.36249 -20085612.81947  20498729.085    20498735.889
       243.000         211.000
  21373404.085   -19309119.46049 -15014256.12047  21373403.591    21373409.258
       239.000         202.000
 03  3 23  1 35 30.0000000  0  8G 3G31G14G 9G17G23G15G18
  21697780.204   -21957513.91449 -17076404.68747  21697780.259    21697786.998
       237.000         198.000
  22714892.563   -12128176.55949  -9096336.88746  22714892.127    22714899.602
       226.000         174.000
  20791552.783   -19956293.39049 -15160502.31047  20791552.328    20791558.239
       242.000         210.000
  23455506.683    -6626873.70749  -5152485.95545  23455507.240    23455513.813
       215.000         155.000
  22556204.690   -16612318.37449 -12927229.72646  22556204.604    22556211.817
       218.000         166.000
  22552432.565    -9860573.25049  -7662330.59046  22552431.567    22552438.985
       229.000         182.000
  20504700.346   -25785772.64549 -20061164.19347  20504699.662    20504706.280
       242.000         210.000
  21382606.497   -19260760.43249 -14976573.74747  21382606.140    21382611.786
       238.000         202.000
 03  3 23  1 36  0.0000000  0  8G 3G31G14G 9G17G23G15G18
  21699653.540   -21947669.37449 -17068733.60447  21699653.243    21699660.765
       237.000         198.000
  22707132.336   -12168957.44049  -9128114.15646  22707132.030    22707139.131
       225.000         174.000
  20780799.913   -20012799.75449 -15204533.18047  20780799.582    20780804.910
       243.000         210.000
  23454389.825    -6632743.07449  -5157059.40545  23454390.214    23454397.225
       216.000         158.000
  22570336.686   -16538054.41449 -12869361.71446  22570336.371    22570345.190
       218.000         166.000
  22563199.332    -9803993.45949  -7618242.43146  22563198.673    22563205.710
       227.000         182.000
  20510748.229   -25753990.53349 -20036398.89847  20510747.885    20510754.245
       243.000         210.000
  21391837.077   -19212253.14049 -14938775.85847  21391836.630    21391842.561
       239.000         201.000
 03  3 23  1 36 30.0000000  0  8G 3G31G14G 9G17G23G15G18
  21701632.397   -21937270.33049 -17060630.43747  21701632.353    21701639.108
       237.000         198.000
  22699475.133   -12209196.13049  -9159468.93046  22699475.000    22699482.313
       226.000         175.000
  20770141.579   -20068809.49649 -15248177.06547  20770141.121    20770146.618
       243.000         210.000
  23453381.070    -6638044.43749  -5161190.25945  23453380.513    23453388.385
       215.000         159.000
  22584526.544   -16463485.93649 -12811256.41246  22584526.118    22584534.876
       218.000         165.000
  22573973.527    -9747373.98249  -7574123.35646  22573973.244    22573980.329
       227.000         181.000
  20516873.826   -25721800.93349 -20011316.08147  20516873.424    20516879.663
       243.000         211.000
  21401095.869   -19163597.59249 -14900862.43147  21401095.660    21401101.294
       239.000         201.000
 03  3 23  1 37  0.0000000  0  8G 3G31G14G 9G17G23G15G18
  21703716.738   -21926317.03749 -17052095.39247  21703716.600    21703723.541
       237.000         198.000
  22691921.311   -12248891.24649  -9190400.14846  22691921.010    22691927.765
       226.000         175.000
  20759578.035   -20124321.09549 -15291432.79547  20759577.484    20759582.991
       243.000         210.000
  23452480.481    -6642776.27349  -5164877.35145  23452479.846    23452488.704
       213.000         157.000
  22598774.444   -16388613.05549 -12752913.92246  22598774.414    22598782.328
       219.000         166.000
  22584755.414    -9690715.08349  -7529973.55846  22584755.009    22584762.773
       228.000         180.000
  20523077.004   -25689202.90349 -19985915.00447  20523076.460    20523082.882
       243.000         211.000
  21410382.908   -19114794.15849 -14862833.77647  21410382.810    21410388.009
       239.000         201.000
 03  3 23  1 37 30.0000000  0  8G 3G31G14G 9G17G23G15G18
  21705906.370   -21914810.62549 -17043129.34847  21705906.524    21705913.184
       238.000         198.000
  22684471.200   -12288042.05149  -9220907.23746  22684471.347    22684478.319
       225.000         175.000
  20749109.320   -20179333.92949 -15334299.87447  20749109.031    20749114.466
       242.000         210.000
  23451688.348    -6646938.21449  -5168120.39245  23451687.974    23451695.262
       212.000         154.000
  22613080.199   -16313436.53349 -12694334.83746  22613079.970    22613087.875
       218.000         167.000
  22595544.611    -9634017.82649  -7485793.86946  22595544.780    22595551.163
       228.000         180.000
  20529357.770   -25656196.90749 -19960196.02847  20529357.262    20529363.736
       242.000         210.000
  21419697.756   -19065844.31749 -14824691.03847  21419697.722    21419703.126
       239.000         201.000
 03  3 23  1 38  0.0000000  0  8G 3G31G14G 9G17G23G15G18
  21708201.168   -21902751.73149 -17033732.80147  21708201.165    21708207.821
       237.000         198.000
  22677124.707   -12326647.18849  -9250989.11546  22677123.734    22677131.553
       223.000         175.000
  20738735.877   -20233846.67749 -15376777.27847  20738735.792    20738741.129
       243.000         211.000
  23451005.146    -6650529.08349  -5170918.39445  23451004.717    23451013.187
       214.000         153.000
  22627443.259   -16237957.09349 -12635519.69746  22627442.218    22627451.031
       215.000         166.000
  22606341.075    -9577282.27349  -7441584.33846  22606341.266    22606347.769
       228.000         180.000
  20535716.374   -25622782.22949 -19934158.60947  20535716.100    20535722.633
       242.000         210.000
  21429040.427   -19016748.59649 -14786434.63347  21429040.454    21429045.589
       239.000         201.000
 03  3 23  1 38 30.0000000  0  8G 3G31G14G 9G17G23G15G18
  21710600.934   -21890140.84749 -17023906.12347  21710600.794    21710607.478
       236.000         197.000
  22669882.366   -12364705.23849  -9280644.69846  22669882.607    22669889.414
       224.000         175.000
  20728457.877   -20287857.89349 -15418863.87247  20728457.288    20728462.908
       242.000         211.000
  23450430.748    -6653547.62649  -5173270.43145  23450430.735    23450437.439
       212.000         152.000
  22641864.222   -16162174.64749 -12576468.45646  22641864.933    22641872.568
       218.000         166.000
  22617144.755    -9520508.69549  -7397345.16646  22617144.317    22617151.970
       228.000         181.000
  20542152.888   -25588958.17949 -19907802.19047  20542152.644    20542158.850
       243.000         210.000
  21438410.770   -18967507.35449 -14748064.82847  21438410.737    21438416.003
       240.000         201.000
 03  3 23  1 39  0.0000000  0  8G 3G31G14G 9G17G23G15G18
  21713105.418   -21876979.17649 -17013650.27047  21713105.230    21713112.263
       236.000         197.000
  22662744.518   -12402215.43149  -9309873.38346  22662744.249    22662750.986
       224.000         175.000
  20718275.357   -20341366.54049 -15460558.86747  20718274.687    20718280.092
       242.000         210.000
  23449965.186    -6655993.26949  -5175176.07445  23449964.647    23449972.053
       211.000         153.000
  22656342.865   -16086090.13049 -12517181.84346  22656343.500    22656351.252
       219.000         167.000
  22627955.533    -9463697.89849  -7353076.99346  22627955.372    22627962.110
       228.000         180.000
  20548667.280   -25554724.67349 -19881126.71547  20548666.444    20548673.121
       242.000         210.000
  21447808.546   -18918121.92449 -14709582.67647  21447808.511    21447813.654
       240.000         202.000
 03  3 23  1 39 30.0000000  0  8G 3G31G14G 9G17G23G15G18
  21715714.449   -21863268.49749 -17002966.61347  21715714.384    21715721.295
       237.000         196.000
  22655710.892   -12439177.49249  -9338674.94046  22655710.428    22655717.872
       225.000         176.000
  20708188.490   -20394372.51149 -15501862.16147  20708188.200    20708193.608
       242.000         210.000
  23449608.860    -6657865.73049  -5176635.08445  23449608.704    23449615.996
       209.000         154.000
  22670878.663   -16009704.44749 -12457660.56146  22670877.768    22670887.565
       218.000         168.000
  22638773.102    -9406851.04749  -7308780.74946  22638773.203    22638779.626
       228.000         180.000
  20555259.415   -25520082.42649 -19854132.74447  20555259.120    20555265.261
       243.000         210.000
  21457233.445   -18868593.89549 -14670989.39447  21457233.087    21457238.929
       239.000         202.000
 03  3 23  1 40  0.0000000  0  8G 3G31G14G 9G17G23G15G18
  21718428.128   -21849008.09049 -16991854.60247  21718427.565    21718434.922
       236.000         196.000
  22648781.972   -12475588.86849  -9367047.39946  22648782.014    22648788.824
       225.000         176.000
  20698198.007   -20446873.08749 -15542771.63847  20698197.826    20698203.040
       243.000         211.000
  23449361.892    -6659162.67849  -5177645.64945  23449360.835    23449369.669
       211.000         154.000
  22685471.657   -15933017.15249 -12397904.23946  22685471.365    22685481.128
       217.000         167.000
  22649597.813    -9349967.16249  -7264455.62946  22649597.360    22649604.245
       228.000         180.000
  20561929.832   -25485029.76649 -19826818.97547  20561929.832    20561935.403
       243.000         210.000
  21466685.572   -18818922.62049 -14632284.49747  21466685.273    21466691.138
       239.000         201.000
 03  3 23  1 40 30.0000000  0  8G 3G31G14G 9G17G23G15G18
  21721246.062   -21834199.35349 -16980315.31647  21721245.794    21721252.639
       236.000         196.000
  22641958.023   -12511448.96549  -9394990.28646  22641957.599    22641964.533
       224.000         176.000
  20688303.734   -20498867.65049 -15583286.82047  20688303.296    20688308.846
       243.000         211.000
  23449224.529    -6659883.95049  -5178207.63745  23449223.650    23449232.661
       212.000         155.000
  22700122.015   -15856029.15049 -12337913.61246  22700121.413    22700130.423
       219.000         167.000
  22660429.378    -9293047.11249  -7220102.33646  22660429.011    22660435.905
       227.000         180.000
  20568678.292   -25449566.60949 -19799185.33547  20568677.831    20568684.001
       243.000         211.000
  21476164.694   -18769109.16749 -14593468.80947  21476164.441    21476170.051
       238.000         201.000
 03  3 23  1 41  0.0000000  0  8G 3G31G14G 9G17G23G15G18
  21724168.151   -21818843.45649 -16968349.67147  21724167.961    21724175.323
       236.000         196.000
  22635239.081   -12546757.03949  -9422503.01946  22635238.411    22635245.190
       225.000         177.000
  20678505.909   -20550355.20649 -15623406.93747  20678505.748    20678510.792
       243.000         212.000
  23449196.828    -6660029.00549  -5178320.60845  23449197.328    23449204.354
       213.000         155.000
  22714829.626   -15778741.53649 -12277689.52646  22714829.980    22714837.513
       220.000         167.000
  22671267.625    -9236091.71549  -7175721.50246  22671266.749    22671273.520
       226.000         180.000
  20575504.743   -25413692.97949 -19771231.84647  20575504.195    20575510.717
       243.000         210.000
  21485670.695   -18719154.75549 -14554543.28347  21485670.410    21485675.641
       239.000         200.000
 03  3 23  1 41 30.0000000  0  8G 3G31G14G 9G17G23G15G18
  21727194.142   -21802941.59349 -16955958.60347  21727194.276    21727201.265
       237.000         197.000
  22628625.350   -12581512.22249  -9449584.94446  22628625.259    22628632.057
       225.000         177.000
  20668804.750   -20601335.20949 -15663131.55647  20668804.644    20668809.741
       243.000         212.000
  23449279.087    -6659596.97149  -5177983.89045  23449279.472    23449285.756
       216.000         155.000
  22729594.012   -15701154.72349 -12217232.29446  22729592.780    22729601.915
       219.000         167.000
  22682112.324    -9179101.58649  -7131313.60146  22682112.131    22682119.018
       225.000         179.000
  20582409.390   -25377408.89149 -19742958.52647  20582408.955    20582415.369
       243.000         210.000
  21495203.363   -18669060.23649 -14515508.57347  21495203.240    21495208.160
       239.000         200.000
 03  3 23  1 42  0.0000000  0  8G 3G31G14G 9G17G23G15G18
  21730323.971   -21786494.46149 -16943142.64847  21730324.020    21730331.041
       238.000         197.000
  22622117.044   -12615713.34749  -9476235.11846  22622116.135    22622124.035
       226.000         176.000
  20659200.377   -20651806.31749 -15702459.63347  20659199.923    20659205.303
       245.000         212.000
  23449471.412    -6658586.82349  -5177196.69145  23449471.129    23449478.758
       215.000         152.000
  22744415.024   -15623269.41949 -12156542.45946  22744414.489    22744423.235
       219.000         166.000
  22692963.595    -9122077.02749  -7086878.86746  22692963.388    22692970.975
       228.000         178.000
  20589392.115   -25340714.05449 -19714365.12947  20589391.241    20589398.055
       244.000         210.000
  21504762.520   -18618826.38349 -14476365.29547  21504762.153    21504767.733
       241.000         200.000
 03  3 23  1 42 30.0000000  0  8G 3G31G14G 9G17G23G15G18
  21733557.404   -21769502.69049 -16929902.29747  21733557.371    21733564.605
       236.000         197.000
  22615714.197   -12649359.13749  -9502452.57146  22615713.437    22615721.507
       223.000         176.000
  20649693.143   -20701767.01449 -15741389.99147  20649692.875    20649698.221
       242.000         212.000
  23449773.519    -6656997.52249  -5175958.21845  23449773.500    23449781.161
       211.000         150.000
  22759292.963   -15545085.15949 -12095619.67746  22759292.889    22759300.781
       218.000         165.000
  22703821.613    -9065018.00449  -7042417.28646  22703821.062    22703828.636
       226.000         178.000
  20596453.122   -25303607.80249 -19685451.15847  20596452.702    20596458.967
       242.000         209.000
  21514348.172   -18568453.38049 -14437113.58747  21514348.107    21514353.069
       239.000         200.000
 03  3 23  1 43  0.0000000  0  8G 3G31G14G 9G17G23G15G18
  21736894.254   -21751967.24249 -16916238.29647  21736894.571    21736901.327
       236.000         197.000
  22609417.390   -12682448.61449  -9528236.54346  22609417.586    22609424.402
       225.000         176.000
  20640283.221   -20751216.46149 -15779921.97348  20640282.989    20640288.146
       242.000         213.000
  23450186.096    -6654828.42549  -5174267.95845  23450186.434    23450193.628
       213.000         151.000
  22774227.660   -15466603.19249 -12034464.93546  22774227.680    22774234.778
       217.000         165.000
  22714686.036    -9007924.70349  -6997928.99046  22714685.930    22714693.406
       225.000         179.000
  20603592.573   -25266089.60049 -19656216.18947  20603592.200    20603598.550
       242.000         209.000
  21523960.250   -18517941.74849 -14397753.86047  21523960.232    21523965.198
       239.000         200.000
 03  3 23  1 43 30.0000000  0  8G 3G31G14G 9G17G23G15G18
  21740334.321   -21733889.79649 -16902151.96547  21740334.929    21740341.236
       237.000         197.000
  22603226.739   -12714981.61549  -9553586.88146  22603226.692    22603233.649
       225.000         176.000
  20630970.650   -20800154.15049 -15818055.18047  20630970.296    20630975.626
       241.000         212.000
  23450709.318    -6652079.61749  -5172125.94845  23450710.051    23450715.914
       214.000         153.000
  22789218.733   -15387824.55449 -11973079.00446  22789217.633    22789226.592
       216.000         164.000
  22725556.679    -8950798.47549  -6953415.03746  22725556.435    22725563.588
       226.000         179.000
  20610810.306   -25228160.04149 -19626660.67747  20610809.733    20610816.559
       242.000         209.000
  21533598.349   -18467293.31549 -14358287.52847  21533598.140    21533603.356
       239.000         200.000
 03  3 23  1 44  0.0000000  0  8G 3G31G14G 9G17G23G15G18
  21743877.229   -21715272.18649 -16887644.72347  21743877.097    21743884.355
       237.000         197.000
  22597141.857   -12746957.78249  -9578503.33246  22597141.325    22597148.283
       225.000         176.000
  20621755.435   -20848580.01349 -15855789.56448  20621755.156    20621760.274
       241.000         213.000
  23451342.781    -6648750.78949  -5169531.97945  23451342.973    23451350.367
       214.000         154.000
  22804265.940   -15308750.52549 -11911462.89346  22804265.715    22804274.155
       217.000         164.000
  22736433.543    -8893640.21149  -6908876.13346  22736433.265    22736440.760
       227.000         179.000
  20618106.221   -25189819.62749 -19596785.02047  20618105.782    20618112.418
       242.000         209.000
  21543262.276   -18416509.20049 -14318715.47347  21543262.280    21543267.116
       239.000         199.000
 03  3 23  1 44 30.0000000  0  8G 3G31G14G 9G17G23G15G18
  21747522.948   -21696113.54749 -16872715.89147  21747522.603    21747530.254
       237.000         197.000
  22591163.447   -12778374.38449  -9602983.75546  22591163.013    22591169.912
       226.000         177.000
  20612638.240   -20896491.03349 -15893122.76648  20612637.808    20612643.021
       242.000         213.000
  23452087.110    -6644839.57349  -5166484.20745  23452086.758    23452094.435
       214.000         154.000
  22819369.797   -15229379.35349 -11849615.23946  22819369.050    22819377.778
       219.000         164.000
  22747316.780    -8836448.46349  -6864311.12546  22747316.451    22747324.202
       226.000         179.000
  20625480.787   -25151066.32349 -19566587.63447  20625480.557    20625486.776
       242.000         210.000
  21552952.317   -18365588.13049 -14279036.70547  21552952.052    21552956.615
       239.000         199.000
 03  3 23  1 45  0.0000000  0  8G 3G31G14G 9G17G23G15G18
  21751271.093   -21676416.87849 -16857367.81547  21751270.759    21751277.953
       237.000         197.000
  22585291.421   -12809232.25849  -9627028.79646  22585290.619    22585298.295
       227.000         178.000
  20603618.877   -20943887.97349 -15930055.38148  20603618.342    20603623.419
       242.000         213.000
  23452941.961    -6640347.12649  -5162983.53245  23452940.897    23452950.242
       214.000         156.000
  22834529.598   -15149714.14149 -11787538.45246  22834528.805    22834538.029
       216.000         164.000
  22758206.086    -8779225.24149  -6819721.58846  22758205.812    22758211.708
       227.000         178.000
  20632933.612   -25111901.52549 -19536069.59647  20632932.588    20632939.715
       242.000         210.000
  21562667.823   -18314532.80849 -14239253.32147  21562667.486    21562671.927
       239.000         198.000
 03  3 23  1 45 30.0000000  0  8G 3G31G14G 9G17G23G15G18
  21755121.580   -21656181.94049 -16841600.33347  21755121.233    21755128.708
       236.000         196.000
  22579526.030   -12839529.51449  -9650637.02646  22579525.760    22579532.905
       226.000         178.000
  20594697.688   -20990769.02449 -15966586.01948  20594697.418    20594702.442
       242.000         213.000
  23453907.792    -6635271.55949  -5159028.50245  23453907.488    23453914.776
       215.000         156.000
  22849745.371   -15069754.34949 -11725232.13746  22849744.441    22849753.546
       216.000         164.000
  22769101.525    -8721969.79849  -6775106.95946  22769101.109    22769107.817
       227.000         178.000
  20640464.814   -25072323.93849 -19505229.91247  20640463.914    20640471.030
       241.000         209.000
  21572408.932   -18263342.83449 -14199365.03047  21572408.522    21572413.565
       238.000         198.000
 03  3 23  1 46  0.0000000  0  8G 3G31G14G 9G17G23G15G18
  21759074.043   -21635411.22049 -16825415.35147  21759073.937    21759080.794
       235.000         196.000
  22573867.089   -12869266.61249  -9673808.73946  22573866.248    22573873.507
       226.000         178.000
  20585874.609   -21037134.39049 -16002714.82448  20585874.286    20585879.339
       241.000         213.000
  23454984.432    -6629613.75849  -5154619.77545  23454984.462    23454992.185
       214.000         156.000
  22865017.042   -14989501.36449 -11662697.35746  22865016.858    22865025.095
       217.000         163.000
  22780002.772    -8664683.81349  -6730468.52746  22780002.882    22780009.186
       227.000         179.000
  20648074.499   -25032334.57549 -19474069.35847  20648074.296    20648080.653
       242.000         209.000
  21582175.305   -18212019.88849 -14159373.11347  21582174.891    21582179.760
       238.000         198.000
 03  3 23  1 46 30.0000000  0  8G 3G31G14G 9G17G23G15G18
  21763128.719   -21614103.77549 -16808812.13747  21763128.749    21763135.496
       236.000         196.000
  22568315.472   -12898440.70449  -9696541.76146  22568315.320    22568321.970
       228.000         179.000
  20577150.231   -21082981.15749 -16038439.51848  20577149.786    20577155.008
       241.000         213.000
  23456172.391    -6623371.18449  -5149755.34845  23456171.910    23456180.091
       215.000         156.000
  22880344.720   -14908954.03849 -11599933.23046  22880344.317    22880352.507
       217.000         164.000
  22790910.107    -8607365.60949  -6685804.97446  22790909.692    22790916.693
       226.000         179.000
  20655763.068   -24991931.45549 -19442586.40847  20655762.833    20655768.996
       242.000         209.000
  21591967.268   -18160562.99849 -14119276.82247  21591966.982    21591972.018
       238.000         198.000
 03  3 23  1 47  0.0000000  0  8G 3G31G14G 9G17G23G15G18
  21767284.955   -21592262.83549 -16791793.21247  21767284.832    21767291.609
       236.000         196.000
  22562870.914   -12927052.93149  -9718836.97546  22562870.550    22562877.074
       227.000         180.000
  20568524.301   -21128310.48649 -16073761.02148  20568524.157    20568528.984
       242.000         213.000
  23457471.236    -6616544.94549  -5144436.12845  23457471.211    23457478.453
       213.000         154.000
  22895727.801   -14828114.96049 -11536941.74146  22895727.508    22895735.583
       218.000         163.000
  22801823.018    -8550017.58249  -6641118.20446  22801822.527    22801829.460
       226.000         179.000
  20663529.993   -24951116.25049 -19410782.35247  20663529.466    20663535.866
       242.000         209.000
  21601784.311   -18108974.43649 -14079077.93647  21601783.866    21601788.950
       238.000         197.000
 03  3 23  1 47 30.0000000  0  8G 3G31G14G 9G17G23G15G18
  21771542.591   -21569888.38649 -16774358.56947  21771542.695    21771549.480
       237.000         196.000
  22557533.414   -12955101.66249  -9740693.08946  22557532.865    22557540.283
       226.000         180.000
  20559997.267   -21173120.55349 -16108677.89948  20559997.010    20560001.844
       242.000         214.000
  23458881.374    -6609133.81349  -5138661.15545  23458881.224    23458890.457
       212.000         153.000
  22911166.553   -14746984.27649 -11473723.04146  22911166.819    22911174.950
       219.000         164.000
  22812741.791    -8492639.01149  -6596407.63146  22812741.658    22812747.756
       226.000         179.000
  20671375.424   -24909887.95049 -19378656.39647  20671374.675    20671381.402
       241.000         209.000
  21611626.299   -18057253.87249 -14038776.19047  21611625.753    21611630.838
       238.000         197.000
 03  3 23  1 48  0.0000000  0  8G 3G31G14G 9G17G23G15G18
  21775901.470   -21546982.67149 -16756509.95447  21775901.827    21775908.198
       235.000         196.000
  22552303.055   -12982586.96649  -9762110.16846  22552302.686    22552309.814
       227.000         180.000
  20551568.965   -21217411.27349 -16143190.09348  20551568.555    20551573.668
       241.000         213.000
  23460402.926    -6601138.02249  -5132430.63045  23460402.971    23460410.262
       211.000         152.000
  22926660.496   -14665563.28749 -11410278.12046  22926659.884    22926668.785
       218.000         164.000
  22823666.174    -8435230.99549  -6551674.11446  22823666.065    22823673.008
       227.000         178.000
  20679299.283   -24868247.41149 -19346209.21647  20679299.029    20679305.544
       242.000         209.000
  21621493.072   -18005403.09249 -13998372.97447  21621493.002    21621497.886
       238.000         197.000
 03  3 23  1 48 30.0000000  0  8G 3G31G14G 9G17G23G15G18
  21780360.895   -21523547.94649 -16738249.12447  21780360.760    21780367.678
       236.000         195.000
  22547179.989   -13009508.90949  -9783088.27646  22547180.252    22547186.679
       227.000         180.000
  20543239.424   -21261182.68049 -16177297.62248  20543239.062    20543244.067
       241.000         213.000
  23462035.661    -6592558.07949  -5125744.91845  23462036.030    23462042.587
       213.000         153.000
  22942209.346   -14583852.99849 -11346607.75645  22942207.990    22942218.058
       218.000         162.000
  22834595.952    -8377794.55749  -6506918.43246  22834595.778    22834602.962
       226.000         178.000
  20687301.647   -24826195.17349 -19313441.23147  20687301.329    20687307.720
       241.000         209.000
  21631384.402   -17953423.42749 -13957869.31947  21631383.845    21631389.292
       237.000         196.000
 03  3 23  1 49  0.0000000  0  8G 3G31G14G 9G17G23G15G18
  21784921.553   -21499581.44849 -16719573.92847  21784921.413    21784928.151
       236.000         195.000
  22542164.835   -13035863.22549  -9803624.06146  22542163.675    22542172.108
       226.000         180.000
  20535009.626   -21304430.48949 -16210997.16048  20535009.189    20535014.279
       241.000         214.000
  23463780.238    -6583389.71249  -5118600.70745  23463780.703    23463787.494
       214.000         154.000
  22957813.927   -14501850.76649 -11282709.92945  22957814.316    22957822.316
       219.000         162.000
  22845531.763    -8320326.37049  -6462138.03746  22845531.907    22845538.166
       226.000         178.000
  20695382.937   -24783727.26549 -19280349.35247  20695382.505    20695388.879
       242.000         209.000
  21641300.858   -17901311.85949 -13917262.89047  21641300.499    21641305.422
       237.000         196.000
 03  3 23  1 49 30.0000000  0  8G 3G31G14G 9G17G23G15G18
  21789582.591   -21475087.62649 -16700487.82847  21789582.346    21789589.726
       235.000         195.000
  22537257.195   -13061652.29749  -9823719.39946  22537256.642    22537263.676
       228.000         180.000
  20526878.933   -21347157.05649 -16244290.53848  20526878.608    20526883.696
       240.000         214.000
  23465636.356    -6573635.79249  -5111000.20245  23465636.328    23465643.408
       216.000         155.000
  22973473.407   -14419560.44249 -11218587.61945  22973473.106    22973481.862
       217.000         161.000
  22856472.973    -8262829.74249  -6417335.46946  22856472.893    22856479.208
       227.000         178.000
  20703542.860   -24740846.63449 -19246935.87347  20703542.316    20703548.939
       241.000         209.000
  21651241.720   -17849072.00349 -13876556.49747  21651241.557    21651246.871
       237.000         196.000
 03  3 23  1 50  0.0000000  0  8G 3G31G14G 9G17G23G15G18
  21794343.689   -21450067.55149 -16680991.65047  21794343.110    21794350.589
       235.000         195.000
  22532457.416   -13086875.11749  -9843373.51346  22532456.965    22532463.992
       226.000         179.000
  20518847.664   -21389361.13249 -16277176.77448  20518847.228    20518852.346
       240.000         214.000
  23467604.067    -6563295.43949  -5102942.73645  23467603.746    23467611.327
       217.000         156.000
  22989187.545   -14336982.20549 -11154240.95145  22989187.267    22989195.091
       216.000         161.000
  22867419.658    -8205304.59349  -6372510.68246  22867419.155    22867426.468
       226.000         178.000
  20711781.274   -24697553.13949 -19213200.67647  20711780.673    20711787.251
       242.000         209.000
  21661206.986   -17796704.22749 -13835750.43347  21661206.809    21661211.791
       238.000         196.000
 03  3 23  1 50 30.0000000  0  8G 3G31G14G 9G17G23G15G18
  21799204.782   -21424522.26249 -16661086.22047  21799204.665    21799211.847
       236.000         195.000
  22527765.512   -13111530.93749  -9862585.80546  22527765.213    22527772.209
       227.000         179.000
  20510916.092   -21431041.76949 -16309655.14248  20510915.858    20510920.846
       241.000         214.000
  23469683.401    -6552368.21849  -5094427.97745  23469682.747    23469690.906
       217.000         156.000
  23004956.335   -14254116.62549 -11089670.37245  23004956.350    23004965.614
       216.000         160.000
  22878371.722    -8147751.01049  -6327663.73646  22878371.503    22878378.189
       226.000         178.000
  20720098.371   -24653846.57849 -19179143.61547  20720097.845    20720104.527
       242.000         209.000
  21671196.559   -17744208.90249 -13794844.97747  21671196.613    21671201.208
       238.000         196.000
 03  3 23  1 51  0.0000000  0  8G 3G31G14G 9G17G23G15G18
  21804165.544   -21398453.35749 -16640772.77247  21804165.270    21804172.509
       235.000         195.000
  22523181.621   -13135619.18449  -9881355.83046  22523181.266    22523188.136
       227.000         179.000
  20503084.204   -21472198.32749 -16341725.13248  20503083.810    20503088.726
       241.000         214.000
  23471874.542    -6540853.91849  -5085455.76245  23471874.439    23471881.761
       216.000         154.000
  23020779.820   -14170964.47849 -11024876.51745  23020780.026    23020787.750
       216.000         160.000
  22889329.141    -8090169.45149  -6282794.97946  22889328.648    22889336.261
       226.000         177.000
  20728494.084   -24609726.86549 -19144764.60647  20728493.712    20728500.345
       242.000         209.000
  21681210.226   -17691586.78649 -13753840.71547  21681209.651    21681214.912
       237.000         195.000
 03  3 23  1 51 30.0000000  0  8G 3G31G14G 9G17G23G15G18
  21809225.621   -21371862.18549 -16620052.37547  21809225.228    21809232.703
       235.000         195.000
  22518705.803   -13159139.49749  -9899683.31346  22518705.245    22518711.736
       228.000         178.000
  20495352.086   -21512830.45049 -16373386.47948  20495351.743    20495356.821
       240.000         214.000
  23474177.442    -6528752.39849  -5076025.98545  23474176.336    23474185.362
       213.000         152.000
  23036657.511   -14087527.06249 -10959860.36045  23036656.734    23036665.259
       214.000         160.000
  22900291.806    -8032560.31249  -6237904.75146  22900291.548    22900299.313
       226.000         177.000
  20736968.399   -24565194.03849 -19110063.69247  20736968.036    20736974.576
       242.000         209.000
  21691247.774   -17638838.77649 -13712738.35447  21691247.332    21691252.673
       237.000         195.000
 03  3 23  1 52  0.0000000  0  8G 3G31G14G 9G17G23G15G18
  21814384.865   -21344749.92949 -16598925.92947  21814385.045    21814391.541
       237.000         195.000
  22514338.301   -13182090.90449  -9917567.49346  22514337.419    22514345.254
       227.000         178.000
  20487720.030   -21552936.96349 -16404638.25748  20487719.897    20487724.738
       241.000         214.000
  23476591.926    -6516062.87249  -5066138.03945  23476591.554    23476599.682
       217.000         152.000
  23052589.310   -14003804.86949 -10894622.30545  23052588.485    23052597.278
       216.000         159.000
  22911259.871    -7974923.19949  -6192992.72346  22911259.425    22911266.174
       227.000         177.000
  20745521.401   -24520247.72349 -19075040.57547  20745520.695    20745527.362
       242.000         209.000
  21701309.316   -17585964.83449 -13671537.87247  21701309.176    21701314.249
       238.000         195.000
 03  3 23  1 52 30.0000000  0  8G 3G31G14G 9G17G23G15G18
  21819643.155   -21317117.93749 -16577394.50247  21819643.495    21819650.129
       236.000         195.000
  22510079.046   -13204472.92949  -9935007.98546  22510078.597    22510086.007
       227.000         178.000
  20480188.144   -21592517.45949 -16435480.15348  20480187.941    20480192.709
       241.000         214.000
  23479118.640    -6502785.24849  -5055791.78745  23479119.254    23479124.965
       218.000         156.000
  23068575.231   -13919798.09749 -10829162.50345  23068573.869    23068582.601
       214.000         158.000
  22922233.230    -7917258.50749  -6148059.18446  22922233.148    22922240.036
       227.000         177.000
  20754153.103   -24474887.90049 -19039695.24647  20754152.619    20754158.951
       242.000         208.000
  21711394.716   -17532965.63449 -13630239.78147  21711394.704    21711399.904
       238.000         196.000
 03  3 23  1 53  0.0000000  0  8G 3G31G14G 9G17G23G15G18
  21824999.951   -21288967.77749 -16555459.29947  21824999.827    21825006.567
       236.000         196.000
  22505928.160   -13226285.53949  -9952004.77646  22505927.970    22505934.922
       227.000         179.000
  20472756.351   -21631571.50749 -16465911.83148  20472756.026    20472761.230
       241.000         214.000
  23481757.228    -6488919.59449  -5044987.33645  23481757.877    23481764.708
       217.000         158.000
  23084615.052   -13835508.13449 -10763482.02345  23084614.144    23084622.791
       214.000         157.000
  22933211.550    -7859566.87249  -6103104.65246  22933210.829    22933218.606
       226.000         176.000
  20762863.344   -24429115.10649 -19004028.11547  20762862.789    20762869.275
       241.000         208.000
  21721503.772   -17479842.18249 -13588844.87847  21721503.346    21721508.703
       238.000         197.000
 03  3 23  1 53 30.0000000  0  8G 3G31G14G 9G17G23G15G18
  21830455.057   -21260300.94549 -16533121.49447  21830455.120    21830461.853
       236.000         196.000
  22501885.896   -13247528.05849  -9968557.35046  22501885.929    22501892.780
       228.000         179.000
  20465424.873   -21670098.50849 -16495932.81948  20465424.541    20465429.497
       241.000         214.000
  23484507.721    -6474465.70049  -5033724.51045  23484508.143    23484515.283
       216.000         157.000
  23100708.616   -13750935.80149 -10697581.50945  23100707.963    23100715.740
       215.000         157.000
  22944195.004    -7801848.44149  -6058129.23846  22944194.025    22944201.876
       225.000         176.000
  20771652.217   -24382929.21349 -18968039.08447  20771651.685    20771658.399
       241.000         208.000
  21731636.399   -17426594.91749 -13547353.48847  21731636.181    21731641.331
       239.000         197.000
 03  3 23  1 54  0.0000000  0  8G 3G31G14G 9G17G23G15G18
  21836008.189   -21231119.24449 -16510382.48547  21836008.026    21836014.748
       237.000         195.000
  22497952.084   -13268200.40749  -9984665.63846  22497952.172    22497958.120
       228.000         180.000
  20458193.771   -21708098.20849 -16525542.92348  20458193.517    20458198.515
       240.000         214.000
  23487369.985    -6459423.93649  -5022003.62545  23487369.123    23487377.817
       214.000         155.000
  23116855.689   -13666082.24049 -10631461.85045  23116854.784    23116863.839
       213.000         157.000
  22955183.335    -7744103.67349  -6013133.31146  22955182.588    22955188.738
       225.000         174.000
  20780519.693   -24336330.30249 -18931728.23147  20780519.276    20780525.667
       242.000         208.000
  21741792.399   -17373224.92449 -13505766.46547  21741792.370    21741797.165
       239.000         197.000
 03  3 23  1 54 30.0000000  0  8G 3G31G14G 9G17G23G15G18
  21841659.118   -21201423.23349 -16487242.71747  21841659.114    21841665.793
       236.000         195.000
  22494126.958   -13288301.33449 -10000328.65946  22494126.910    22494133.469
       230.000         180.000
  20451063.281   -21745569.20249 -16554741.05348  20451063.044    20451067.783
       241.000         214.000
  23490344.406    -6443793.09349  -5009823.70145  23490344.953    23490351.766
       216.000         154.000
  23133056.101   -13580947.00449 -10565122.70545  23133054.550    23133064.032
       212.000         157.000
  22966176.833    -7686331.93649  -5968116.35046  22966176.727    22966183.238
       224.000         174.000
  20789465.983   -24289317.56449 -18895094.91847  20789465.592    20789471.711
       243.000         207.000
  21751971.871   -17319731.63349 -13464083.36347  21751971.643    21751977.001
       239.000         197.000
 03  3 23  1 55  0.0000000  0  8G 3G31G14G 9G17G23G15G18
  21847407.510   -21171215.29749 -16463704.05147  21847407.305    21847414.467
       236.000         195.000
  22490410.608   -13307830.97449 -10015546.52246  22490410.473    22490417.545
       229.000         181.000
  20444033.309   -21782511.55049 -16583527.24848  20444032.761    20444037.667
       240.000         214.000
  23493430.982    -6427573.46349  -4997184.98845  23493431.406    23493437.166
       214.000         153.000
  23149310.046   -13495531.75349 -10498565.38645  23149309.716    23149318.577
       213.000         159.000
  22977175.420    -7628534.04749  -5923079.02746  22977175.333    22977181.505
       226.000         174.000
  20798490.811   -24241891.97349 -18858139.89247  20798490.155    20798496.789
       241.000         207.000
  21762174.553   -17266116.20349 -13422305.09747  21762174.480    21762179.553
       238.000         197.000
 03  3 23  1 55 30.0000000  0  8G 3G31G14G 9G17G23G15G18
  21853253.147   -21140496.08049 -16439766.98547  21853253.377    21853259.934
       237.000         195.000
  22486803.060   -13326788.28649 -10030318.41446  22486802.171    22486809.928
       228.000         181.000
  20437104.197   -21818923.91449 -16611900.46848  20437103.807    20437108.786
       240.000         214.000
  23496629.538    -6410764.41549  -4984086.98145  23496629.682    23496637.006
       214.000         152.000
  23165617.371   -13409836.75949 -10431790.07845  23165617.167    23165625.069
       216.000         160.000
  22988179.187    -7570709.35349  -5878020.81446  22988179.035    22988186.023
       226.000         175.000
  20807594.248   -24194052.63849 -18820862.46647  20807593.563    20807600.378
       241.000         207.000
  21772400.566   -17212378.34549 -13380431.43547  21772400.581    21772405.192
       238.000         197.000
 03  3 23  1 56  0.0000000  0  8G 3G31G14G 9G17G23G15G18
  21859195.227   -21109270.33949 -16415435.22647  21859195.144    21859201.828
       236.000         195.000
  22483303.965   -13345176.09849 -10044646.53946  22483303.833    22483310.455
       229.000         181.000
  20430275.426   -21854809.03249 -16639862.85148  20430275.195    20430280.183
       240.000         214.000
  23499939.734    -6393369.14949  -4970532.19145  23499938.431    23499947.120
       215.000         151.000
  23181977.105   -13323865.73949 -10364799.66345  23181976.002    23181984.777
       216.000         159.000
  22999187.416    -7512861.29949  -5832944.40246  22999186.455    22999193.738
       226.000         175.000
  20816775.864   -24145802.83749 -18783265.19647  20816775.396    20816781.836
       241.000         207.000
  21782649.083   -17158522.16349 -13338465.56147  21782648.926    21782653.960
       237.000         196.000
 03  3 23  1 56 30.0000000  0  8G 3G31G14G 9G17G23G15G18
  21865233.890   -21077536.88249 -16390707.83847  21865233.744    21865240.975
       236.000         195.000
  22479913.917   -13362991.33149 -10058528.50246  22479913.750    22479920.195
       230.000         182.000
  20423547.595   -21890163.84149 -16667412.00048  20423547.073    20423552.205
       240.000         214.000
  23503361.753    -6375385.07649  -4956518.58245  23503362.421    23503369.357
       212.000         151.000
  23198389.675   -13237616.62249 -10297592.54845  23198388.979    23198397.915
       213.000         159.000
  23010200.433    -7454987.29749  -5787847.74246  23010200.560    23010206.715
       228.000         174.000
  20826036.104   -24097140.12549 -18745346.19047  20826035.745    20826041.974
       242.000         207.000
  21792920.521   -17104545.27249 -13296405.62947  21792920.175    21792925.519
       237.000         196.000
 03  3 23  1 57  0.0000000  0  8G 3G31G14G 9G17G23G15G18
  21871368.796   -21045297.65049 -16365586.34847  21871368.667    21871375.625
       236.000         195.000
  22476632.656   -13380234.23049 -10071964.48846  22476632.371    22476639.012
       228.000         182.000
  20416920.666   -21924988.28449 -16694547.87548  20416920.340    20416925.216
       241.000         214.000
  23506895.861    -6356812.64149  -4942046.50245  23506895.475    23506904.568
       215.000         153.000
  23214855.029   -13151091.11349 -10230170.07645  23214854.780    23214863.302
       216.000         161.000
  23021218.273    -7397087.96949  -5742731.36546  23021217.723    23021224.758
       227.000         175.000
  20835374.753   -24048065.00349 -18707105.82047  20835374.041    20835380.554
       241.000         207.000
  21803214.673   -17050448.66249 -13254252.41147  21803214.119    21803219.498
       236.000         195.000
 03  3 23  1 57 30.0000000  0  8G 3G31G14G 9G17G23G15G18
  21877599.507   -21012555.05049 -16340072.62547  21877599.223    21877606.183
       235.000         194.000
  22473460.126   -13396905.26449 -10084954.85646  22473459.997    22473466.437
       229.000         182.000
  20410394.614   -21959282.64849 -16721270.70548  20410394.458    20410399.335
       241.000         215.000
  23510542.023    -6337652.43849  -4927116.42845  23510542.690    23510548.304
       216.000         155.000
  23231372.682   -13064291.04449 -10162533.64945  23231372.625    23231380.117
       215.000         161.000
  23032240.815    -7339164.23449  -5697595.96246  23032241.211    23032247.435
       227.000         175.000
  20844791.784   -23998578.01149 -18668544.50947  20844791.421    20844797.499
       241.000         207.000
  21813531.350   -16996233.65349 -13212006.92747  21813531.087    21813536.112
       237.000         195.000
 03  3 23  1 58  0.0000000  0  8G 3G31G14G 9G17G23G15G18
  21883925.757   -20979309.54749 -16314167.02447  21883925.114    21883932.469
       235.000         194.000
  22470396.792   -13413003.00749 -10097498.51746  22470396.238    22470403.901
       229.000         182.000
  20403969.738   -21993045.45049 -16747579.33548  20403969.186    20403974.229
       240.000         215.000
  23514300.281    -6317903.29249  -4911727.45245  23514300.409    23514307.002
       217.000         155.000
  23247942.365   -12977215.82049 -10094682.80745  23247941.735    23247949.850
       213.000         159.000
  23043268.132    -7281215.12849  -5652440.79446  23043267.638    23043274.728
       226.000         176.000
  20854287.410   -23948678.30549 -18629661.61147  20854287.227    20854293.340
       242.000         207.000
  21823870.821   -16941899.58449 -13169668.67047  21823870.119    21823875.644
       236.000         194.000
 03  3 23  1 58 30.0000000  0  8G 3G31G14G 9G17G23G15G18
  21890347.426   -20945562.88449 -16287870.90847  21890347.778    21890354.419
       235.000         194.000
  22467442.549   -13428527.22449 -10109595.27246  22467442.413    22467449.168
       229.000         182.000
  20397646.103   -22026276.21849 -16773473.39448  20397646.083    20397650.521
       241.000         215.000
  23518170.349    -6297565.63849  -4895879.90545  23518170.639    23518178.410
       214.000         155.000
  23264564.131   -12889866.61249 -10026618.49145  23264563.368    23264571.864
       214.000         158.000
  23054300.196    -7223240.77649  -5607265.97246  23054300.150    23054306.596
       226.000         176.000
  20863861.527   -23898366.13049 -18590457.30747  20863860.920    20863867.318
       241.000         206.000
  21834232.793   -16887446.73949 -13127237.86447  21834232.835    21834237.779
       236.000         194.000
 03  3 23  1 59  0.0000000  0  8G 3G31G14G 9G17G23G15G18
  21896864.291   -20911317.06249 -16261185.84447  21896864.456    21896871.236
       236.000         194.000
  22464597.512   -13443478.11049 -10121245.27846  22464597.113    22464603.728
       228.000         182.000
  20391423.797   -22058975.10649 -16798952.99748  20391423.621    20391428.003
       241.000         215.000
  23522152.372    -6276639.83749  -4879574.06345  23522152.123    23522158.380
       214.000         154.000
  23281237.865   -12802244.52349  -9958341.52345  23281237.585    23281246.108
       212.000         156.000
  23065337.094    -7165241.61049  -5562071.80146  23065336.979    23065343.300
       226.000         175.000
  20873513.944   -23847641.93549 -18550931.95047  20873513.757    20873519.529
       241.000         206.000
  21844617.258   -16832876.23749 -13084715.38547  21844617.106    21844622.217
       237.000         194.000
 03  3 23  1 59 30.0000000  0  8G 3G31G14G 9G17G23G15G18
  21903475.615   -20876574.09449 -16234113.38547  21903475.240    21903482.412
       234.000         194.000
  22461861.289   -13457855.70849 -10132448.55446  22461860.997    22461868.109
       227.000         181.000
  20385302.601   -22091141.88049 -16824017.96948  20385302.279    20385306.883
       241.000         215.000
  23526246.199    -6255126.28749  -4862810.23145  23526246.329    23526253.128
       213.000         153.000
  23297963.394   -12714350.64249  -9889852.76845  23297963.306    23297972.815
       212.000         157.000
  23076378.691    -7107218.06249  -5516858.62046  23076378.546    23076385.279
       226.000         175.000
  20883244.767   -23796506.23949 -18511085.94047  20883244.391    20883250.374
       242.000         206.000
  21855024.016   -16778188.82349 -13042101.80147  21855023.922    21855028.593
       237.000         194.000
 03  3 23  2  0  0.0000000  0  8G 3G31G14G 9G17G23G15G18
  21910181.256   -20841335.19549 -16206654.48147  21910181.207    21910188.372
       235.000         194.000
  22459234.478   -13471659.52849 -10143204.74646  22459234.875    22459241.204
       229.000         181.000
  20379282.846   -22122775.77349 -16848667.70648  20379282.446    20379287.286
       241.000         215.000
  23530451.712    -6233024.65649  -4845588.17245  23530452.177    23530458.970
       212.000         152.000
  23314740.729   -12626185.48849  -9821152.63145  23314740.771    23314749.259
       214.000         157.000
  23087424.893    -7049169.91249  -5471626.28146  23087424.129    23087430.866
       226.000         175.000
  20893053.976   -23744958.66749 -18470918.99147  20893053.420    20893059.533
       242.000         206.000
  21865452.976   -16723384.40549 -12999397.03847  21865452.742    21865458.116
       237.000         194.000
 03  3 23  2  0 30.0000000  0  8G 3G31G14G 9G17G23G15G18
  21916980.756   -20805603.72749 -16178811.76347  21916980.650    21916987.506
       235.000         193.000
  22456716.659   -13484891.06049 -10153514.98946  22456715.929    22456723.292
       228.000         181.000
  20373364.175   -22153878.31249 -16872903.40348  20373363.854    20373368.401
       241.000         215.000
  23534769.014    -6210336.89149  -4827909.37045  23534768.799    23534776.573
       212.000         153.000
  23331569.226   -12537751.87649  -9752243.32445  23331569.441    23331578.168
       212.000         156.000
  23098475.550    -6991098.87849  -5426376.11546  23098475.408    23098481.856
       224.000         175.000
  20902941.084   -23693001.18849 -18430432.63647  20902940.575    20902946.965
       241.000         206.000
  21875903.707   -16668465.34349 -12956602.95047  21875903.537    21875908.754
       237.000         194.000
 03  3 23  2  1  0.0000000  0  8G 3G31G14G 9G17G23G15G18
  21923873.474   -20769382.20449 -16150587.19047  21923873.568    21923880.101
       235.000         193.000
  22454307.460   -13497550.87549 -10163379.74446  22454307.007    22454314.097
       227.000         181.000
  20367546.548   -22184449.82649 -16896725.30848  20367546.201    20367550.614
       241.000         215.000
  23539197.657    -6187063.74449  -4809774.41945  23539196.853    23539205.129
       211.000         154.000
  23348448.371   -12449051.02949  -9683125.76345  23348447.906    23348457.351
       210.000         155.000
  23109530.342    -6933005.54049  -5381108.56646  23109529.416    23109536.985
       224.000         175.000
  20912906.090   -23640634.53749 -18389627.45047  20912905.737    20912912.055
       242.000         206.000
  21886376.054   -16613432.62749 -12913720.30047  21886375.617    21886381.057
       236.000         193.000
 03  3 23  2  1 30.0000000  0  8G 3G31G14G 9G17G23G15G18
  21930859.707   -20732669.42449 -16121979.82647  21930859.962    21930866.350
       235.000         193.000
  22452007.711   -13509635.87849 -10172796.59446  22452008.018    22452014.038
       228.000         181.000
  20361830.657   -22214486.90649 -16920130.77848  20361830.358    20361835.185
       241.000         215.000
  23543738.383    -6163202.42849  -4791181.15345  23543737.660    23543745.932
       210.000         155.000
  23365378.437   -12360081.14849  -9613798.55345  23365377.846    23365387.305
       209.000         153.000
  23120589.816    -6874887.13549  -5335821.50246  23120589.569    23120596.577
       224.000         175.000
  20922949.452   -23587856.14449 -18348501.42347  20922948.754    20922955.143
       241.000         206.000
  21896870.468   -16558283.87849 -12870747.24447  21896870.092    21896875.155
       235.000         193.000
 03  3 23  2  2  0.0000000  0  8G 3G31G14G 9G17G23G15G18
  21937938.806   -20695468.43349 -16092992.02647  21937938.691    21937945.220
       235.000         193.000
  22449817.199   -13521147.29849 -10181766.48746  22449817.105    22449823.923
       228.000         182.000
  20356216.171   -22243990.91849 -16943120.86448  20356215.725    20356220.884
       240.000         215.000
  23548390.647    -6138754.71649  -4772130.97445  23548390.948    23548397.905
       212.000         154.000
  23382359.772   -12270844.37049  -9544263.39045  23382359.679    23382368.514
       211.000         151.000
  23131653.924    -6816744.94049  -5290515.88446  23131653.470    23131659.811
       224.000         174.000
  20933070.847   -23534667.32249 -18307055.56847  20933070.317    20933076.859
       241.000         205.000
  21907386.734   -16503020.66049 -12827684.97647  21907386.062    21907391.321
       235.000         192.000
 03  3 23  2  2 30.0000000  0  8G 3G31G14G 9G17G23G15G18
  21945110.359   -20657781.39349 -16063625.48647  21945110.356    21945116.949
       235.000         193.000
  22447735.715   -13532085.71649 -10190289.89746  22447735.976    22447741.935
       228.000         182.000
  20350703.102   -22272962.01849 -16965695.69348  20350702.752    20350707.427
       240.000         215.000
  23553154.447    -6113721.29449  -4752624.39145  23553154.920    23553161.808
       215.000         156.000
  23399391.703   -12181341.77849  -9474521.10445  23399390.649    23399400.144
       206.000         150.000
  23142722.334    -6758579.67249  -5245192.28646  23142722.527    23142728.426
       224.000         174.000
  20943270.308   -23481069.07549 -18265290.69147  20943270.096    20943276.380
       243.000         205.000
  21917924.513   -16447643.96149 -12784534.29047  21917923.617    21917929.641
       235.000         192.000
 03  3 23  2  3  0.0000000  0  8G 3G31G14G 9G17G23G15G18
  21952374.253   -20619609.65349 -16033881.25647  21952374.687    21952381.203
       236.000         194.000
  22445763.342   -13542450.34849 -10198366.19846  22445763.281    22445769.497
       229.000         182.000
  20345291.613   -22301399.24449 -16987854.52648  20345291.438    20345296.053
       240.000         215.000
  23558029.785    -6088101.85849  -4732661.15945  23558029.875    23558036.532
       216.000         158.000
  23416473.467   -12091574.36449  -9404572.43045  23416471.354    23416483.293
       206.000         147.000
  23153795.270    -6700390.62049  -5199850.17046  23153794.132    23153801.178
       223.000         174.000
  20953547.846   -23427060.80649 -18223206.31747  20953547.491    20953553.781
       242.000         206.000
  21928483.857   -16392153.50949 -12741294.96247  21928483.147    21928488.837
       234.000         192.000
 03  3 23  2  3 30.0000000  0  8G 3G31G14G 9G17G23G15G18
  21959730.055   -20580954.93149 -16003760.67147  21959730.065    21959736.581
       236.000         194.000
  22443900.227   -13552241.09449 -10205995.32246  22443900.701    22443906.992
       229.000         182.000
  20339981.861   -22329302.34149 -17009597.15248  20339981.484    20339986.100
       240.000         215.000
  23563016.509    -6061896.48849  -4712241.34045  23563016.113    23563022.881
       215.000         157.000
  23433605.837   -12001542.61649  -9334417.78645  23433605.542    23433615.537
       209.000         147.000
  23164872.688    -6642177.69549  -5154489.44346  23164872.183    23164879.258
       223.000         173.000
  20963903.243   -23372642.64049 -18180802.53547  20963902.532    20963909.101
       241.000         205.000
  21939064.877   -16336549.54849 -12697967.18647  21939064.472    21939069.711
       234.000         192.000
 03  3 23  2  4  0.0000000  0  8G 3G31G14G 9G17G23G15G18
  21967177.154   -20541820.16249 -15973266.03147  21967176.970    21967183.885
       236.000         193.000
  22442146.102   -13561459.16949 -10213178.21246  22442146.046    22442152.827
       229.000         183.000
  20334773.503   -22356672.19249 -17030924.25948  20334773.040    20334777.703
       240.000         215.000
  23568114.241    -6035106.89149  -4691366.27545  23568114.444    23568120.736
       215.000         156.000
  23450788.486   -11911248.85349  -9264059.00345  23450788.957    23450797.465
       210.000         147.000
  23175954.440    -6583942.16249  -5109111.10546  23175954.341    23175961.183
       222.000         172.000
  20974336.367   -23317816.02949 -18138080.48847  20974336.029    20974342.161
       242.000         205.000
  21949667.243   -16280833.73949 -12654552.25347  21949667.112    21949672.062
       235.000         192.000
 03  3 23  2  4 30.0000000  0  8G 3G31G14G 9G17G23G15G18
  21974715.416   -20502206.59049 -15942398.30047  21974715.401    21974721.842
       235.000         193.000
  22440501.006   -13570104.36149 -10219914.69046  22440500.455    22440507.086
       228.000         182.000
  20329666.661   -22383508.49349 -17051835.61948  20329666.435    20329671.002
       240.000         215.000
  23573323.400    -6007733.14649  -4670036.04245  23573323.668    23573330.812
       216.000         157.000
  23468020.830   -11820693.43949  -9193496.32345  23468019.828    23468028.731
       207.000         146.000
  23187040.637    -6525683.68349  -5063714.88146  23187039.856    23187046.881
       223.000         172.000
  20984847.316   -23262580.95849 -18095040.16647  20984846.993    20984853.117
       242.000         205.000
  21960290.950   -16225006.31949 -12611050.35447  21960291.187    21960295.763
       235.000         192.000
 03  3 23  2  5  0.0000000  0  8G 3G31G14G 9G17G23G15G18
  21982344.381   -20462115.78949 -15911158.69947  21982344.340    21982350.863
       235.000         193.000
  22438964.925   -13578176.11649 -10226204.33146  22438963.869    22438971.483
       228.000         182.000
  20324661.562   -22409810.51049 -17072330.65248  20324661.430    20324665.778
       241.000         216.000
  23578643.578    -5979775.22149  -4648250.61345  23578643.665    23578650.619
       217.000         159.000
  23485302.204   -11729877.13849  -9122730.31945  23485301.754    23485310.626
       209.000         145.000
  23198131.320    -6467401.88049  -5018300.48046  23198131.848    23198137.594
       223.000         171.000
  20995435.973   -23206937.17449 -18051681.36847  20995435.363    20995441.755
       242.000         205.000
  21970935.918   -16169067.12149 -12567461.36047  21970935.768    21970940.509
       236.000         191.000
 03  3 23  2  5 30.0000000  0  8G 3G31G14G 9G17G23G15G18
  21990063.871   -20421549.26649 -15879548.41047  21990064.025    21990070.694
       236.000         193.000
  22437538.051   -13585674.34249 -10232047.07146  22437538.475    22437544.256
       229.000         182.000
  20319758.150   -22435577.94049 -17092409.12648  20319757.814    20319762.513
       241.000         216.000
  23584074.946    -5951233.19949  -4626010.03245  23584074.915    23584082.481
       216.000         159.000
  23502633.525   -11638800.52549  -9051761.49545  23502633.445    23502643.204
       209.000         146.000
  23209226.468    -6409096.41449  -4972867.63746  23209226.177    23209233.111
       223.000         171.000
  21006102.365   -23150884.55649 -18008003.98647  21006101.678    21006108.164
       241.000         205.000
  21981602.150   -16113015.94949 -12523785.10147  21981601.724    21981606.566
       235.000         191.000
 03  3 23  2  6  0.0000000  0  8G 3G31G14G 9G17G23G15G18
  21997873.334   -20380511.17349 -15847570.66947  21997873.379    21997879.513
       236.000         193.000
  22436220.032   -13592601.10849 -10237444.52046  22436219.928    22436226.173
       228.000         182.000
  20314956.158   -22460812.55349 -17112072.41548  20314955.829    20314960.201
       241.000         216.000
  23589617.035    -5922109.51949  -4603316.23145  23589617.687    23589624.064
       215.000         160.000
  23520014.055   -11547466.62649  -8980592.17645  23520013.943    23520023.375
       210.000         148.000
  23220325.775    -6350769.25449  -4927417.92046  23220326.083    23220332.800
       223.000         172.000
  21016846.116   -23094425.43149 -17964009.85147  21016845.581    21016852.076
       241.000         204.000
  21992289.027   -16056855.31949 -12480023.54747  21992288.126    21992292.738
       234.000         189.000
 03  3 23  2  6 30.0000000  0  8G 3G31G14G 9G17G23G15G18
  22005772.177   -20339002.18849 -15815225.99047  22005771.861    22005778.848
       235.000         193.000
  22435010.745   -13598955.65449 -10242396.08046  22435010.415    22435016.761
       229.000         182.000
  20310255.680   -22485513.50249 -17131319.86248  20310255.233    20310259.866
       240.000         216.000
  23595269.841    -5892403.85749  -4580168.95045  23595269.465    23595276.449
       214.000         158.000
  23537443.261   -11455875.43849  -8909222.36445  23537442.468    23537451.678
       210.000         148.000
  23231429.480    -6292419.46449  -4881950.54446  23231429.436    23231436.753
       223.000         172.000
  21027667.340   -23037559.32549 -17919698.59247  21027666.949    21027673.250
       240.000         204.000
  22002996.747   -16000584.79049 -12436176.36047  22002996.203    22003000.961
       233.000         188.000
 03  3 23  2  7  0.0000000  0  8G 3G31G14G 9G17G23G15G18
  22013760.320   -20297023.79049 -15782515.54147  22013760.341    22013767.455
       236.000         193.000
  22433910.513   -13604737.57649 -10246901.43646  22433910.447    22433916.742
       229.000         182.000
  20305656.854   -22509680.22449 -17150151.03048  20305656.477    20305660.994
       241.000         216.000
  23601033.180    -5862115.99949  -4556568.01145  23601033.664    23601039.738
       216.000         157.000
  23554921.322   -11364027.85949  -8837652.76245  23554920.878    23554929.783
       212.000         149.000
  23242537.584    -6234046.41249  -4836465.06246  23242537.376    23242544.588
       222.000         173.000
  21038566.084   -22980286.14249 -17875070.14147  21038565.784    21038572.306
       240.000         204.000
  22013725.493   -15944204.02249 -12392243.27347  22013724.845    22013729.974
       233.000         188.000
 03  3 23  2  7 30.0000000  0  8G 3G31G14G 9G17G23G15G18
  22021837.303   -20254579.06449 -15749441.71147  22021836.840    22021843.674
       235.000         192.000
  22432918.986   -13609948.05949 -10250961.51046  22432918.704    22432924.815
       228.000         182.000
  20301159.603   -22533313.57549 -17168566.58048  20301159.440    20301163.562
       241.000         216.000
  23606907.342    -5831247.27849  -4532514.44145  23606907.018    23606914.590
       218.000         158.000
  23572448.020   -11271925.66649  -8765884.79345  23572448.304    23572456.221
       213.000         150.000
  23253649.768    -6175651.20149  -4790962.30246  23253648.974    23253657.119
       223.000         173.000
  21049542.001   -22922607.22949 -17830125.52547  21049541.426    21049548.462
       240.000         204.000
  22024474.991   -15887714.61349 -12348225.53147  22024474.594    22024479.900
       234.000         188.000
 03  3 23  2  8  0.0000000  0  8G 3G31G14G 9G17G23G15G18
  22030002.758   -20211669.50249 -15716005.68047  22030003.096    22030009.167
       236.000         192.000
  22432036.186   -13614586.99949 -10254576.22746  22432036.115    22432042.095
       228.000         182.000
  20296763.874   -22556413.21749 -17186566.24948  20296763.613    20296767.832
       241.000         216.000
  23612892.046    -5799798.01949  -4508008.47245  23612892.075    23612897.708
       218.000         159.000
  23590023.006   -11179569.41249  -8693918.83345  23590022.167    23590031.820
       214.000         151.000
  23264766.312    -6117233.35049  -4745441.88746  23264766.507    23264772.663
       223.000         173.000
  21060595.148   -22864522.42949 -17784864.62747  21060594.654    21060601.538
       240.000         204.000
  22035245.258   -15831116.47749 -12304123.07247  22035245.417    22035250.309
       235.000         189.000
 03  3 23  2  8 30.0000000  0  8G 3G31G14G 9G17G23G15G18
  22038256.342   -20168297.24949 -15682209.10447  22038256.053    22038262.629
       236.000         192.000
  22431262.065   -13618654.79249 -10257745.89846  22431262.020    22431268.712
       229.000         182.000
  20292469.625   -22578979.32749 -17204150.18948  20292469.356    20292473.699
       241.000         216.000
  23618986.841    -5767768.97049  -4483050.72145  23618986.766    23618993.267
       216.000         157.000
  23607645.855   -11086960.18749  -8621755.74845  23607645.227    23607654.539
       212.000         153.000
  23275887.094    -6058793.00749  -4699903.95146  23275886.799    23275893.772
       224.000         172.000
  21071725.484   -22806032.10449 -17739287.74847  21071725.258    21071731.857
       240.000         204.000
  22046036.217   -15774410.04349 -12259936.22747  22046036.207    22046041.095
       235.000         189.000
 03  3 23  2  9  0.0000000  0  8G 3G31G14G 9G17G23G15G18
  22046597.505   -20124464.11249 -15648053.39047  22046596.879    22046603.694
       234.000         191.000
  22430596.704   -13622151.34949 -10260470.44346  22430596.481    22430603.007
       229.000         183.000
  20288277.042   -22601011.40449 -17221317.99148  20288276.668    20288281.062
       241.000         216.000
  23625191.938    -5735160.49449  -4457641.46745  23625191.330    23625198.929
       217.000         157.000
  23625316.686   -10994098.84449  -8549396.21545  23625316.254    23625325.287
       214.000         156.000
  23287012.310    -6000329.79249  -4654348.17946  23287012.337    23287018.649
       223.000         172.000
  21082932.948   -22747136.46249 -17693395.02947  21082932.609    21082939.006
       240.000         204.000
  22056847.842   -15717595.13349 -12215664.85847  22056847.892    22056852.540
       236.000         189.000
 03  3 23  2  9 30.0000000  0  8G 3G31G14G 9G17G23G15G18
  22055025.902   -20080171.95649 -15613540.00647  22055025.633    22055032.352
       235.000         191.000
  22430039.898   -13625077.06049 -10262750.18046  22430039.557    22430046.612
       229.000         183.000
  20284186.022   -22622509.62549 -17238069.80448  20284185.551    20284190.029
       240.000         216.000
  23631507.229    -5701973.23049  -4431781.22145  23631506.159    23631513.924
       213.000         155.000
  23643035.475   -10900986.56849  -8476841.15945  23643035.007    23643043.203
       214.000         157.000
  23298141.816    -5941843.71549  -4608774.61546  23298141.322    23298148.364
       224.000         172.000
  21094217.433   -22687835.97149 -17647186.84547  21094216.648    21094223.424
       240.000         204.000
  22067680.073   -15660671.97849 -12171309.13747  22067680.113    22067684.627
       234.000         189.000
 03  3 23  2 10  0.0000000  0  8G 3G31G14G 9G17G23G15G18
  22063541.177   -20035423.71649 -15578671.23447  22063541.148    22063547.750
       236.000         191.000
  22429591.599   -13627432.66249 -10264585.68046  22429591.727    22429598.083
       231.000         183.000
  20280196.458   -22643474.64949 -17254406.14148  20280196.272    20280200.637
       242.000         216.000
  23637932.213    -5668208.41949  -4405470.94545  23637932.060    23637939.103
       214.000         153.000
  23660801.730   -10807624.73149  -8404091.63645  23660801.248    23660809.618
       214.000         157.000
  23309275.647    -5883335.25249  -4563183.60246  23309275.674    23309281.251
       227.000         172.000
  21105578.767   -22628131.51549 -17600663.88447  21105578.422    21105585.077
       242.000         204.000
  22078532.512   -15603641.97349 -12126870.15447  22078532.300    22078536.968
       235.000         188.000
 03  3 23  2 10 30.0000000  0  8G 3G31G14G 9G17G23G15G18
  22072143.011   -19990220.84149 -15543448.19547  22072143.123    22072149.527
       236.000         191.000
  22429251.771   -13629218.27949 -10265977.03246  22429251.252    22429258.218
       230.000         183.000
  20276308.460   -22663906.32349 -17270326.87948  20276307.994    20276312.483
       242.000         216.000
  23644467.347    -5633866.64449  -4378711.06745  23644467.985    23644474.695
       216.000         152.000
  23678615.114   -10714014.25849  -8331148.36145  23678614.526    23678623.460
       214.000         157.000
  23320413.836    -5824804.02149  -4517574.84546  23320413.953    23320420.823
       224.000         171.000
  21117016.959   -22568023.35949 -17553826.35447  21117016.524    21117023.166
       242.000         203.000
  22089405.310   -15546504.99849 -12082347.82047  22089404.723    22089410.013
       235.000         188.000
 03  3 23  2 11  0.0000000  0  8G 3G31G14G 9G17G23G15G18
  22080830.396   -19944567.95649 -15507874.51247  22080829.910    22080836.936
       234.000         190.000
  22429019.779   -13630436.85149 -10266926.53746  22429019.573    22429026.371
       229.000         182.000
  20272521.340   -22683807.25749 -17285834.06148  20272520.836    20272525.290
       240.000         216.000
  23651111.680    -5598950.95149  -4351503.98845  23651112.585    23651117.552
       213.000         151.000
  23696475.042   -10620158.79949  -8258014.20345  23696474.272    23696482.309
       211.000         157.000
  23331555.766    -5766252.62249  -4471950.37146  23331555.650    23331562.517
       223.000         170.000
  21128531.435   -22507514.51449 -17506676.59947  21128530.802    21128537.443
       240.000         203.000
  22100297.993   -15489263.71949 -12037744.21547  22100297.772    22100302.604
       234.000         188.000
 03  3 23  2 11 30.0000000  0  8G 3G31G14G 9G17G23G15G18
  22089603.344   -19898465.84049 -15471950.77147  22089602.826    22089609.819
       234.000         190.000
  22428895.926   -13631087.62649 -10267433.59646  22428895.579    22428902.036
       229.000         183.000
  20268835.405   -22703176.41949 -17300926.87948  20268835.067    20268839.624
       240.000         216.000
  23657865.189    -5563460.83549  -4323849.29445  23657864.691    23657871.691
       213.000         150.000
  23714381.562   -10526058.69649  -8184689.41545  23714382.075    23714389.477
       210.000         156.000
  23342701.807    -5707679.67249  -4426309.11146  23342700.795    23342708.126
       222.000         169.000
  21140122.308   -22446604.07449 -17459213.90947  21140121.798    21140128.183
       241.000         203.000
  22111210.614   -15431917.27249 -11993058.66547  22111210.517    22111215.651
       234.000         188.000
 03  3 23  2 12  0.0000000  0  8G 3G31G14G 9G17G23G15G18
  22098461.728   -19851914.53949 -15435677.01347  22098461.274    22098467.969
       234.000         190.000
  22428880.492   -13631168.66649 -10267496.71346  22428880.469    22428886.493
       230.000         184.000
  20265251.178   -22722011.73849 -17315603.70848  20265250.929    20265255.328
       241.000         217.000
  23664728.322    -5527395.03749  -4295746.04345  23664727.720    23664734.929
       210.000         149.000
  23732335.121   -10431712.13149  -8111172.57045  23732334.067    23732342.902
       209.000         153.000
  23353852.408    -5649082.74149  -4380649.14946  23353851.575    23353858.384
       221.000         168.000
  21151789.945   -22385290.31849 -17411436.94447  21151789.571    21151795.938
       240.000         203.000
  22122143.688   -15374463.71649 -11948289.65047  22122143.978    22122148.442
       234.000         188.000
 03  3 23  2 12 30.0000000  0  8G 3G31G14G 9G17G23G15G18
  22107405.149   -19804916.32549 -15399055.01247  22107404.862    22107411.859
       233.000         189.000
  22428973.332   -13630680.77049 -10267116.50746  22428973.914    22428979.854
       231.000         185.000
  20261768.380   -22740313.69049 -17329864.92348  20261767.880    20261772.558
       240.000         217.000
  23671700.636    -5490754.52449  -4267194.98045  23671700.922    23671707.950
       213.000         150.000
  23750335.143   -10337120.88049  -8037465.07145  23750333.606    23750342.571
       207.000         151.000
  23365007.391    -5590462.14249  -4334970.75746  23365006.732    23365013.557
       221.000         168.000
  21163534.120   -22323574.06749 -17363346.34147  21163533.371    21163540.228
       240.000         202.000
  22133097.005   -15316903.76049 -11903437.73347  22133096.236    22133101.989
       233.000         188.000
 03  3 23  2 13  0.0000000  0  8G 3G31G14G 9G17G23G15G18
  22116432.952   -19757474.26549 -15362087.15947  22116433.262    22116440.097
       233.000         189.000
  22429174.249   -13629625.44449 -10266294.14746  22429174.146    22429180.463
       230.000         185.000
  20258386.828   -22758083.46049 -17343711.46448  20258386.671    20258391.348
       241.000         217.000
  23678782.131    -5453541.09249  -4238197.46745  23678782.680    23678788.250
       214.000         151.000
  23768381.408   -10242286.85649  -7963568.38745  23768381.202    23768390.693
       209.000         150.000
  23376166.860    -5531818.79449  -4289274.62946  23376167.376    23376173.623
       221.000         168.000
  21175354.655   -22261456.78749 -17314943.26447  21175354.337    21175360.851
       240.000         202.000
  22144070.217   -15259238.73549 -11858503.93847  22144069.869    22144075.128
       232.000         188.000
 03  3 23  2 13 30.0000000  0  8G 3G31G14G 9G17G23G15G18
  22125544.787   -19709591.18449 -15324775.65347  22125545.034    22125551.619
       234.000         189.000
  22429482.798   -13628003.64249 -10265030.37046  22429482.932    22429489.635
       231.000         185.000
  20255106.464   -22775321.80749 -17357143.91048  20255106.222    20255110.818
       241.000         217.000
  23685972.406    -5415756.19749  -4208754.64945  23685972.393    23685979.300
       215.000         152.000
  23786473.559   -10147212.14449  -7889484.17145  23786473.497    23786481.484
       208.000         149.000
  23387330.443    -5473153.26249  -4243561.22146  23387330.868    23387335.841
       221.000         167.000
  21187251.323   -22198939.66249 -17266228.61847  21187251.331    21187257.420
       241.000         203.000
  22155063.307   -15201469.39749 -11813488.86746  22155063.019    22155067.207
       233.000         187.000
 03  3 23  2 14  0.0000000  0  8G 3G31G14G 9G17G23G15G18
  22134740.339   -19661268.00849 -15287121.20847  22134740.148    22134747.139
       233.000         189.000
  22429899.381   -13625814.58049 -10263324.57946  22429899.104    22429905.558
       231.000         185.000
  20251927.420   -22792027.62849 -17370161.39248  20251927.163    20251931.684
       241.000         218.000
  23693271.420    -5377399.31149  -4178866.11745  23693271.799    23693278.188
       211.000         150.000
  23804611.378   -10051896.32449  -7815212.06845  23804609.502    23804619.691
       203.000         147.000
  23398498.518    -5414464.06649  -4197829.34746  23398497.807    23398505.493
       222.000         166.000
  21199224.253   -22136021.94749 -17217201.81547  21199223.603    21199230.132
       240.000         203.000
  22166076.516   -15143594.40249 -11768391.45346  22166076.195    22166081.476
       232.000         187.000
 03  3 23  2 14 30.0000000  0  8G 3G31G14G 9G17G23G15G18
  22144019.039   -19612508.52349 -15249126.79547  22144019.384    22144025.588
       234.000         189.000
  22430423.535   -13623060.33649 -10261178.39046  22430423.441    22430429.269
       230.000         185.000
  20248849.358   -22808202.74949 -17382765.35048  20248849.044    20248853.757
       240.000         218.000
  23700678.710    -5338472.78449  -4148533.70345  23700678.502    23700684.644
       209.000         148.000
  23822794.393    -9956342.35849  -7740754.38245  23822793.683    23822802.970
       206.000         145.000
  23409671.053    -5355752.53249  -4152080.09146  23409671.851    23409677.235
       223.000         167.000
  21211272.853   -22072705.62449 -17167864.41147  21211272.082    21211278.730
       239.000         202.000
  22177109.453   -15085615.67549 -11723213.21746  22177109.367    22177114.005
       233.000         187.000
 03  3 23  2 15  0.0000000  0  8G 3G31G14G 9G17G23G15G18
  22153380.124   -19563316.25149 -15210795.14047  22153380.104    22153386.422
       233.000         189.000
  22431054.688   -13619743.00649 -10258593.43346  22431054.144    22431061.193
       230.000         185.000
  20245871.978   -22823848.89149 -17394957.11048  20245871.745    20245876.086
       241.000         217.000
  23708194.062    -5298979.28649  -4117759.53045  23708194.239    23708201.268
       207.000         146.000
  23841022.525    -9860552.52749  -7666112.91945  23841021.184    23841030.015
       207.000         145.000
  23420847.659    -5297019.97349  -4106314.44446  23420847.934    23420854.174
       223.000         168.000
  21223397.003   -22008992.72449 -17118217.98547  21223396.528    21223402.822
       240.000         201.000
  22188161.820   -15027535.06349 -11677955.58746  22188161.306    22188166.568
       233.000         187.000
 03  3 23  2 15 30.0000000  0  8G 3G31G14G 9G17G23G15G18
  22162823.746   -19513689.50349 -15172124.92547  22162823.297    22162830.294
       232.000         188.000
  22431793.692   -13615859.20149 -10255567.05946  22431793.283    22431799.251
       229.000         184.000
  20242995.937   -22838962.38749 -17406733.81948  20242995.506    20242999.886
       240.000         217.000
  23715817.963    -5258915.70949  -4086541.16245  23715817.391    23715825.387
       208.000         146.000
  23859295.884    -9764524.31249  -7591285.70245  23859294.644    23859304.978
       204.000         146.000
  23432028.918    -5238262.33149  -4060529.26546  23432029.084    23432035.847
       222.000         168.000
  21235597.294   -21944879.66349 -17068259.74547  21235596.522    21235603.196
       238.000         201.000
  22199234.205   -14969348.87749 -11632615.68046  22199233.810    22199239.271
       233.000         187.000
 03  3 23  2 16  0.0000000  0  8G 3G31G14G 9G17G23G15G18
  22172349.097   -19463633.01949 -15133119.85646  22172348.602    22172355.877
       233.000         187.000
  22432639.837   -13611412.31749 -10252101.92446  22432639.207    22432646.261
       229.000         184.000
  20240220.710   -22853546.19349 -17418097.79248  20240220.657    20240224.763
       241.000         217.000
  23723549.627    -5218285.91849  -4054881.56545  23723550.028    23723555.840
       210.000         148.000
  23877613.903    -9668261.48549  -7516275.65845  23877614.152    23877623.424
       209.000         147.000
  23443214.361    -5179482.24849  -4014726.57846  23443213.561    23443220.891
       219.000         168.000
  21247873.046   -21880369.79049 -17017992.30147  21247872.514    21247879.195
       239.000         201.000
  22210326.132   -14911060.07149 -11587195.81946  22210325.741    22210331.155
       233.000         187.000
 03  3 23  2 16 30.0000000  0  8G 3G31G14G 9G17G23G15G18
  22181955.796   -19413149.00149 -15093781.63646  22181955.392    22181962.200
       232.000         187.000
  22433593.076   -13606402.72849 -10248198.32046  22433592.667    22433599.091
       230.000         184.000
  20237546.254   -22867600.72049 -17429049.32848  20237545.938    20237550.209
       241.000         217.000
  23731388.985    -5177090.52649  -4022781.23345  23731389.541    23731396.495
       208.000         149.000
  23895976.849    -9571765.17649  -7441083.69645  23895976.919    23895984.723
       207.000         147.000
  23454404.093    -5120679.51449  -3968906.24446  23454403.764    23454411.160
       220.000         167.000
  21260224.326   -21815463.64549 -16967416.07447  21260224.053    21260230.205
       240.000         201.000
  22221437.660   -14852668.77149 -11541696.09146  22221437.819    22221442.729
       233.000         187.000
 03  3 23  2 17  0.0000000  0  8G 3G31G14G 9G17G23G15G18
  22191643.508   -19362239.74149 -15054112.07446  22191643.245    22191650.086
       233.000         187.000
  22434653.265   -13600831.19149 -10243856.84746  22434652.853    22434659.313
       230.000         184.000
  20234972.367   -22881126.26149 -17439588.67048  20234972.130    20234976.418
       240.000         217.000
  23739335.623    -5135330.26649  -3990240.72045  23739334.491    23739342.697
       208.000         148.000
  23914383.650    -9475036.70049  -7365710.81845  23914383.097    23914391.779
       206.000         145.000
  23465598.086    -5061853.84149  -3923068.02946  23465597.145    23465605.117
       219.000         166.000
  21272650.956   -21750161.81349 -16916531.52947  21272650.481    21272656.618
       240.000         201.000
  22232568.676   -14794175.22049 -11496116.68546  22232567.884    22232573.581
       232.000         187.000
 03  3 23  2 17 30.0000000  0  8G 3G31G14G 9G17G23G15G18
  22201411.819   -19310907.72449 -15014113.08947  22201411.862    22201418.282
       233.000         188.000
  22435820.233   -13594698.59149 -10239078.17146  22435820.125    22435826.587
       229.000         184.000
  20232499.146   -22894123.41949 -17449716.28548  20232498.902    20232503.298
       241.000         218.000
  23747389.334    -5093006.68849  -3957261.26545  23747389.135    23747396.158
       205.000         146.000
  23932834.335    -9378077.16149  -7290157.88445  23932834.453    23932842.920
       208.000         145.000
  23476796.449    -5003005.45649  -3877212.13346  23476795.383    23476803.413
       218.000         165.000
  21285152.641   -21684465.16449 -16865339.32947  21285152.186    21285158.395
       239.000         200.000
  22243718.968   -14735579.68149 -11450457.80146  22243718.184    22243723.617
       232.000         186.000
 03  3 23  2 18  0.0000000  0  8G 3G31G14G 9G17G23G15G18
  22211259.995   -19259154.67649 -14973786.02147  22211259.505    22211266.916
       233.000         188.000
  22437093.879   -13588005.34649 -10233862.63146  22437093.553    22437099.935
       229.000         184.000
  20230126.391   -22906592.16449 -17459432.15648  20230126.105    20230130.335
       241.000         218.000
  23755550.209    -5050120.39049  -3923843.33845  23755550.415    23755556.795
       207.000         144.000
  23951328.914    -9280887.76149  -7214425.83545  23951328.320    23951337.849
       210.000         146.000
  23487999.360    -4944133.70949  -3831338.03046  23487999.017    23488006.984
       219.000         165.000
  21297729.331   -21618373.87849 -16813839.62347  21297728.719    21297735.035
       238.000         200.000
  22254888.620   -14676882.05549 -11404719.36746  22254888.152    22254893.628
       231.000         186.000
 03  3 23  2 18 30.0000000  0  8G 3G31G14G 9G17G23G15G18
  22221187.831   -19206983.58949 -14933133.21147  22221187.552    22221194.546
       233.000         188.000
  22438474.043   -13580752.60449 -10228211.10646  22438474.427    22438480.512
       231.000         184.000
  20227854.008   -22918533.44249 -17468737.00948  20227853.828    20227857.829
       241.000         218.000
  23763817.886    -5006673.00249  -3889988.21645  23763818.301    23763824.791
       208.000         144.000
  23969866.913    -9183470.20349  -7138516.00845  23969866.557    23969874.774
       209.000         146.000
  23499206.791    -4885238.87549  -3785445.93146  23499206.698    23499213.376
       220.000         166.000
  21310380.876   -21551889.16849 -16762033.34847  21310380.261    21310386.867
       238.000         199.000
  22266077.646   -14618083.17249 -11358902.03146  22266077.365    22266082.945
       232.000         186.000
 03  3 23  2 19  0.0000000  0  9G 3G31G14G25G 9G17G23G15G18
  22231194.864   -19154397.12549 -14892156.72747  22231194.624    22231201.138
       232.000         188.000
  22439960.519   -13572941.59849 -10222124.57646  22439960.199    22439966.248
       230.000         184.000
  20225681.876   -22929948.25449 -17477631.61848  20225681.562    20225685.476
       240.000         218.000
  24537182.653    -4407577.04049  -3404426.77945  24537181.902    24537190.590
       204.000         133.000
  23772192.132    -4962666.37649  -3855697.29245  23772193.033    23772199.569
       210.000         145.000
  23988447.925    -9085825.86349  -7062429.46445  23988448.443    23988455.390
       210.000         145.000
  23510418.355    -4826321.35949  -3739536.14446  23510419.175    23510424.574
       219.000         165.000
  21323107.077   -21485012.23849 -16709921.44247  21323106.660    21323113.162
       239.000         199.000
  22277285.861   -14559183.80449 -11313006.40946  22277285.256    22277290.506
       231.000         186.000
 03  3 23  2 19 30.0000000  0  9G 3G31G14G25G 9G17G23G15G18
  22241280.359   -19101397.21349 -14850858.08946  22241280.122    22241287.033
       231.000         187.000
  22441553.024   -13564572.63949 -10215603.27246  22441552.546    22441559.431
       230.000         184.000
  20223609.906   -22940836.28249 -17486115.76148  20223609.606    20223613.825
       241.000         218.000
  24518600.346    -4505226.33249  -3480516.81645  24518598.637    24518609.899
       205.000         133.000
  23780672.755    -4918100.82549  -3820970.84145  23780672.453    23780678.878
       210.000         145.000
  24007072.177    -8987955.46349  -6986166.77045  24007071.520    24007079.096
       211.000         143.000
  23521634.560    -4767380.41849  -3693608.13746  23521634.112    23521640.472
       219.000         165.000
  21335907.954   -21417743.24549 -16657504.03747  21335907.439    21335914.026
       239.000         199.000
  22288513.196   -14500183.54549 -11267032.16446  22288513.173    22288518.303
       232.000         186.000
 03  3 23  2 20  0.0000000  0  9G 3G31G14G25G 9G17G23G15G18
  22251443.947   -19047986.12249 -14809239.04646  22251443.266    22251451.215
       231.000         186.000
  22443251.547   -13555646.56849 -10208647.86746  22443251.201    22443257.740
       230.000         183.000
  20221638.026   -22951198.41949 -17494190.11648  20221637.781    20221641.898
       241.000         218.000
  24500006.390    -4602936.60049  -3556654.35945  24500004.700    24500014.775
       204.000         135.000
  23789259.259    -4872977.60349  -3785809.82745  23789258.719    23789265.386
       208.000         143.000
  24025739.104    -8889860.14849  -6909728.82545  24025738.188    24025747.098
       211.000         143.000
  23532855.198    -4708415.89049  -3647661.73846  23532855.373    23532861.985
       221.000         166.000
  21348783.295   -21350082.85049 -16604781.65047  21348782.685    21348789.068
       238.000         198.000
  22299759.859   -14441082.58649 -11220979.44846  22299760.217    22299764.974
       232.000         186.000
 03  3 23  2 20 30.0000000  0  9G 3G31G14G25G 9G17G23G15G18
  22261685.286   -18994166.65149 -14767301.78146  22261685.046    22261692.508
       231.000         186.000
  22445055.927   -13546164.74349 -10201259.40146  22445055.322    22445061.844
       230.000         183.000
  20219766.068   -22961035.50749 -17501855.33748  20219765.787    20219769.909
       241.000         218.000
  24481401.037    -4700705.85949  -3632837.91145  24481400.539    24481409.016
       201.000         134.000
  23797951.589    -4827298.26549  -3750215.49545  23797950.931    23797959.636
       208.000         143.000
  24044448.304    -8791542.28649  -6833117.43645  24044448.235    24044456.485
       212.000         144.000
  23544080.237    -4649428.16649  -3601697.27346  23544079.903    23544086.056
       219.000         165.000
  21361732.957   -21282032.14849 -16551755.11947  21361732.580    21361738.615
       239.000         198.000
  22311025.614   -14381881.54149 -11174848.74646  22311025.428    22311030.418
       232.000         186.000
 03  3 23  2 21  0.0000000  0  9G 3G31G14G25G 9G17G23G15G18
  22272004.195   -18939940.39249 -14725047.55146  22272004.832    22272010.839
       230.000         185.000
  22446966.060   -13536127.09449 -10193437.82746  22446965.719    22446972.454
       230.000         184.000
  20217994.104   -22970347.17149 -17509111.14648  20217993.954    20217997.845
       241.000         218.000
  24462785.195    -4798530.49249  -3709064.59445  24462784.747    24462794.087
       206.000         134.000
  23806749.580    -4781063.27449  -3714188.21245  23806748.251    23806757.262
       205.000         143.000
  24063200.119    -8693001.51149  -6756332.37345  24063199.624    24063208.379
       210.000         144.000
  23555309.850    -4590416.18049  -3555713.90246  23555309.319    23555316.262
       220.000         164.000
  21374756.844   -21213591.02349 -16498424.36847  21374756.734    21374762.935
       237.000         198.000
  22322310.395   -14322580.07149 -11128639.79646  22322310.096    22322314.835
       232.000         185.000
 03  3 23  2 21 30.0000000  0  9G 3G31G14G25G 9G17G23G15G18
  22282399.777   -18885310.91349 -14682479.11346  22282399.716    22282406.640
       230.000         185.000
  22448981.522   -13525535.71249 -10185184.77746  22448980.954    22448987.659
       230.000         184.000
  20216321.823   -22979135.12549 -17515958.86548  20216321.502    20216325.605
       241.000         218.000
  24444159.402    -4896408.88749  -3785333.17845  24444158.431    24444165.457
       202.000         133.000
  23815652.884    -4734275.19149  -3677729.92745  23815652.387    23815659.789
       203.000         144.000
  24081993.616    -8594241.21649  -6679376.24845  24081992.174    24081999.941
       211.000         143.000
  23566543.806    -4531380.93149  -3509712.37746  23566543.352    23566549.909
       220.000         163.000
  21387854.639   -21144761.50749 -16444790.96947  21387854.187    21387860.627
       238.000         197.000
  22333613.939   -14263179.16949 -11082353.36246  22333613.921    22333618.338
       230.000         184.000
 03  3 23  2 22  0.0000000  0  9G 3G31G14G25G 9G17G23G15G18
  22292871.773   -18830280.01749 -14639597.87646  22292871.526    22292879.051
       231.000         185.000
  22451102.257   -13514391.01249 -10176500.56746  22451101.086    22451107.927
       229.000         183.000
  20214749.110   -22987399.45749 -17522398.56848  20214748.791    20214752.830
       241.000         218.000
  24425523.781    -4994338.17349  -3861641.41845  24425523.062    24425531.243
       202.000         133.000
  23824661.351    -4686934.76949  -3640841.28445  23824662.649    23824668.989
       204.000         144.000
  24100828.507    -8495261.76549  -6602249.35145  24100827.534    24100835.692
       210.000         143.000
  23577782.268    -4472321.72249  -3463692.18845  23577781.342    23577788.304
       220.000         162.000
  21401026.300   -21075543.79249 -16390855.07447  21401025.748    21401032.292
       237.000         197.000
  22344936.463   -14203678.58249 -11035989.26046  22344935.793    22344940.989
       230.000         184.000
 03  3 23  2 22 30.0000000  0  9G 3G31G14G25G 9G17G23G15G18
  22303419.807   -18774850.11249 -14596405.73246  22303419.604    22303427.021
       231.000         185.000
  22453327.978   -13502694.02849 -10167385.99546  22453326.745    22453334.203
       231.000         184.000
  20213275.952   -22995140.63749 -17528430.62348  20213275.341    20213279.688
       241.000         218.000
  24406879.001    -5092315.48849  -3937987.08645  24406878.669    24406887.411
       206.000         135.000
  23833774.846    -4639043.22549  -3603523.20245  23833773.102    23833783.112
       203.000         143.000
  24119704.953    -8396064.39249  -6524952.65245  24119703.936    24119712.577
       210.000         142.000
  23589025.408    -4413238.38949  -3417653.20345  23589025.268    23589031.370
       219.000         162.000
  21414271.640   -21005938.85149 -16336617.44347  21414271.089    21414277.868
       238.000         197.000
  22356277.828   -14144078.66049 -10989547.73946  22356276.612    22356282.692
       230.000         183.000
 03  3 23  2 23  0.0000000  0  9G 3G31G14G25G 9G17G23G15G18
  22314043.146   -18719024.11249 -14552904.93546  22314042.900    22314049.797
       230.000         184.000
  22455658.667   -13490445.96949 -10157842.02546  22455658.351    22455664.645
       230.000         184.000
  20211902.084   -23002359.79249 -17534055.90948  20211901.572    20211905.848
       240.000         217.000
  24388225.588    -5190338.73749  -4014368.56245  24388225.523    24388233.868
       207.000         136.000
  23842992.879    -4590602.17049  -3565776.91245  23842993.189    23843000.335
       205.000         143.000
  24138622.642    -8296650.76449  -6447487.43445  24138621.860    24138630.919
       210.000         142.000
  23600273.221    -4354131.03349  -3371595.49645  23600273.331    23600280.149
       219.000         162.000
  21427590.597   -20935947.64149 -16282078.83447  21427589.938    21427596.028
       237.000         196.000
  22367638.030   -14084379.91849 -10943029.23246  22367637.547    22367643.154
       229.000         182.000
 03  3 23  2 23 30.0000000  0  9G 3G31G14G25G 9G17G23G15G18
  22324741.375   -18662804.58649 -14509097.49746  22324741.413    22324747.917
       230.000         184.000
  22458094.008   -13477648.23349 -10147869.74746  22458093.685    22458099.650
       231.000         184.000
  20210627.426   -23009057.80449 -17539275.11548  20210627.124    20210631.452
       241.000         218.000
  24369563.938    -5288405.79849  -4090784.20045  24369564.641    24369571.253
       208.000         138.000
  23852315.185    -4541613.26049  -3527603.73145  23852315.236    23852322.085
       205.000         144.000
  24157581.280    -8197022.49849  -6369854.97145  24157580.945    24157589.811
       210.000         142.000
  23611525.604    -4294999.73549  -3325519.15446  23611525.411    23611531.025
       219.000         163.000
  21440982.832   -20865570.93749 -16227239.84147  21440982.267    21440988.291
       237.000         195.000
  22379017.034   -14024582.73549 -10896434.01046  22379016.949    22379022.135
       229.000         182.000
 03  3 23  2 24  0.0000000  0  9G 3G31G14G25G 9G17G23G15G18
  22335513.162   -18606198.26649 -14464988.65746  22335512.986    22335520.124
       230.000         184.000
  22460632.915   -13464305.91449 -10137473.11346  22460632.897    22460638.902
       230.000         184.000
  20209451.101   -23015239.50049 -17544091.99448  20209450.948    20209455.127
       241.000         218.000
  24350893.777    -5386518.05549  -4167235.04545  24350893.777    24350901.377
       207.000         140.000
  23861740.815    -4492081.87249  -3489007.81845  23861742.000    23861747.535
       210.000         143.000
  24176579.831    -8097185.36749  -6292059.74645  24176579.962    24176587.692
       210.000         142.000
  23622781.823    -4235848.48949  -3279427.25746  23622781.119    23622787.846
       220.000         164.000
  21454447.344   -20794813.96749 -16172104.53147  21454446.786    21454453.337
       236.000         195.000
  22390413.890   -13964691.39649 -10849765.41646  22390413.499    22390418.390
       229.000         181.000
 03  3 23  2 24 30.0000000  0  9G 3G31G14G25G 9G17G23G15G18
  22346359.233   -18549201.65449 -14420575.69846  22346358.908    22346365.717
       230.000         184.000
  22463276.499   -13450413.89449 -10126648.13746  22463275.958    22463282.998
       230.000         184.000
  20208374.111   -23020899.23649 -17548502.14548  20208373.914    20208377.920
       241.000         218.000
  24332216.498    -5484666.59949  -4243714.18145  24332215.957    24332224.694
       207.000         142.000
  23871270.591    -4442003.31449  -3449985.52745  23871270.843    23871277.222
       210.000         143.000
  24195618.997    -7997134.31749  -6214097.83345  24195619.091    24195626.195
       209.000         141.000
  23634043.125    -4176670.82249  -3233314.76146  23634041.953    23634049.208
       217.000         163.000
  21467985.310   -20723671.30849 -16116668.67147  21467984.753    21467991.578
       236.000         195.000
  22401829.795   -13904699.92149 -10803018.78646  22401829.626    22401834.452
       228.000         181.000
 03  3 23  2 25  0.0000000  0  9G 3G31G14G25G 9G17G23G15G18
  22357279.185   -18491817.18549 -14375860.51146  22357279.507    22357285.520
       230.000         184.000
  22466024.329   -13435973.72049 -10115396.04046  22466023.556    22466030.301
       230.000         184.000
  20207396.208   -23026038.30149 -17552506.58348  20207395.931    20207400.021
       241.000         218.000
  24313532.701    -5582849.34449  -4320219.98445  24313532.592    24313541.387
       208.000         142.000
  23880904.025    -4391379.68549  -3410538.52945  23880904.794    23880910.020
       210.000         142.000
  24214698.568    -7896870.73649  -6135970.31445  24214698.843    24214705.677
       209.000         140.000
  23645309.149    -4117467.09449  -3187181.96745  23645308.484    23645314.998
       215.000         162.000
  21481596.442   -20652144.35249 -16060933.36547  21481595.781    21481602.315
       236.000         196.000
  22413264.575   -13844609.09449 -10756194.75046  22413264.520    22413269.455
       228.000         181.000
 03  3 23  2 25 30.0000000  0  9G 3G31G14G25G 9G17G23G15G18
  22368272.331   -18434048.24749 -14330845.73746  22368272.507    22368278.791
       230.000         184.000
  22468876.143   -13420987.28449 -10103718.26846  22468876.021    22468882.311
       230.000         184.000
  20206517.023   -23030658.47949 -17556106.69148  20206516.640    20206520.987
       241.000         218.000
  24294842.856    -5681064.41549  -4396750.97045  24294841.881    24294849.838
       211.000         143.000
  23890640.879    -4340212.92649  -3370668.29945  23890640.614    23890646.506
       209.000         143.000
  24233818.056    -7796397.46649  -6057679.40145  24233817.147    24233824.912
       206.000         139.000
  23656579.971    -4058237.80149  -3141029.24145  23656579.331    23656585.942
       215.000         161.000
  21495280.380   -20580234.68749 -16004899.84247  21495279.897    21495286.195
       237.000         195.000
  22424718.255   -13784419.63549 -10709293.86046  22424718.570    22424723.332
       229.000         182.000
 03  3 23  2 26  0.0000000  0  9G 3G31G14G25G 9G17G23G15G18
  22379337.885   -18375898.01149 -14285533.84646  22379337.787    22379344.098
       231.000         184.000
  22471831.646   -13405456.19249 -10091616.10946  22471831.255    22471837.475
       229.000         184.000
  20205736.352   -23034760.61249 -17559303.13248  20205736.010    20205740.185
       241.000         218.000
  24276147.454    -5779309.50049  -4473305.34445  24276147.393    24276154.476
       209.000         144.000
  23900480.553    -4288505.07449  -3330376.47645  23900481.421    23900487.034
       207.000         144.000
  24252977.048    -7695716.36549  -5979226.53745  24252975.025    24252983.612
       209.000         137.000
  23667855.658    -3998983.24549  -3094856.83945  23667854.495    23667862.566
       217.000         162.000
  21509036.927   -20507943.67749 -15948569.17547  21509036.594    21509043.058
       237.000         195.000
  22436190.580   -13724132.29249 -10662316.69146  22436190.938    22436195.716
       230.000         182.000
 03  3 23  2 26 30.0000000  0  9G 3G31G14G25G 9G17G23G15G18
  22390475.519   -18317368.95649 -14239926.76746  22390475.287    22390482.024
       230.000         184.000
  22474890.542   -13389381.69449 -10079090.50046  22474889.828    22474896.664
       230.000         184.000
  20205054.104   -23038345.56349 -17562096.56848  20205053.772    20205057.701
       241.000         218.000
  24257446.555    -5877582.28549  -4549881.32045  24257445.380    24257452.914
       211.000         145.000
  23910422.828    -4236257.65949  -3289664.20945  23910423.408    23910429.073
       206.000         144.000
  24272175.226    -7594828.38749  -5900612.46945  24272173.344    24272181.602
       207.000         138.000
  23679136.164    -3939703.40449  -3048664.73546  23679135.985    23679142.401
       216.000         163.000
  21522865.784   -20435272.37149 -15891942.16247  21522865.001    21522872.038
       236.000         195.000
  22447681.561   -13663747.42649 -10615263.52646  22447681.354    22447686.606
       231.000         183.000
 03  3 23  2 27  0.0000000  0  9G 3G31G14G25G 9G17G23G15G18
  22401684.867   -18258463.58349 -14194026.46046  22401685.186    22401691.237
       229.000         183.000
  22478052.581   -13372764.85949 -10066142.30046  22478052.188    22478058.319
       229.000         184.000
  20204470.129   -23041414.27449 -17564487.74048  20204469.777    20204473.806
       241.000         218.000
  24238740.954    -5975879.85949  -4626476.62345  24238740.219    24238748.825
       211.000         147.000
  23920467.579    -4183472.20349  -3248532.67045  23920467.145    23920474.665
       207.000         143.000
  24291412.539    -7493735.09649  -5821838.44845  24291412.945    24291420.842
       208.000         139.000
  23690421.567    -3880397.95349  -3002452.68446  23690421.343    23690428.529
       217.000         163.000
  21536766.965   -20362221.40649 -15835019.32147  21536766.497    21536773.221
       237.000         195.000
  22459190.962   -13603265.12049 -10568134.43046  22459190.926    22459196.049
       229.000         182.000
 03  3 23  2 27 30.0000000  0  8G 3G31G14G25G 9G23G15G18
  22412965.220   -18199185.00449 -14147835.34846  22412964.248    22412971.912
       229.000         182.000
  22481317.402   -13355607.38549 -10052772.81546  22481316.898    22481322.822
       229.000         183.000
  20203984.139   -23043967.77249 -17566477.45048  20203984.023    20203987.991
       241.000         218.000
  24220031.142    -6074199.83249  -4703089.38945  24220031.461    24220038.224
       212.000         148.000
  23930614.380    -4130150.63249  -3206983.39745  23930614.191    23930620.500
       207.000         144.000
  23701711.779    -3821066.98249  -2956220.74746  23701711.886    23701718.347
       217.000         164.000
  21550740.184   -20288792.15749 -15777801.71747  21550739.553    21550745.953
       237.000         195.000
  22470718.826   -13542685.72349 -10520929.69146  22470718.545    22470723.683
       230.000         181.000
 03  3 23  2 28  0.0000000  0  8G 3G31G14G25G 9G23G15G18
  22424316.088   -18139535.35949 -14101355.08446  22424315.709    22424323.021
       228.000         182.000
  22484685.030   -13337910.18549 -10038982.75846  22484684.917    22484691.356
       230.000         183.000
  20203596.168   -23046006.79649 -17568066.26648  20203595.792    20203599.844
       241.000         218.000
  24201317.800    -6172539.73549  -4779717.69045  24201317.127    24201325.079
       211.000         148.000
  23940862.849    -4076294.06549  -3165017.22245  23940863.225    23940870.039
       207.000         143.000
  23713007.097    -3761710.10249  -2909968.61146  23713006.567    23713013.235
       219.000         164.000
  21564785.173   -20214985.52649 -15720290.04547  21564784.980    21564790.533
       237.000         195.000
  22482265.152   -13482009.23049 -10473649.28146  22482264.752    22482270.066
       231.000         180.000
 03  3 23  2 28 30.0000000  0  8G 3G31G14G25G 9G23G15G18
  22435736.876   -18079517.74249 -14054588.09046  22435736.423    22435743.817
       228.000         182.000
  22488155.209   -13319675.04949 -10024773.54246  22488154.385    22488161.134
       229.000         183.000
  20203305.793   -23047532.48549 -17569255.08548  20203305.473    20203309.602
       241.000         218.000
  24182600.925    -6270897.22049  -4856359.68145  24182599.675    24182607.495
       210.000         149.000
  23951212.835    -4021904.76449  -3122635.92745  23951213.770    23951218.654
       209.000         143.000
  23724307.210    -3702327.49849  -2863696.42946  23724306.704    23724313.099
       219.000         163.000
  21578901.672   -20140802.75449 -15662485.27347  21578901.098    21578907.551
       236.000         194.000
  22493829.971   -13421236.32049 -10426293.74746  22493830.865    22493834.319
       232.000         180.000
 03  3 23  2 29  0.0000000  0  8G 3G31G14G25G 9G23G15G18
  22447227.209   -18019135.23849 -14007536.78146  22447227.408    22447233.927
       228.000         181.000
  22491727.185   -13300903.71549 -10010146.50346  22491726.712    22491732.933
       227.000         182.000
  20203112.858   -23048546.38149 -17570045.09748  20203112.496    20203116.821
       241.000         218.000
  24163880.823    -6369269.99249  -4933013.58145  24163879.524    24163887.703
       210.000         148.000
  23961663.856    -3966984.66949  -3079841.02545  23961663.815    23961670.613
       206.000         144.000
  23735612.219    -3642919.44449  -2817404.42345  23735612.118    23735618.063
       219.000         162.000
  21593089.358   -20066245.41749 -15604388.64047  21593088.326    21593095.304
       234.000         193.000
  22505413.112   -13360367.60349 -10378863.54246  22505412.927    22505416.763
       231.000         179.000
 03  3 23  2 29 30.0000000  0  8G 3G31G14G25G 9G23G15G18
  22458786.929   -17958389.05749 -13960202.08846  22458786.865    22458793.022
       229.000         181.000
  22495401.189   -13281596.20249  -9995101.66246  22495400.458    22495406.802
       229.000         182.000
  20203017.331   -23049048.08049 -17570436.00448  20203017.132    20203021.248
       241.000         219.000
  24145158.607    -6467654.16849  -5009676.36545  24145157.605    24145166.106
       210.000         148.000
  23972215.635    -3911534.24049  -3036632.90145  23972215.610    23972222.034
       205.000         143.000
  23746922.421    -3583484.41649  -2771091.40445  23746921.968    23746927.848
       218.000         161.000
  21607348.437   -19991313.07449 -15545999.79247  21607347.954    21607354.450
       234.000         193.000
  22517014.551   -13299401.81649 -10331357.72146  22517013.906    22517018.360
       230.000         179.000
